<?xml version="1.0" encoding="UTF-8" standalone="no" ?>
<gpx xmlns="http://www.topografix.com/GPX/1/1" xmlns:xsi="http://www.w3.org/2001/XMLSchema-instance" xsi:schemaLocation="http://www.topografix.com/GPX/1/1 http://www.topografix.com/GPX/1/1/gpx.xsd" version="1.1" creator="VisuGPX - https://www.visugpx.com">
  <metadata>
    <name>rando  mauron st thurial</name>
    <desc><![CDATA[ mauron iffendic st thurial loutehel plelan mauron]]></desc>
  </metadata>
  <trk>
    <name><![CDATA[2011-10-09T06:25:42Z]]></name>
    <trkseg>
      <trkpt lat="48.08227" lon="-2.28341">
        <ele>74.387</ele>
        <time>2011-10-09T06:25:44Z</time>
      </trkpt>
      <trkpt lat="48.08225" lon="-2.28343">
        <ele>74.319</ele>
        <time>2011-10-09T06:25:50Z</time>
      </trkpt>
      <trkpt lat="48.08225" lon="-2.28344">
        <ele>73.976</ele>
        <time>2011-10-09T06:26:01Z</time>
      </trkpt>
      <trkpt lat="48.08224" lon="-2.28344">
        <ele>74.052</ele>
        <time>2011-10-09T06:26:02Z</time>
      </trkpt>
      <trkpt lat="48.08224" lon="-2.28344">
        <ele>74.026</ele>
        <time>2011-10-09T06:26:03Z</time>
      </trkpt>
      <trkpt lat="48.08221" lon="-2.28344">
        <ele>74.055</ele>
        <time>2011-10-09T06:26:15Z</time>
      </trkpt>
      <trkpt lat="48.08214" lon="-2.28351">
        <ele>74.076</ele>
        <time>2011-10-09T06:26:20Z</time>
      </trkpt>
      <trkpt lat="48.082" lon="-2.28371">
        <ele>74.613</ele>
        <time>2011-10-09T06:26:29Z</time>
      </trkpt>
      <trkpt lat="48.08192" lon="-2.28387">
        <ele>74.847</ele>
        <time>2011-10-09T06:26:35Z</time>
      </trkpt>
      <trkpt lat="48.08191" lon="-2.28409">
        <ele>74.961</ele>
        <time>2011-10-09T06:26:41Z</time>
      </trkpt>
      <trkpt lat="48.0818" lon="-2.28427">
        <ele>75.245</ele>
        <time>2011-10-09T06:26:48Z</time>
      </trkpt>
      <trkpt lat="48.08175" lon="-2.28462">
        <ele>75.319</ele>
        <time>2011-10-09T06:26:55Z</time>
      </trkpt>
      <trkpt lat="48.08181" lon="-2.2849">
        <ele>75.947</ele>
        <time>2011-10-09T06:27:00Z</time>
      </trkpt>
      <trkpt lat="48.0819" lon="-2.28514">
        <ele>76.765</ele>
        <time>2011-10-09T06:27:04Z</time>
      </trkpt>
      <trkpt lat="48.0818" lon="-2.28534">
        <ele>77.156</ele>
        <time>2011-10-09T06:27:10Z</time>
      </trkpt>
      <trkpt lat="48.08175" lon="-2.28534">
        <ele>77.174</ele>
        <time>2011-10-09T06:27:11Z</time>
      </trkpt>
      <trkpt lat="48.08158" lon="-2.28539">
        <ele>76.944</ele>
        <time>2011-10-09T06:27:15Z</time>
      </trkpt>
      <trkpt lat="48.08149" lon="-2.28565">
        <ele>76.827</ele>
        <time>2011-10-09T06:27:21Z</time>
      </trkpt>
      <trkpt lat="48.08141" lon="-2.2859">
        <ele>76.668</ele>
        <time>2011-10-09T06:27:26Z</time>
      </trkpt>
      <trkpt lat="48.08114" lon="-2.28608">
        <ele>76.153</ele>
        <time>2011-10-09T06:27:31Z</time>
      </trkpt>
      <trkpt lat="48.0808" lon="-2.28654">
        <ele>74.548</ele>
        <time>2011-10-09T06:27:39Z</time>
      </trkpt>
      <trkpt lat="48.08056" lon="-2.28687">
        <ele>73.773</ele>
        <time>2011-10-09T06:27:45Z</time>
      </trkpt>
      <trkpt lat="48.08031" lon="-2.28721">
        <ele>73.059</ele>
        <time>2011-10-09T06:27:51Z</time>
      </trkpt>
      <trkpt lat="48.08006" lon="-2.2875">
        <ele>72.587</ele>
        <time>2011-10-09T06:27:57Z</time>
      </trkpt>
      <trkpt lat="48.07967" lon="-2.28776">
        <ele>71.845</ele>
        <time>2011-10-09T06:28:05Z</time>
      </trkpt>
      <trkpt lat="48.07926" lon="-2.28791">
        <ele>71.556</ele>
        <time>2011-10-09T06:28:13Z</time>
      </trkpt>
      <trkpt lat="48.07871" lon="-2.28806">
        <ele>71.528</ele>
        <time>2011-10-09T06:28:24Z</time>
      </trkpt>
      <trkpt lat="48.07826" lon="-2.28825">
        <ele>71.299</ele>
        <time>2011-10-09T06:28:34Z</time>
      </trkpt>
      <trkpt lat="48.07809" lon="-2.2884">
        <ele>71.094</ele>
        <time>2011-10-09T06:28:38Z</time>
      </trkpt>
      <trkpt lat="48.07796" lon="-2.28862">
        <ele>71.027</ele>
        <time>2011-10-09T06:28:42Z</time>
      </trkpt>
      <trkpt lat="48.07785" lon="-2.28907">
        <ele>71.381</ele>
        <time>2011-10-09T06:28:49Z</time>
      </trkpt>
      <trkpt lat="48.0777" lon="-2.28997">
        <ele>70.469</ele>
        <time>2011-10-09T06:29:02Z</time>
      </trkpt>
      <trkpt lat="48.07769" lon="-2.29011">
        <ele>70.32</ele>
        <time>2011-10-09T06:29:04Z</time>
      </trkpt>
      <trkpt lat="48.07759" lon="-2.29046">
        <ele>69.921</ele>
        <time>2011-10-09T06:29:10Z</time>
      </trkpt>
      <trkpt lat="48.07752" lon="-2.29055">
        <ele>69.743</ele>
        <time>2011-10-09T06:29:12Z</time>
      </trkpt>
      <trkpt lat="48.07743" lon="-2.29087">
        <ele>69.794</ele>
        <time>2011-10-09T06:29:18Z</time>
      </trkpt>
      <trkpt lat="48.07741" lon="-2.29106">
        <ele>69.742</ele>
        <time>2011-10-09T06:29:21Z</time>
      </trkpt>
      <trkpt lat="48.07738" lon="-2.29147">
        <ele>69.317</ele>
        <time>2011-10-09T06:29:28Z</time>
      </trkpt>
      <trkpt lat="48.0774" lon="-2.2916">
        <ele>68.962</ele>
        <time>2011-10-09T06:29:32Z</time>
      </trkpt>
      <trkpt lat="48.0774" lon="-2.2916">
        <ele>68.659</ele>
        <time>2011-10-09T06:29:34Z</time>
      </trkpt>
      <trkpt lat="48.07754" lon="-2.29175">
        <ele>68.611</ele>
        <time>2011-10-09T06:29:45Z</time>
      </trkpt>
      <trkpt lat="48.07755" lon="-2.29177">
        <ele>68.63</ele>
        <time>2011-10-09T06:29:46Z</time>
      </trkpt>
      <trkpt lat="48.07757" lon="-2.29179">
        <ele>68.422</ele>
        <time>2011-10-09T06:29:50Z</time>
      </trkpt>
      <trkpt lat="48.07752" lon="-2.29173">
        <ele>68.365</ele>
        <time>2011-10-09T06:29:59Z</time>
      </trkpt>
      <trkpt lat="48.07744" lon="-2.29168">
        <ele>66.271</ele>
        <time>2011-10-09T06:32:22Z</time>
      </trkpt>
      <trkpt lat="48.07744" lon="-2.29167">
        <ele>66.327</ele>
        <time>2011-10-09T06:32:23Z</time>
      </trkpt>
      <trkpt lat="48.07745" lon="-2.29164">
        <ele>66.448</ele>
        <time>2011-10-09T06:32:27Z</time>
      </trkpt>
      <trkpt lat="48.07747" lon="-2.29153">
        <ele>65.335</ele>
        <time>2011-10-09T06:33:22Z</time>
      </trkpt>
      <trkpt lat="48.07751" lon="-2.29136">
        <ele>65.141</ele>
        <time>2011-10-09T06:33:28Z</time>
      </trkpt>
      <trkpt lat="48.07756" lon="-2.29111">
        <ele>65.027</ele>
        <time>2011-10-09T06:33:34Z</time>
      </trkpt>
      <trkpt lat="48.07758" lon="-2.2908">
        <ele>65.066</ele>
        <time>2011-10-09T06:33:41Z</time>
      </trkpt>
      <trkpt lat="48.07766" lon="-2.29065">
        <ele>65.009</ele>
        <time>2011-10-09T06:33:46Z</time>
      </trkpt>
      <trkpt lat="48.07767" lon="-2.2905">
        <ele>64.791</ele>
        <time>2011-10-09T06:33:50Z</time>
      </trkpt>
      <trkpt lat="48.0776" lon="-2.2903">
        <ele>64.801</ele>
        <time>2011-10-09T06:33:55Z</time>
      </trkpt>
      <trkpt lat="48.0776" lon="-2.29005">
        <ele>65.021</ele>
        <time>2011-10-09T06:34:01Z</time>
      </trkpt>
      <trkpt lat="48.07761" lon="-2.28981">
        <ele>65.004</ele>
        <time>2011-10-09T06:34:06Z</time>
      </trkpt>
      <trkpt lat="48.07756" lon="-2.28943">
        <ele>64.896</ele>
        <time>2011-10-09T06:34:13Z</time>
      </trkpt>
      <trkpt lat="48.07746" lon="-2.289">
        <ele>64.72</ele>
        <time>2011-10-09T06:34:20Z</time>
      </trkpt>
      <trkpt lat="48.07744" lon="-2.28894">
        <ele>64.684</ele>
        <time>2011-10-09T06:34:21Z</time>
      </trkpt>
      <trkpt lat="48.07724" lon="-2.28829">
        <ele>64.531</ele>
        <time>2011-10-09T06:34:31Z</time>
      </trkpt>
      <trkpt lat="48.07704" lon="-2.28757">
        <ele>63.894</ele>
        <time>2011-10-09T06:34:41Z</time>
      </trkpt>
      <trkpt lat="48.07682" lon="-2.28681">
        <ele>62.73</ele>
        <time>2011-10-09T06:34:51Z</time>
      </trkpt>
      <trkpt lat="48.07658" lon="-2.28597">
        <ele>61.11</ele>
        <time>2011-10-09T06:35:01Z</time>
      </trkpt>
      <trkpt lat="48.07631" lon="-2.28516">
        <ele>59.514</ele>
        <time>2011-10-09T06:35:10Z</time>
      </trkpt>
      <trkpt lat="48.07608" lon="-2.28473">
        <ele>58.541</ele>
        <time>2011-10-09T06:35:15Z</time>
      </trkpt>
      <trkpt lat="48.07574" lon="-2.28421">
        <ele>57.394</ele>
        <time>2011-10-09T06:35:22Z</time>
      </trkpt>
      <trkpt lat="48.07546" lon="-2.28382">
        <ele>56.457</ele>
        <time>2011-10-09T06:35:28Z</time>
      </trkpt>
      <trkpt lat="48.07512" lon="-2.2835">
        <ele>54.551</ele>
        <time>2011-10-09T06:35:33Z</time>
      </trkpt>
      <trkpt lat="48.07469" lon="-2.28328">
        <ele>51.878</ele>
        <time>2011-10-09T06:35:38Z</time>
      </trkpt>
      <trkpt lat="48.07433" lon="-2.28311">
        <ele>49.495</ele>
        <time>2011-10-09T06:35:42Z</time>
      </trkpt>
      <trkpt lat="48.07392" lon="-2.28279">
        <ele>46.833</ele>
        <time>2011-10-09T06:35:47Z</time>
      </trkpt>
      <trkpt lat="48.07361" lon="-2.28237">
        <ele>46.173</ele>
        <time>2011-10-09T06:35:52Z</time>
      </trkpt>
      <trkpt lat="48.07342" lon="-2.282">
        <ele>46.324</ele>
        <time>2011-10-09T06:35:57Z</time>
      </trkpt>
      <trkpt lat="48.07308" lon="-2.28135">
        <ele>47.426</ele>
        <time>2011-10-09T06:36:07Z</time>
      </trkpt>
      <trkpt lat="48.07285" lon="-2.28109">
        <ele>48.653</ele>
        <time>2011-10-09T06:36:13Z</time>
      </trkpt>
      <trkpt lat="48.07273" lon="-2.281">
        <ele>49.242</ele>
        <time>2011-10-09T06:36:16Z</time>
      </trkpt>
      <trkpt lat="48.07257" lon="-2.28095">
        <ele>50.454</ele>
        <time>2011-10-09T06:36:20Z</time>
      </trkpt>
      <trkpt lat="48.07233" lon="-2.2808">
        <ele>51.399</ele>
        <time>2011-10-09T06:36:26Z</time>
      </trkpt>
      <trkpt lat="48.07232" lon="-2.28058">
        <ele>51.363</ele>
        <time>2011-10-09T06:36:29Z</time>
      </trkpt>
      <trkpt lat="48.07244" lon="-2.28041">
        <ele>51.18</ele>
        <time>2011-10-09T06:36:32Z</time>
      </trkpt>
      <trkpt lat="48.07249" lon="-2.28038">
        <ele>51.053</ele>
        <time>2011-10-09T06:36:33Z</time>
      </trkpt>
      <trkpt lat="48.07274" lon="-2.28008">
        <ele>50.57</ele>
        <time>2011-10-09T06:36:38Z</time>
      </trkpt>
      <trkpt lat="48.07278" lon="-2.27999">
        <ele>50.451</ele>
        <time>2011-10-09T06:36:39Z</time>
      </trkpt>
      <trkpt lat="48.07312" lon="-2.27913">
        <ele>47.969</ele>
        <time>2011-10-09T06:36:48Z</time>
      </trkpt>
      <trkpt lat="48.07351" lon="-2.27814">
        <ele>46.226</ele>
        <time>2011-10-09T06:36:58Z</time>
      </trkpt>
      <trkpt lat="48.07395" lon="-2.27718">
        <ele>45.173</ele>
        <time>2011-10-09T06:37:09Z</time>
      </trkpt>
      <trkpt lat="48.0743" lon="-2.27645">
        <ele>44.437</ele>
        <time>2011-10-09T06:37:18Z</time>
      </trkpt>
      <trkpt lat="48.07473" lon="-2.27562">
        <ele>44.639</ele>
        <time>2011-10-09T06:37:29Z</time>
      </trkpt>
      <trkpt lat="48.07518" lon="-2.27488">
        <ele>45.267</ele>
        <time>2011-10-09T06:37:40Z</time>
      </trkpt>
      <trkpt lat="48.07573" lon="-2.27407">
        <ele>45.602</ele>
        <time>2011-10-09T06:37:53Z</time>
      </trkpt>
      <trkpt lat="48.07624" lon="-2.27342">
        <ele>46.368</ele>
        <time>2011-10-09T06:38:04Z</time>
      </trkpt>
      <trkpt lat="48.07643" lon="-2.27319">
        <ele>46.438</ele>
        <time>2011-10-09T06:38:08Z</time>
      </trkpt>
      <trkpt lat="48.07647" lon="-2.27313">
        <ele>46.467</ele>
        <time>2011-10-09T06:38:09Z</time>
      </trkpt>
      <trkpt lat="48.077" lon="-2.27255">
        <ele>46.911</ele>
        <time>2011-10-09T06:38:20Z</time>
      </trkpt>
      <trkpt lat="48.0775" lon="-2.27205">
        <ele>47.289</ele>
        <time>2011-10-09T06:38:30Z</time>
      </trkpt>
      <trkpt lat="48.07818" lon="-2.27145">
        <ele>47.275</ele>
        <time>2011-10-09T06:38:43Z</time>
      </trkpt>
      <trkpt lat="48.07879" lon="-2.27098">
        <ele>46.916</ele>
        <time>2011-10-09T06:38:54Z</time>
      </trkpt>
      <trkpt lat="48.07941" lon="-2.27056">
        <ele>46.447</ele>
        <time>2011-10-09T06:39:05Z</time>
      </trkpt>
      <trkpt lat="48.08" lon="-2.27023">
        <ele>45.877</ele>
        <time>2011-10-09T06:39:15Z</time>
      </trkpt>
      <trkpt lat="48.08069" lon="-2.26983">
        <ele>45.253</ele>
        <time>2011-10-09T06:39:27Z</time>
      </trkpt>
      <trkpt lat="48.08113" lon="-2.2695">
        <ele>44.948</ele>
        <time>2011-10-09T06:39:35Z</time>
      </trkpt>
      <trkpt lat="48.0814" lon="-2.26931">
        <ele>45.819</ele>
        <time>2011-10-09T06:39:41Z</time>
      </trkpt>
      <trkpt lat="48.0817" lon="-2.26917">
        <ele>48.49</ele>
        <time>2011-10-09T06:39:49Z</time>
      </trkpt>
      <trkpt lat="48.08176" lon="-2.26905">
        <ele>49.28</ele>
        <time>2011-10-09T06:39:52Z</time>
      </trkpt>
      <trkpt lat="48.08174" lon="-2.26881">
        <ele>49.863</ele>
        <time>2011-10-09T06:39:56Z</time>
      </trkpt>
      <trkpt lat="48.0815" lon="-2.26829">
        <ele>51.102</ele>
        <time>2011-10-09T06:40:05Z</time>
      </trkpt>
      <trkpt lat="48.08121" lon="-2.26777">
        <ele>52.546</ele>
        <time>2011-10-09T06:40:15Z</time>
      </trkpt>
      <trkpt lat="48.08091" lon="-2.26732">
        <ele>54.48</ele>
        <time>2011-10-09T06:40:24Z</time>
      </trkpt>
      <trkpt lat="48.08069" lon="-2.26699">
        <ele>55.871</ele>
        <time>2011-10-09T06:40:31Z</time>
      </trkpt>
      <trkpt lat="48.08041" lon="-2.26656">
        <ele>56.91</ele>
        <time>2011-10-09T06:40:40Z</time>
      </trkpt>
      <trkpt lat="48.08005" lon="-2.266">
        <ele>58.29</ele>
        <time>2011-10-09T06:40:51Z</time>
      </trkpt>
      <trkpt lat="48.07964" lon="-2.26535">
        <ele>61.411</ele>
        <time>2011-10-09T06:41:04Z</time>
      </trkpt>
      <trkpt lat="48.0793" lon="-2.26481">
        <ele>62.892</ele>
        <time>2011-10-09T06:41:15Z</time>
      </trkpt>
      <trkpt lat="48.07897" lon="-2.2643">
        <ele>63.1</ele>
        <time>2011-10-09T06:41:24Z</time>
      </trkpt>
      <trkpt lat="48.07863" lon="-2.26376">
        <ele>61.753</ele>
        <time>2011-10-09T06:41:32Z</time>
      </trkpt>
      <trkpt lat="48.07828" lon="-2.26316">
        <ele>60.924</ele>
        <time>2011-10-09T06:41:40Z</time>
      </trkpt>
      <trkpt lat="48.07808" lon="-2.2626">
        <ele>61.147</ele>
        <time>2011-10-09T06:41:47Z</time>
      </trkpt>
      <trkpt lat="48.07788" lon="-2.2619">
        <ele>62.382</ele>
        <time>2011-10-09T06:41:56Z</time>
      </trkpt>
      <trkpt lat="48.07762" lon="-2.26098">
        <ele>63.879</ele>
        <time>2011-10-09T06:42:08Z</time>
      </trkpt>
      <trkpt lat="48.07738" lon="-2.26015">
        <ele>64.829</ele>
        <time>2011-10-09T06:42:19Z</time>
      </trkpt>
      <trkpt lat="48.07726" lon="-2.2597">
        <ele>65.617</ele>
        <time>2011-10-09T06:42:25Z</time>
      </trkpt>
      <trkpt lat="48.07707" lon="-2.25902">
        <ele>66.453</ele>
        <time>2011-10-09T06:42:34Z</time>
      </trkpt>
      <trkpt lat="48.07695" lon="-2.25862">
        <ele>66.731</ele>
        <time>2011-10-09T06:42:39Z</time>
      </trkpt>
      <trkpt lat="48.07693" lon="-2.25855">
        <ele>66.85</ele>
        <time>2011-10-09T06:42:40Z</time>
      </trkpt>
      <trkpt lat="48.07669" lon="-2.25765">
        <ele>67.093</ele>
        <time>2011-10-09T06:42:51Z</time>
      </trkpt>
      <trkpt lat="48.07648" lon="-2.25689">
        <ele>66.691</ele>
        <time>2011-10-09T06:43:00Z</time>
      </trkpt>
      <trkpt lat="48.07629" lon="-2.25619">
        <ele>65.98</ele>
        <time>2011-10-09T06:43:08Z</time>
      </trkpt>
      <trkpt lat="48.07603" lon="-2.25531">
        <ele>64.735</ele>
        <time>2011-10-09T06:43:17Z</time>
      </trkpt>
      <trkpt lat="48.07581" lon="-2.25456">
        <ele>63.508</ele>
        <time>2011-10-09T06:43:25Z</time>
      </trkpt>
      <trkpt lat="48.0756" lon="-2.25382">
        <ele>62.64</ele>
        <time>2011-10-09T06:43:33Z</time>
      </trkpt>
      <trkpt lat="48.07541" lon="-2.25316">
        <ele>61.818</ele>
        <time>2011-10-09T06:43:40Z</time>
      </trkpt>
      <trkpt lat="48.0752" lon="-2.25245">
        <ele>61.738</ele>
        <time>2011-10-09T06:43:48Z</time>
      </trkpt>
      <trkpt lat="48.07504" lon="-2.25187">
        <ele>62.265</ele>
        <time>2011-10-09T06:43:55Z</time>
      </trkpt>
      <trkpt lat="48.07499" lon="-2.25171">
        <ele>62.508</ele>
        <time>2011-10-09T06:43:57Z</time>
      </trkpt>
      <trkpt lat="48.07496" lon="-2.25162">
        <ele>62.624</ele>
        <time>2011-10-09T06:43:58Z</time>
      </trkpt>
      <trkpt lat="48.07492" lon="-2.25146">
        <ele>63.002</ele>
        <time>2011-10-09T06:44:00Z</time>
      </trkpt>
      <trkpt lat="48.07489" lon="-2.25138">
        <ele>62.993</ele>
        <time>2011-10-09T06:44:01Z</time>
      </trkpt>
      <trkpt lat="48.07485" lon="-2.25123">
        <ele>63.26</ele>
        <time>2011-10-09T06:44:03Z</time>
      </trkpt>
      <trkpt lat="48.07478" lon="-2.25099">
        <ele>63.612</ele>
        <time>2011-10-09T06:44:06Z</time>
      </trkpt>
      <trkpt lat="48.07471" lon="-2.25076">
        <ele>63.958</ele>
        <time>2011-10-09T06:44:09Z</time>
      </trkpt>
      <trkpt lat="48.07461" lon="-2.25043">
        <ele>64.236</ele>
        <time>2011-10-09T06:44:13Z</time>
      </trkpt>
      <trkpt lat="48.07442" lon="-2.24975">
        <ele>64.3</ele>
        <time>2011-10-09T06:44:21Z</time>
      </trkpt>
      <trkpt lat="48.07423" lon="-2.24902">
        <ele>63.996</ele>
        <time>2011-10-09T06:44:29Z</time>
      </trkpt>
      <trkpt lat="48.074" lon="-2.24817">
        <ele>62.731</ele>
        <time>2011-10-09T06:44:38Z</time>
      </trkpt>
      <trkpt lat="48.07379" lon="-2.2474">
        <ele>60.696</ele>
        <time>2011-10-09T06:44:45Z</time>
      </trkpt>
      <trkpt lat="48.07357" lon="-2.2466">
        <ele>58.478</ele>
        <time>2011-10-09T06:44:52Z</time>
      </trkpt>
      <trkpt lat="48.07344" lon="-2.24613">
        <ele>57.441</ele>
        <time>2011-10-09T06:44:56Z</time>
      </trkpt>
      <trkpt lat="48.0733" lon="-2.24558">
        <ele>55.993</ele>
        <time>2011-10-09T06:45:01Z</time>
      </trkpt>
      <trkpt lat="48.07322" lon="-2.24527">
        <ele>55.503</ele>
        <time>2011-10-09T06:45:04Z</time>
      </trkpt>
      <trkpt lat="48.07298" lon="-2.24436">
        <ele>55.206</ele>
        <time>2011-10-09T06:45:13Z</time>
      </trkpt>
      <trkpt lat="48.07279" lon="-2.24351">
        <ele>54.931</ele>
        <time>2011-10-09T06:45:22Z</time>
      </trkpt>
      <trkpt lat="48.07265" lon="-2.24287">
        <ele>54.742</ele>
        <time>2011-10-09T06:45:29Z</time>
      </trkpt>
      <trkpt lat="48.0725" lon="-2.2422">
        <ele>54.553</ele>
        <time>2011-10-09T06:45:36Z</time>
      </trkpt>
      <trkpt lat="48.07231" lon="-2.24142">
        <ele>53.613</ele>
        <time>2011-10-09T06:45:44Z</time>
      </trkpt>
      <trkpt lat="48.07208" lon="-2.24064">
        <ele>52.637</ele>
        <time>2011-10-09T06:45:52Z</time>
      </trkpt>
      <trkpt lat="48.0718" lon="-2.23978">
        <ele>51.623</ele>
        <time>2011-10-09T06:46:01Z</time>
      </trkpt>
      <trkpt lat="48.07156" lon="-2.23904">
        <ele>50.984</ele>
        <time>2011-10-09T06:46:09Z</time>
      </trkpt>
      <trkpt lat="48.07129" lon="-2.23821">
        <ele>50.345</ele>
        <time>2011-10-09T06:46:18Z</time>
      </trkpt>
      <trkpt lat="48.07105" lon="-2.23746">
        <ele>49.57</ele>
        <time>2011-10-09T06:46:26Z</time>
      </trkpt>
      <trkpt lat="48.07077" lon="-2.23662">
        <ele>49.208</ele>
        <time>2011-10-09T06:46:35Z</time>
      </trkpt>
      <trkpt lat="48.07051" lon="-2.23581">
        <ele>49.04</ele>
        <time>2011-10-09T06:46:44Z</time>
      </trkpt>
      <trkpt lat="48.07021" lon="-2.23484">
        <ele>49.415</ele>
        <time>2011-10-09T06:46:55Z</time>
      </trkpt>
      <trkpt lat="48.06998" lon="-2.23413">
        <ele>49.375</ele>
        <time>2011-10-09T06:47:03Z</time>
      </trkpt>
      <trkpt lat="48.06972" lon="-2.23334">
        <ele>49.511</ele>
        <time>2011-10-09T06:47:12Z</time>
      </trkpt>
      <trkpt lat="48.06948" lon="-2.2326">
        <ele>49.346</ele>
        <time>2011-10-09T06:47:20Z</time>
      </trkpt>
      <trkpt lat="48.06926" lon="-2.2319">
        <ele>49.086</ele>
        <time>2011-10-09T06:47:28Z</time>
      </trkpt>
      <trkpt lat="48.06897" lon="-2.23103">
        <ele>48.926</ele>
        <time>2011-10-09T06:47:38Z</time>
      </trkpt>
      <trkpt lat="48.06881" lon="-2.23052">
        <ele>49.139</ele>
        <time>2011-10-09T06:47:44Z</time>
      </trkpt>
      <trkpt lat="48.06862" lon="-2.22992">
        <ele>49.307</ele>
        <time>2011-10-09T06:47:51Z</time>
      </trkpt>
      <trkpt lat="48.06845" lon="-2.2294">
        <ele>49.504</ele>
        <time>2011-10-09T06:47:57Z</time>
      </trkpt>
      <trkpt lat="48.06822" lon="-2.22869">
        <ele>50.178</ele>
        <time>2011-10-09T06:48:05Z</time>
      </trkpt>
      <trkpt lat="48.06789" lon="-2.22773">
        <ele>51.256</ele>
        <time>2011-10-09T06:48:17Z</time>
      </trkpt>
      <trkpt lat="48.06766" lon="-2.22701">
        <ele>52.794</ele>
        <time>2011-10-09T06:48:26Z</time>
      </trkpt>
      <trkpt lat="48.06749" lon="-2.22645">
        <ele>53.633</ele>
        <time>2011-10-09T06:48:33Z</time>
      </trkpt>
      <trkpt lat="48.06721" lon="-2.22558">
        <ele>54.762</ele>
        <time>2011-10-09T06:48:44Z</time>
      </trkpt>
      <trkpt lat="48.06706" lon="-2.22512">
        <ele>55.776</ele>
        <time>2011-10-09T06:48:50Z</time>
      </trkpt>
      <trkpt lat="48.06682" lon="-2.22437">
        <ele>57.474</ele>
        <time>2011-10-09T06:49:00Z</time>
      </trkpt>
      <trkpt lat="48.06659" lon="-2.22366">
        <ele>58.792</ele>
        <time>2011-10-09T06:49:09Z</time>
      </trkpt>
      <trkpt lat="48.06634" lon="-2.22288">
        <ele>58.982</ele>
        <time>2011-10-09T06:49:18Z</time>
      </trkpt>
      <trkpt lat="48.066" lon="-2.22184">
        <ele>58.069</ele>
        <time>2011-10-09T06:49:30Z</time>
      </trkpt>
      <trkpt lat="48.0658" lon="-2.22122">
        <ele>57.245</ele>
        <time>2011-10-09T06:49:37Z</time>
      </trkpt>
      <trkpt lat="48.06569" lon="-2.22085">
        <ele>56.802</ele>
        <time>2011-10-09T06:49:41Z</time>
      </trkpt>
      <trkpt lat="48.06557" lon="-2.22047">
        <ele>56.132</ele>
        <time>2011-10-09T06:49:45Z</time>
      </trkpt>
      <trkpt lat="48.06545" lon="-2.22008">
        <ele>55.449</ele>
        <time>2011-10-09T06:49:49Z</time>
      </trkpt>
      <trkpt lat="48.06532" lon="-2.21969">
        <ele>54.657</ele>
        <time>2011-10-09T06:49:53Z</time>
      </trkpt>
      <trkpt lat="48.06508" lon="-2.21894">
        <ele>53.957</ele>
        <time>2011-10-09T06:50:01Z</time>
      </trkpt>
      <trkpt lat="48.06486" lon="-2.21823">
        <ele>54.44</ele>
        <time>2011-10-09T06:50:09Z</time>
      </trkpt>
      <trkpt lat="48.06465" lon="-2.2176">
        <ele>54.997</ele>
        <time>2011-10-09T06:50:17Z</time>
      </trkpt>
      <trkpt lat="48.0645" lon="-2.21705">
        <ele>56.295</ele>
        <time>2011-10-09T06:50:24Z</time>
      </trkpt>
      <trkpt lat="48.06442" lon="-2.21647">
        <ele>57.006</ele>
        <time>2011-10-09T06:50:31Z</time>
      </trkpt>
      <trkpt lat="48.06439" lon="-2.21567">
        <ele>57.267</ele>
        <time>2011-10-09T06:50:40Z</time>
      </trkpt>
      <trkpt lat="48.06438" lon="-2.21474">
        <ele>57.11</ele>
        <time>2011-10-09T06:50:50Z</time>
      </trkpt>
      <trkpt lat="48.06437" lon="-2.21394">
        <ele>57.924</ele>
        <time>2011-10-09T06:50:59Z</time>
      </trkpt>
      <trkpt lat="48.06436" lon="-2.21296">
        <ele>58.715</ele>
        <time>2011-10-09T06:51:10Z</time>
      </trkpt>
      <trkpt lat="48.06436" lon="-2.212">
        <ele>59.263</ele>
        <time>2011-10-09T06:51:21Z</time>
      </trkpt>
      <trkpt lat="48.06434" lon="-2.21127">
        <ele>60.558</ele>
        <time>2011-10-09T06:51:30Z</time>
      </trkpt>
      <trkpt lat="48.06433" lon="-2.21072">
        <ele>62.065</ele>
        <time>2011-10-09T06:51:37Z</time>
      </trkpt>
      <trkpt lat="48.06433" lon="-2.20998">
        <ele>64.187</ele>
        <time>2011-10-09T06:51:47Z</time>
      </trkpt>
      <trkpt lat="48.06432" lon="-2.20927">
        <ele>67.047</ele>
        <time>2011-10-09T06:51:58Z</time>
      </trkpt>
      <trkpt lat="48.06431" lon="-2.20915">
        <ele>67.567</ele>
        <time>2011-10-09T06:52:00Z</time>
      </trkpt>
      <trkpt lat="48.06431" lon="-2.20852">
        <ele>70.01</ele>
        <time>2011-10-09T06:52:10Z</time>
      </trkpt>
      <trkpt lat="48.0643" lon="-2.20809">
        <ele>71.742</ele>
        <time>2011-10-09T06:52:17Z</time>
      </trkpt>
      <trkpt lat="48.06429" lon="-2.20778">
        <ele>72.978</ele>
        <time>2011-10-09T06:52:22Z</time>
      </trkpt>
      <trkpt lat="48.06429" lon="-2.2073">
        <ele>74.276</ele>
        <time>2011-10-09T06:52:30Z</time>
      </trkpt>
      <trkpt lat="48.06428" lon="-2.20724">
        <ele>74.375</ele>
        <time>2011-10-09T06:52:31Z</time>
      </trkpt>
      <trkpt lat="48.06416" lon="-2.20701">
        <ele>75.633</ele>
        <time>2011-10-09T06:52:36Z</time>
      </trkpt>
      <trkpt lat="48.06412" lon="-2.20699">
        <ele>75.848</ele>
        <time>2011-10-09T06:52:37Z</time>
      </trkpt>
      <trkpt lat="48.06385" lon="-2.20681">
        <ele>76.746</ele>
        <time>2011-10-09T06:52:43Z</time>
      </trkpt>
      <trkpt lat="48.06371" lon="-2.20654">
        <ele>77.166</ele>
        <time>2011-10-09T06:52:48Z</time>
      </trkpt>
      <trkpt lat="48.0637" lon="-2.20647">
        <ele>77.209</ele>
        <time>2011-10-09T06:52:49Z</time>
      </trkpt>
      <trkpt lat="48.06372" lon="-2.20592">
        <ele>78.159</ele>
        <time>2011-10-09T06:52:57Z</time>
      </trkpt>
      <trkpt lat="48.06373" lon="-2.20556">
        <ele>79.315</ele>
        <time>2011-10-09T06:53:03Z</time>
      </trkpt>
      <trkpt lat="48.06375" lon="-2.20526">
        <ele>80.046</ele>
        <time>2011-10-09T06:53:09Z</time>
      </trkpt>
      <trkpt lat="48.06385" lon="-2.20463">
        <ele>80.94</ele>
        <time>2011-10-09T06:53:18Z</time>
      </trkpt>
      <trkpt lat="48.06395" lon="-2.20412">
        <ele>81.628</ele>
        <time>2011-10-09T06:53:25Z</time>
      </trkpt>
      <trkpt lat="48.06408" lon="-2.20346">
        <ele>82.507</ele>
        <time>2011-10-09T06:53:34Z</time>
      </trkpt>
      <trkpt lat="48.06423" lon="-2.20289">
        <ele>84.171</ele>
        <time>2011-10-09T06:53:43Z</time>
      </trkpt>
      <trkpt lat="48.06437" lon="-2.20233">
        <ele>86.49</ele>
        <time>2011-10-09T06:53:52Z</time>
      </trkpt>
      <trkpt lat="48.06451" lon="-2.20179">
        <ele>88.855</ele>
        <time>2011-10-09T06:54:01Z</time>
      </trkpt>
      <trkpt lat="48.0647" lon="-2.20111">
        <ele>91.46</ele>
        <time>2011-10-09T06:54:12Z</time>
      </trkpt>
      <trkpt lat="48.06491" lon="-2.20032">
        <ele>93.71</ele>
        <time>2011-10-09T06:54:24Z</time>
      </trkpt>
      <trkpt lat="48.06507" lon="-2.19967">
        <ele>93.935</ele>
        <time>2011-10-09T06:54:33Z</time>
      </trkpt>
      <trkpt lat="48.0653" lon="-2.19883">
        <ele>93.692</ele>
        <time>2011-10-09T06:54:44Z</time>
      </trkpt>
      <trkpt lat="48.06543" lon="-2.19835">
        <ele>93.385</ele>
        <time>2011-10-09T06:54:50Z</time>
      </trkpt>
      <trkpt lat="48.06559" lon="-2.19774">
        <ele>92.727</ele>
        <time>2011-10-09T06:54:57Z</time>
      </trkpt>
      <trkpt lat="48.06576" lon="-2.19704">
        <ele>91.914</ele>
        <time>2011-10-09T06:55:05Z</time>
      </trkpt>
      <trkpt lat="48.06585" lon="-2.19631">
        <ele>91.417</ele>
        <time>2011-10-09T06:55:13Z</time>
      </trkpt>
      <trkpt lat="48.06587" lon="-2.1955">
        <ele>91.228</ele>
        <time>2011-10-09T06:55:22Z</time>
      </trkpt>
      <trkpt lat="48.06589" lon="-2.19479">
        <ele>91.505</ele>
        <time>2011-10-09T06:55:30Z</time>
      </trkpt>
      <trkpt lat="48.06592" lon="-2.194">
        <ele>91.979</ele>
        <time>2011-10-09T06:55:39Z</time>
      </trkpt>
      <trkpt lat="48.06593" lon="-2.19357">
        <ele>92.332</ele>
        <time>2011-10-09T06:55:44Z</time>
      </trkpt>
      <trkpt lat="48.06596" lon="-2.19286">
        <ele>92.708</ele>
        <time>2011-10-09T06:55:52Z</time>
      </trkpt>
      <trkpt lat="48.06598" lon="-2.19223">
        <ele>92.615</ele>
        <time>2011-10-09T06:55:59Z</time>
      </trkpt>
      <trkpt lat="48.06601" lon="-2.19161">
        <ele>92.758</ele>
        <time>2011-10-09T06:56:06Z</time>
      </trkpt>
      <trkpt lat="48.06605" lon="-2.191">
        <ele>93.321</ele>
        <time>2011-10-09T06:56:13Z</time>
      </trkpt>
      <trkpt lat="48.06609" lon="-2.19029">
        <ele>93.836</ele>
        <time>2011-10-09T06:56:21Z</time>
      </trkpt>
      <trkpt lat="48.06611" lon="-2.18975">
        <ele>93.874</ele>
        <time>2011-10-09T06:56:28Z</time>
      </trkpt>
      <trkpt lat="48.06611" lon="-2.18939">
        <ele>93.604</ele>
        <time>2011-10-09T06:56:34Z</time>
      </trkpt>
      <trkpt lat="48.06616" lon="-2.18913">
        <ele>93.323</ele>
        <time>2011-10-09T06:56:40Z</time>
      </trkpt>
      <trkpt lat="48.06618" lon="-2.18907">
        <ele>93.302</ele>
        <time>2011-10-09T06:56:41Z</time>
      </trkpt>
      <trkpt lat="48.06634" lon="-2.18844">
        <ele>92.806</ele>
        <time>2011-10-09T06:56:49Z</time>
      </trkpt>
      <trkpt lat="48.06654" lon="-2.18763">
        <ele>91.69</ele>
        <time>2011-10-09T06:56:58Z</time>
      </trkpt>
      <trkpt lat="48.06672" lon="-2.18679">
        <ele>90.496</ele>
        <time>2011-10-09T06:57:07Z</time>
      </trkpt>
      <trkpt lat="48.06677" lon="-2.18606">
        <ele>89.164</ele>
        <time>2011-10-09T06:57:14Z</time>
      </trkpt>
      <trkpt lat="48.06681" lon="-2.18518">
        <ele>87.114</ele>
        <time>2011-10-09T06:57:22Z</time>
      </trkpt>
      <trkpt lat="48.06685" lon="-2.18474">
        <ele>86.198</ele>
        <time>2011-10-09T06:57:26Z</time>
      </trkpt>
      <trkpt lat="48.06703" lon="-2.18429">
        <ele>85.713</ele>
        <time>2011-10-09T06:57:31Z</time>
      </trkpt>
      <trkpt lat="48.06708" lon="-2.18422">
        <ele>85.691</ele>
        <time>2011-10-09T06:57:32Z</time>
      </trkpt>
      <trkpt lat="48.06757" lon="-2.18366">
        <ele>85.026</ele>
        <time>2011-10-09T06:57:41Z</time>
      </trkpt>
      <trkpt lat="48.0678" lon="-2.18333">
        <ele>85.092</ele>
        <time>2011-10-09T06:57:46Z</time>
      </trkpt>
      <trkpt lat="48.06791" lon="-2.18288">
        <ele>85.245</ele>
        <time>2011-10-09T06:57:51Z</time>
      </trkpt>
      <trkpt lat="48.06791" lon="-2.18262">
        <ele>85.623</ele>
        <time>2011-10-09T06:57:54Z</time>
      </trkpt>
      <trkpt lat="48.06783" lon="-2.1819">
        <ele>87.375</ele>
        <time>2011-10-09T06:58:03Z</time>
      </trkpt>
      <trkpt lat="48.06779" lon="-2.18129">
        <ele>88.24</ele>
        <time>2011-10-09T06:58:10Z</time>
      </trkpt>
      <trkpt lat="48.06782" lon="-2.18049">
        <ele>88.245</ele>
        <time>2011-10-09T06:58:19Z</time>
      </trkpt>
      <trkpt lat="48.06786" lon="-2.17967">
        <ele>88.216</ele>
        <time>2011-10-09T06:58:28Z</time>
      </trkpt>
      <trkpt lat="48.06792" lon="-2.17884">
        <ele>87.78</ele>
        <time>2011-10-09T06:58:37Z</time>
      </trkpt>
      <trkpt lat="48.06802" lon="-2.17826">
        <ele>87.185</ele>
        <time>2011-10-09T06:58:43Z</time>
      </trkpt>
      <trkpt lat="48.06822" lon="-2.17764">
        <ele>86.531</ele>
        <time>2011-10-09T06:58:50Z</time>
      </trkpt>
      <trkpt lat="48.06851" lon="-2.17727">
        <ele>86.144</ele>
        <time>2011-10-09T06:58:56Z</time>
      </trkpt>
      <trkpt lat="48.06886" lon="-2.17688">
        <ele>85.929</ele>
        <time>2011-10-09T06:59:03Z</time>
      </trkpt>
      <trkpt lat="48.06919" lon="-2.17646">
        <ele>86.072</ele>
        <time>2011-10-09T06:59:10Z</time>
      </trkpt>
      <trkpt lat="48.06948" lon="-2.17603">
        <ele>85.403</ele>
        <time>2011-10-09T06:59:16Z</time>
      </trkpt>
      <trkpt lat="48.06973" lon="-2.1755">
        <ele>84.247</ele>
        <time>2011-10-09T06:59:22Z</time>
      </trkpt>
      <trkpt lat="48.06999" lon="-2.17483">
        <ele>84.393</ele>
        <time>2011-10-09T06:59:30Z</time>
      </trkpt>
      <trkpt lat="48.07028" lon="-2.17413">
        <ele>85.217</ele>
        <time>2011-10-09T06:59:39Z</time>
      </trkpt>
      <trkpt lat="48.07035" lon="-2.174">
        <ele>85.44</ele>
        <time>2011-10-09T06:59:41Z</time>
      </trkpt>
      <trkpt lat="48.07056" lon="-2.17379">
        <ele>86.3</ele>
        <time>2011-10-09T06:59:46Z</time>
      </trkpt>
      <trkpt lat="48.0706" lon="-2.17378">
        <ele>86.46</ele>
        <time>2011-10-09T06:59:47Z</time>
      </trkpt>
      <trkpt lat="48.07101" lon="-2.17372">
        <ele>88.002</ele>
        <time>2011-10-09T06:59:55Z</time>
      </trkpt>
      <trkpt lat="48.07145" lon="-2.17367">
        <ele>86.864</ele>
        <time>2011-10-09T07:00:02Z</time>
      </trkpt>
      <trkpt lat="48.07176" lon="-2.17346">
        <ele>85.374</ele>
        <time>2011-10-09T07:00:07Z</time>
      </trkpt>
      <trkpt lat="48.07196" lon="-2.17306">
        <ele>83.753</ele>
        <time>2011-10-09T07:00:11Z</time>
      </trkpt>
      <trkpt lat="48.07202" lon="-2.17279">
        <ele>83.156</ele>
        <time>2011-10-09T07:00:13Z</time>
      </trkpt>
      <trkpt lat="48.07214" lon="-2.17202">
        <ele>81.544</ele>
        <time>2011-10-09T07:00:19Z</time>
      </trkpt>
      <trkpt lat="48.07221" lon="-2.17168">
        <ele>81.137</ele>
        <time>2011-10-09T07:00:23Z</time>
      </trkpt>
      <trkpt lat="48.07238" lon="-2.17122">
        <ele>83.437</ele>
        <time>2011-10-09T07:00:30Z</time>
      </trkpt>
      <trkpt lat="48.07244" lon="-2.1711">
        <ele>84.275</ele>
        <time>2011-10-09T07:00:32Z</time>
      </trkpt>
      <trkpt lat="48.07258" lon="-2.17082">
        <ele>86.039</ele>
        <time>2011-10-09T07:00:37Z</time>
      </trkpt>
      <trkpt lat="48.07272" lon="-2.17049">
        <ele>87.658</ele>
        <time>2011-10-09T07:00:43Z</time>
      </trkpt>
      <trkpt lat="48.0729" lon="-2.17009">
        <ele>88.911</ele>
        <time>2011-10-09T07:00:50Z</time>
      </trkpt>
      <trkpt lat="48.07309" lon="-2.16966">
        <ele>90.498</ele>
        <time>2011-10-09T07:00:57Z</time>
      </trkpt>
      <trkpt lat="48.07323" lon="-2.16927">
        <ele>90.831</ele>
        <time>2011-10-09T07:01:03Z</time>
      </trkpt>
      <trkpt lat="48.07337" lon="-2.16877">
        <ele>92.514</ele>
        <time>2011-10-09T07:01:10Z</time>
      </trkpt>
      <trkpt lat="48.07353" lon="-2.16828">
        <ele>92.627</ele>
        <time>2011-10-09T07:01:16Z</time>
      </trkpt>
      <trkpt lat="48.07371" lon="-2.16768">
        <ele>92.192</ele>
        <time>2011-10-09T07:01:23Z</time>
      </trkpt>
      <trkpt lat="48.07391" lon="-2.16708">
        <ele>91.086</ele>
        <time>2011-10-09T07:01:30Z</time>
      </trkpt>
      <trkpt lat="48.074" lon="-2.16682">
        <ele>90.773</ele>
        <time>2011-10-09T07:01:33Z</time>
      </trkpt>
      <trkpt lat="48.07408" lon="-2.16655">
        <ele>90.281</ele>
        <time>2011-10-09T07:01:36Z</time>
      </trkpt>
      <trkpt lat="48.07423" lon="-2.16609">
        <ele>89.652</ele>
        <time>2011-10-09T07:01:41Z</time>
      </trkpt>
      <trkpt lat="48.07439" lon="-2.16562">
        <ele>88.848</ele>
        <time>2011-10-09T07:01:46Z</time>
      </trkpt>
      <trkpt lat="48.07451" lon="-2.16528">
        <ele>88.239</ele>
        <time>2011-10-09T07:01:50Z</time>
      </trkpt>
      <trkpt lat="48.07464" lon="-2.16473">
        <ele>87.204</ele>
        <time>2011-10-09T07:01:56Z</time>
      </trkpt>
      <trkpt lat="48.07485" lon="-2.16409">
        <ele>86.072</ele>
        <time>2011-10-09T07:02:02Z</time>
      </trkpt>
      <trkpt lat="48.07505" lon="-2.16357">
        <ele>85.163</ele>
        <time>2011-10-09T07:02:07Z</time>
      </trkpt>
      <trkpt lat="48.07531" lon="-2.16274">
        <ele>83.874</ele>
        <time>2011-10-09T07:02:15Z</time>
      </trkpt>
      <trkpt lat="48.07543" lon="-2.16235">
        <ele>82.663</ele>
        <time>2011-10-09T07:02:19Z</time>
      </trkpt>
      <trkpt lat="48.07547" lon="-2.16217">
        <ele>82.171</ele>
        <time>2011-10-09T07:02:21Z</time>
      </trkpt>
      <trkpt lat="48.07575" lon="-2.16147">
        <ele>81.147</ele>
        <time>2011-10-09T07:02:28Z</time>
      </trkpt>
      <trkpt lat="48.07594" lon="-2.16087">
        <ele>80.844</ele>
        <time>2011-10-09T07:02:34Z</time>
      </trkpt>
      <trkpt lat="48.07597" lon="-2.1607">
        <ele>80.755</ele>
        <time>2011-10-09T07:02:36Z</time>
      </trkpt>
      <trkpt lat="48.07619" lon="-2.16004">
        <ele>81.098</ele>
        <time>2011-10-09T07:02:43Z</time>
      </trkpt>
      <trkpt lat="48.07628" lon="-2.15977">
        <ele>81.358</ele>
        <time>2011-10-09T07:02:46Z</time>
      </trkpt>
      <trkpt lat="48.07647" lon="-2.15915">
        <ele>82.207</ele>
        <time>2011-10-09T07:02:53Z</time>
      </trkpt>
      <trkpt lat="48.0766" lon="-2.15874">
        <ele>82.828</ele>
        <time>2011-10-09T07:02:58Z</time>
      </trkpt>
      <trkpt lat="48.07668" lon="-2.15849">
        <ele>83.285</ele>
        <time>2011-10-09T07:03:01Z</time>
      </trkpt>
      <trkpt lat="48.07672" lon="-2.15833">
        <ele>83.465</ele>
        <time>2011-10-09T07:03:03Z</time>
      </trkpt>
      <trkpt lat="48.0769" lon="-2.15775">
        <ele>84.398</ele>
        <time>2011-10-09T07:03:10Z</time>
      </trkpt>
      <trkpt lat="48.07705" lon="-2.15726">
        <ele>84.793</ele>
        <time>2011-10-09T07:03:16Z</time>
      </trkpt>
      <trkpt lat="48.07707" lon="-2.15718">
        <ele>84.875</ele>
        <time>2011-10-09T07:03:17Z</time>
      </trkpt>
      <trkpt lat="48.07724" lon="-2.15668">
        <ele>85.094</ele>
        <time>2011-10-09T07:03:23Z</time>
      </trkpt>
      <trkpt lat="48.07741" lon="-2.15616">
        <ele>85.191</ele>
        <time>2011-10-09T07:03:29Z</time>
      </trkpt>
      <trkpt lat="48.07757" lon="-2.15571">
        <ele>85.116</ele>
        <time>2011-10-09T07:03:34Z</time>
      </trkpt>
      <trkpt lat="48.07772" lon="-2.1552">
        <ele>85</ele>
        <time>2011-10-09T07:03:40Z</time>
      </trkpt>
      <trkpt lat="48.07784" lon="-2.15476">
        <ele>84.653</ele>
        <time>2011-10-09T07:03:45Z</time>
      </trkpt>
      <trkpt lat="48.07806" lon="-2.15406">
        <ele>84.318</ele>
        <time>2011-10-09T07:03:53Z</time>
      </trkpt>
      <trkpt lat="48.07829" lon="-2.15341">
        <ele>84.475</ele>
        <time>2011-10-09T07:04:00Z</time>
      </trkpt>
      <trkpt lat="48.0784" lon="-2.15296">
        <ele>84.08</ele>
        <time>2011-10-09T07:04:05Z</time>
      </trkpt>
      <trkpt lat="48.07861" lon="-2.15226">
        <ele>83.834</ele>
        <time>2011-10-09T07:04:13Z</time>
      </trkpt>
      <trkpt lat="48.07876" lon="-2.15181">
        <ele>83.92</ele>
        <time>2011-10-09T07:04:18Z</time>
      </trkpt>
      <trkpt lat="48.07897" lon="-2.15116">
        <ele>83.531</ele>
        <time>2011-10-09T07:04:25Z</time>
      </trkpt>
      <trkpt lat="48.07914" lon="-2.15069">
        <ele>83.099</ele>
        <time>2011-10-09T07:04:30Z</time>
      </trkpt>
      <trkpt lat="48.07932" lon="-2.15015">
        <ele>82.821</ele>
        <time>2011-10-09T07:04:36Z</time>
      </trkpt>
      <trkpt lat="48.07943" lon="-2.14971">
        <ele>82.425</ele>
        <time>2011-10-09T07:04:41Z</time>
      </trkpt>
      <trkpt lat="48.0796" lon="-2.14915">
        <ele>82.134</ele>
        <time>2011-10-09T07:04:47Z</time>
      </trkpt>
      <trkpt lat="48.07979" lon="-2.1486">
        <ele>82.157</ele>
        <time>2011-10-09T07:04:53Z</time>
      </trkpt>
      <trkpt lat="48.07982" lon="-2.14851">
        <ele>82.091</ele>
        <time>2011-10-09T07:04:54Z</time>
      </trkpt>
      <trkpt lat="48.07997" lon="-2.14797">
        <ele>81.744</ele>
        <time>2011-10-09T07:05:00Z</time>
      </trkpt>
      <trkpt lat="48.08021" lon="-2.14729">
        <ele>81.576</ele>
        <time>2011-10-09T07:05:07Z</time>
      </trkpt>
      <trkpt lat="48.08042" lon="-2.14671">
        <ele>81.246</ele>
        <time>2011-10-09T07:05:13Z</time>
      </trkpt>
      <trkpt lat="48.08062" lon="-2.14608">
        <ele>81.135</ele>
        <time>2011-10-09T07:05:20Z</time>
      </trkpt>
      <trkpt lat="48.08071" lon="-2.14573">
        <ele>81.135</ele>
        <time>2011-10-09T07:05:24Z</time>
      </trkpt>
      <trkpt lat="48.0809" lon="-2.14509">
        <ele>80.796</ele>
        <time>2011-10-09T07:05:31Z</time>
      </trkpt>
      <trkpt lat="48.08107" lon="-2.14462">
        <ele>80.847</ele>
        <time>2011-10-09T07:05:36Z</time>
      </trkpt>
      <trkpt lat="48.08125" lon="-2.14408">
        <ele>80.816</ele>
        <time>2011-10-09T07:05:42Z</time>
      </trkpt>
      <trkpt lat="48.08142" lon="-2.14353">
        <ele>80.564</ele>
        <time>2011-10-09T07:05:48Z</time>
      </trkpt>
      <trkpt lat="48.08163" lon="-2.1429">
        <ele>80.584</ele>
        <time>2011-10-09T07:05:55Z</time>
      </trkpt>
      <trkpt lat="48.08184" lon="-2.14226">
        <ele>80.633</ele>
        <time>2011-10-09T07:06:02Z</time>
      </trkpt>
      <trkpt lat="48.08198" lon="-2.14181">
        <ele>80.736</ele>
        <time>2011-10-09T07:06:07Z</time>
      </trkpt>
      <trkpt lat="48.08206" lon="-2.1415">
        <ele>80.469</ele>
        <time>2011-10-09T07:06:11Z</time>
      </trkpt>
      <trkpt lat="48.08221" lon="-2.14105">
        <ele>80.329</ele>
        <time>2011-10-09T07:06:16Z</time>
      </trkpt>
      <trkpt lat="48.08234" lon="-2.14061">
        <ele>80.436</ele>
        <time>2011-10-09T07:06:21Z</time>
      </trkpt>
      <trkpt lat="48.08237" lon="-2.14052">
        <ele>80.428</ele>
        <time>2011-10-09T07:06:22Z</time>
      </trkpt>
      <trkpt lat="48.08258" lon="-2.13991">
        <ele>80.514</ele>
        <time>2011-10-09T07:06:29Z</time>
      </trkpt>
      <trkpt lat="48.08272" lon="-2.1394">
        <ele>81.061</ele>
        <time>2011-10-09T07:06:35Z</time>
      </trkpt>
      <trkpt lat="48.0828" lon="-2.13906">
        <ele>81.407</ele>
        <time>2011-10-09T07:06:39Z</time>
      </trkpt>
      <trkpt lat="48.08291" lon="-2.13872">
        <ele>81.417</ele>
        <time>2011-10-09T07:06:43Z</time>
      </trkpt>
      <trkpt lat="48.08308" lon="-2.13819">
        <ele>81.309</ele>
        <time>2011-10-09T07:06:49Z</time>
      </trkpt>
      <trkpt lat="48.08327" lon="-2.13765">
        <ele>81.073</ele>
        <time>2011-10-09T07:06:55Z</time>
      </trkpt>
      <trkpt lat="48.08348" lon="-2.13712">
        <ele>80.997</ele>
        <time>2011-10-09T07:07:01Z</time>
      </trkpt>
      <trkpt lat="48.08374" lon="-2.13658">
        <ele>81.136</ele>
        <time>2011-10-09T07:07:08Z</time>
      </trkpt>
      <trkpt lat="48.08406" lon="-2.13608">
        <ele>81.423</ele>
        <time>2011-10-09T07:07:15Z</time>
      </trkpt>
      <trkpt lat="48.08445" lon="-2.13552">
        <ele>81.284</ele>
        <time>2011-10-09T07:07:23Z</time>
      </trkpt>
      <trkpt lat="48.08485" lon="-2.13493">
        <ele>80.669</ele>
        <time>2011-10-09T07:07:31Z</time>
      </trkpt>
      <trkpt lat="48.08537" lon="-2.13415">
        <ele>79.77</ele>
        <time>2011-10-09T07:07:41Z</time>
      </trkpt>
      <trkpt lat="48.08572" lon="-2.13363">
        <ele>79.541</ele>
        <time>2011-10-09T07:07:48Z</time>
      </trkpt>
      <trkpt lat="48.08612" lon="-2.13302">
        <ele>81.088</ele>
        <time>2011-10-09T07:07:57Z</time>
      </trkpt>
      <trkpt lat="48.0865" lon="-2.13246">
        <ele>83.12</ele>
        <time>2011-10-09T07:08:06Z</time>
      </trkpt>
      <trkpt lat="48.08694" lon="-2.13178">
        <ele>84.721</ele>
        <time>2011-10-09T07:08:17Z</time>
      </trkpt>
      <trkpt lat="48.08723" lon="-2.13132">
        <ele>85.613</ele>
        <time>2011-10-09T07:08:24Z</time>
      </trkpt>
      <trkpt lat="48.08754" lon="-2.13089">
        <ele>86.242</ele>
        <time>2011-10-09T07:08:31Z</time>
      </trkpt>
      <trkpt lat="48.08792" lon="-2.13031">
        <ele>86.81</ele>
        <time>2011-10-09T07:08:40Z</time>
      </trkpt>
      <trkpt lat="48.08826" lon="-2.12981">
        <ele>86.763</ele>
        <time>2011-10-09T07:08:48Z</time>
      </trkpt>
      <trkpt lat="48.08867" lon="-2.12919">
        <ele>85.891</ele>
        <time>2011-10-09T07:08:57Z</time>
      </trkpt>
      <trkpt lat="48.08907" lon="-2.12857">
        <ele>84.338</ele>
        <time>2011-10-09T07:09:05Z</time>
      </trkpt>
      <trkpt lat="48.0893" lon="-2.12824">
        <ele>83.576</ele>
        <time>2011-10-09T07:09:09Z</time>
      </trkpt>
      <trkpt lat="48.08953" lon="-2.1279">
        <ele>82.552</ele>
        <time>2011-10-09T07:09:13Z</time>
      </trkpt>
      <trkpt lat="48.08982" lon="-2.12745">
        <ele>80.795</ele>
        <time>2011-10-09T07:09:18Z</time>
      </trkpt>
      <trkpt lat="48.09007" lon="-2.12708">
        <ele>79.02</ele>
        <time>2011-10-09T07:09:22Z</time>
      </trkpt>
      <trkpt lat="48.09035" lon="-2.12668">
        <ele>76.981</ele>
        <time>2011-10-09T07:09:26Z</time>
      </trkpt>
      <trkpt lat="48.09071" lon="-2.12616">
        <ele>74.095</ele>
        <time>2011-10-09T07:09:31Z</time>
      </trkpt>
      <trkpt lat="48.09115" lon="-2.12549">
        <ele>70.539</ele>
        <time>2011-10-09T07:09:37Z</time>
      </trkpt>
      <trkpt lat="48.09167" lon="-2.1247">
        <ele>66.525</ele>
        <time>2011-10-09T07:09:44Z</time>
      </trkpt>
      <trkpt lat="48.09224" lon="-2.12385">
        <ele>64.582</ele>
        <time>2011-10-09T07:09:52Z</time>
      </trkpt>
      <trkpt lat="48.09266" lon="-2.12319">
        <ele>62.694</ele>
        <time>2011-10-09T07:09:59Z</time>
      </trkpt>
      <trkpt lat="48.09304" lon="-2.12262">
        <ele>60.654</ele>
        <time>2011-10-09T07:10:05Z</time>
      </trkpt>
      <trkpt lat="48.09365" lon="-2.12171">
        <ele>56.509</ele>
        <time>2011-10-09T07:10:14Z</time>
      </trkpt>
      <trkpt lat="48.09418" lon="-2.12092">
        <ele>53.568</ele>
        <time>2011-10-09T07:10:22Z</time>
      </trkpt>
      <trkpt lat="48.09468" lon="-2.12015">
        <ele>50.961</ele>
        <time>2011-10-09T07:10:30Z</time>
      </trkpt>
      <trkpt lat="48.09504" lon="-2.11959">
        <ele>48.791</ele>
        <time>2011-10-09T07:10:36Z</time>
      </trkpt>
      <trkpt lat="48.09554" lon="-2.11884">
        <ele>46.519</ele>
        <time>2011-10-09T07:10:44Z</time>
      </trkpt>
      <trkpt lat="48.09609" lon="-2.11801">
        <ele>43.947</ele>
        <time>2011-10-09T07:10:53Z</time>
      </trkpt>
      <trkpt lat="48.09647" lon="-2.11743">
        <ele>42.451</ele>
        <time>2011-10-09T07:11:00Z</time>
      </trkpt>
      <trkpt lat="48.09666" lon="-2.11716">
        <ele>42.865</ele>
        <time>2011-10-09T07:11:05Z</time>
      </trkpt>
      <trkpt lat="48.09675" lon="-2.11693">
        <ele>43.498</ele>
        <time>2011-10-09T07:11:10Z</time>
      </trkpt>
      <trkpt lat="48.09671" lon="-2.11672">
        <ele>43.742</ele>
        <time>2011-10-09T07:11:14Z</time>
      </trkpt>
      <trkpt lat="48.09662" lon="-2.11645">
        <ele>43.762</ele>
        <time>2011-10-09T07:11:18Z</time>
      </trkpt>
      <trkpt lat="48.09644" lon="-2.11582">
        <ele>43.686</ele>
        <time>2011-10-09T07:11:26Z</time>
      </trkpt>
      <trkpt lat="48.09636" lon="-2.1152">
        <ele>43.169</ele>
        <time>2011-10-09T07:11:33Z</time>
      </trkpt>
      <trkpt lat="48.09632" lon="-2.11464">
        <ele>41.495</ele>
        <time>2011-10-09T07:11:38Z</time>
      </trkpt>
      <trkpt lat="48.09622" lon="-2.11397">
        <ele>39.37</ele>
        <time>2011-10-09T07:11:43Z</time>
      </trkpt>
      <trkpt lat="48.09603" lon="-2.11321">
        <ele>36.098</ele>
        <time>2011-10-09T07:11:48Z</time>
      </trkpt>
      <trkpt lat="48.09575" lon="-2.11226">
        <ele>32.041</ele>
        <time>2011-10-09T07:11:54Z</time>
      </trkpt>
      <trkpt lat="48.09558" lon="-2.11165">
        <ele>30.16</ele>
        <time>2011-10-09T07:11:58Z</time>
      </trkpt>
      <trkpt lat="48.0954" lon="-2.11103">
        <ele>29.507</ele>
        <time>2011-10-09T07:12:03Z</time>
      </trkpt>
      <trkpt lat="48.09523" lon="-2.11046">
        <ele>30.762</ele>
        <time>2011-10-09T07:12:09Z</time>
      </trkpt>
      <trkpt lat="48.09512" lon="-2.11011">
        <ele>31.896</ele>
        <time>2011-10-09T07:12:13Z</time>
      </trkpt>
      <trkpt lat="48.09503" lon="-2.10976">
        <ele>32.716</ele>
        <time>2011-10-09T07:12:17Z</time>
      </trkpt>
      <trkpt lat="48.0949" lon="-2.10905">
        <ele>34.17</ele>
        <time>2011-10-09T07:12:25Z</time>
      </trkpt>
      <trkpt lat="48.09482" lon="-2.10842">
        <ele>35.363</ele>
        <time>2011-10-09T07:12:32Z</time>
      </trkpt>
      <trkpt lat="48.09474" lon="-2.1079">
        <ele>36.089</ele>
        <time>2011-10-09T07:12:38Z</time>
      </trkpt>
      <trkpt lat="48.09464" lon="-2.10716">
        <ele>37.461</ele>
        <time>2011-10-09T07:12:47Z</time>
      </trkpt>
      <trkpt lat="48.09455" lon="-2.10649">
        <ele>38.954</ele>
        <time>2011-10-09T07:12:55Z</time>
      </trkpt>
      <trkpt lat="48.09442" lon="-2.10558">
        <ele>41.139</ele>
        <time>2011-10-09T07:13:07Z</time>
      </trkpt>
      <trkpt lat="48.0943" lon="-2.10474">
        <ele>43.982</ele>
        <time>2011-10-09T07:13:19Z</time>
      </trkpt>
      <trkpt lat="48.09423" lon="-2.10422">
        <ele>45.764</ele>
        <time>2011-10-09T07:13:27Z</time>
      </trkpt>
      <trkpt lat="48.09413" lon="-2.10359">
        <ele>48.339</ele>
        <time>2011-10-09T07:13:37Z</time>
      </trkpt>
      <trkpt lat="48.09406" lon="-2.10305">
        <ele>51.134</ele>
        <time>2011-10-09T07:13:46Z</time>
      </trkpt>
      <trkpt lat="48.09404" lon="-2.10293">
        <ele>51.461</ele>
        <time>2011-10-09T07:13:48Z</time>
      </trkpt>
      <trkpt lat="48.094" lon="-2.10274">
        <ele>52.272</ele>
        <time>2011-10-09T07:13:51Z</time>
      </trkpt>
      <trkpt lat="48.09399" lon="-2.10262">
        <ele>52.859</ele>
        <time>2011-10-09T07:13:53Z</time>
      </trkpt>
      <trkpt lat="48.09388" lon="-2.10202">
        <ele>55.712</ele>
        <time>2011-10-09T07:14:03Z</time>
      </trkpt>
      <trkpt lat="48.09373" lon="-2.10152">
        <ele>57.607</ele>
        <time>2011-10-09T07:14:12Z</time>
      </trkpt>
      <trkpt lat="48.09349" lon="-2.10103">
        <ele>58.805</ele>
        <time>2011-10-09T07:14:21Z</time>
      </trkpt>
      <trkpt lat="48.09321" lon="-2.1006">
        <ele>58.989</ele>
        <time>2011-10-09T07:14:29Z</time>
      </trkpt>
      <trkpt lat="48.09292" lon="-2.10028">
        <ele>58.22</ele>
        <time>2011-10-09T07:14:36Z</time>
      </trkpt>
      <trkpt lat="48.09283" lon="-2.10018">
        <ele>58.023</ele>
        <time>2011-10-09T07:14:38Z</time>
      </trkpt>
      <trkpt lat="48.09271" lon="-2.09987">
        <ele>56.957</ele>
        <time>2011-10-09T07:14:42Z</time>
      </trkpt>
      <trkpt lat="48.09273" lon="-2.09955">
        <ele>55.933</ele>
        <time>2011-10-09T07:14:45Z</time>
      </trkpt>
      <trkpt lat="48.09282" lon="-2.09902">
        <ele>54.225</ele>
        <time>2011-10-09T07:14:50Z</time>
      </trkpt>
      <trkpt lat="48.09283" lon="-2.09893">
        <ele>53.884</ele>
        <time>2011-10-09T07:14:51Z</time>
      </trkpt>
      <trkpt lat="48.09296" lon="-2.09868">
        <ele>52.453</ele>
        <time>2011-10-09T07:14:55Z</time>
      </trkpt>
      <trkpt lat="48.09314" lon="-2.09877">
        <ele>51.92</ele>
        <time>2011-10-09T07:14:58Z</time>
      </trkpt>
      <trkpt lat="48.09326" lon="-2.09885">
        <ele>51.813</ele>
        <time>2011-10-09T07:15:00Z</time>
      </trkpt>
      <trkpt lat="48.09364" lon="-2.0992">
        <ele>52.249</ele>
        <time>2011-10-09T07:15:07Z</time>
      </trkpt>
      <trkpt lat="48.09413" lon="-2.09935">
        <ele>52.086</ele>
        <time>2011-10-09T07:15:14Z</time>
      </trkpt>
      <trkpt lat="48.0948" lon="-2.09952">
        <ele>50.179</ele>
        <time>2011-10-09T07:15:23Z</time>
      </trkpt>
      <trkpt lat="48.09512" lon="-2.09965">
        <ele>49.52</ele>
        <time>2011-10-09T07:15:28Z</time>
      </trkpt>
      <trkpt lat="48.09538" lon="-2.0996">
        <ele>48.648</ele>
        <time>2011-10-09T07:15:32Z</time>
      </trkpt>
      <trkpt lat="48.09551" lon="-2.09933">
        <ele>47.919</ele>
        <time>2011-10-09T07:15:35Z</time>
      </trkpt>
      <trkpt lat="48.09554" lon="-2.09922">
        <ele>47.581</ele>
        <time>2011-10-09T07:15:36Z</time>
      </trkpt>
      <trkpt lat="48.09575" lon="-2.09821">
        <ele>44.867</ele>
        <time>2011-10-09T07:15:44Z</time>
      </trkpt>
      <trkpt lat="48.09587" lon="-2.09763">
        <ele>43.197</ele>
        <time>2011-10-09T07:15:48Z</time>
      </trkpt>
      <trkpt lat="48.09592" lon="-2.09733">
        <ele>42.233</ele>
        <time>2011-10-09T07:15:50Z</time>
      </trkpt>
      <trkpt lat="48.09603" lon="-2.09644">
        <ele>40.243</ele>
        <time>2011-10-09T07:15:56Z</time>
      </trkpt>
      <trkpt lat="48.09604" lon="-2.09631">
        <ele>39.855</ele>
        <time>2011-10-09T07:15:57Z</time>
      </trkpt>
      <trkpt lat="48.09618" lon="-2.09585">
        <ele>38.607</ele>
        <time>2011-10-09T07:16:01Z</time>
      </trkpt>
      <trkpt lat="48.09642" lon="-2.09569">
        <ele>37.91</ele>
        <time>2011-10-09T07:16:04Z</time>
      </trkpt>
      <trkpt lat="48.09651" lon="-2.09566">
        <ele>37.576</ele>
        <time>2011-10-09T07:16:05Z</time>
      </trkpt>
      <trkpt lat="48.09746" lon="-2.09544">
        <ele>33.437</ele>
        <time>2011-10-09T07:16:15Z</time>
      </trkpt>
      <trkpt lat="48.09821" lon="-2.09523">
        <ele>31.145</ele>
        <time>2011-10-09T07:16:23Z</time>
      </trkpt>
      <trkpt lat="48.099" lon="-2.09501">
        <ele>28.933</ele>
        <time>2011-10-09T07:16:32Z</time>
      </trkpt>
      <trkpt lat="48.09934" lon="-2.0949">
        <ele>28.039</ele>
        <time>2011-10-09T07:16:36Z</time>
      </trkpt>
      <trkpt lat="48.09964" lon="-2.09463">
        <ele>27.145</ele>
        <time>2011-10-09T07:16:40Z</time>
      </trkpt>
      <trkpt lat="48.09978" lon="-2.09429">
        <ele>26.705</ele>
        <time>2011-10-09T07:16:43Z</time>
      </trkpt>
      <trkpt lat="48.10005" lon="-2.09342">
        <ele>26.095</ele>
        <time>2011-10-09T07:16:50Z</time>
      </trkpt>
      <trkpt lat="48.10039" lon="-2.09227">
        <ele>24.422</ele>
        <time>2011-10-09T07:16:59Z</time>
      </trkpt>
      <trkpt lat="48.10045" lon="-2.09173">
        <ele>24.061</ele>
        <time>2011-10-09T07:17:03Z</time>
      </trkpt>
      <trkpt lat="48.10045" lon="-2.09113">
        <ele>24.604</ele>
        <time>2011-10-09T07:17:08Z</time>
      </trkpt>
      <trkpt lat="48.10049" lon="-2.09047">
        <ele>26.086</ele>
        <time>2011-10-09T07:17:14Z</time>
      </trkpt>
      <trkpt lat="48.1006" lon="-2.08968">
        <ele>28.012</ele>
        <time>2011-10-09T07:17:22Z</time>
      </trkpt>
      <trkpt lat="48.10067" lon="-2.08898">
        <ele>29.702</ele>
        <time>2011-10-09T07:17:30Z</time>
      </trkpt>
      <trkpt lat="48.10076" lon="-2.0881">
        <ele>31.588</ele>
        <time>2011-10-09T07:17:40Z</time>
      </trkpt>
      <trkpt lat="48.10087" lon="-2.08722">
        <ele>33.627</ele>
        <time>2011-10-09T07:17:50Z</time>
      </trkpt>
      <trkpt lat="48.10097" lon="-2.08633">
        <ele>34.486</ele>
        <time>2011-10-09T07:18:00Z</time>
      </trkpt>
      <trkpt lat="48.10108" lon="-2.08557">
        <ele>34.54</ele>
        <time>2011-10-09T07:18:08Z</time>
      </trkpt>
      <trkpt lat="48.10111" lon="-2.08548">
        <ele>34.489</ele>
        <time>2011-10-09T07:18:09Z</time>
      </trkpt>
      <trkpt lat="48.10138" lon="-2.08498">
        <ele>33.862</ele>
        <time>2011-10-09T07:18:15Z</time>
      </trkpt>
      <trkpt lat="48.10184" lon="-2.08425">
        <ele>33.351</ele>
        <time>2011-10-09T07:18:24Z</time>
      </trkpt>
      <trkpt lat="48.10226" lon="-2.08359">
        <ele>32.329</ele>
        <time>2011-10-09T07:18:32Z</time>
      </trkpt>
      <trkpt lat="48.10263" lon="-2.083">
        <ele>31.542</ele>
        <time>2011-10-09T07:18:39Z</time>
      </trkpt>
      <trkpt lat="48.10296" lon="-2.08249">
        <ele>30.355</ele>
        <time>2011-10-09T07:18:45Z</time>
      </trkpt>
      <trkpt lat="48.10342" lon="-2.08176">
        <ele>29.529</ele>
        <time>2011-10-09T07:18:53Z</time>
      </trkpt>
      <trkpt lat="48.10377" lon="-2.08121">
        <ele>28.712</ele>
        <time>2011-10-09T07:18:59Z</time>
      </trkpt>
      <trkpt lat="48.10431" lon="-2.08034">
        <ele>28.05</ele>
        <time>2011-10-09T07:19:09Z</time>
      </trkpt>
      <trkpt lat="48.10484" lon="-2.0796">
        <ele>27.696</ele>
        <time>2011-10-09T07:19:18Z</time>
      </trkpt>
      <trkpt lat="48.10529" lon="-2.07911">
        <ele>27.487</ele>
        <time>2011-10-09T07:19:25Z</time>
      </trkpt>
      <trkpt lat="48.10592" lon="-2.07843">
        <ele>27.44</ele>
        <time>2011-10-09T07:19:35Z</time>
      </trkpt>
      <trkpt lat="48.10648" lon="-2.07784">
        <ele>27.103</ele>
        <time>2011-10-09T07:19:44Z</time>
      </trkpt>
      <trkpt lat="48.10705" lon="-2.07723">
        <ele>26.056</ele>
        <time>2011-10-09T07:19:53Z</time>
      </trkpt>
      <trkpt lat="48.10775" lon="-2.07647">
        <ele>23.417</ele>
        <time>2011-10-09T07:20:03Z</time>
      </trkpt>
      <trkpt lat="48.10848" lon="-2.07569">
        <ele>20.579</ele>
        <time>2011-10-09T07:20:13Z</time>
      </trkpt>
      <trkpt lat="48.10889" lon="-2.07535">
        <ele>18.937</ele>
        <time>2011-10-09T07:20:18Z</time>
      </trkpt>
      <trkpt lat="48.10944" lon="-2.07506">
        <ele>17.556</ele>
        <time>2011-10-09T07:20:24Z</time>
      </trkpt>
      <trkpt lat="48.10998" lon="-2.07479">
        <ele>16.963</ele>
        <time>2011-10-09T07:20:31Z</time>
      </trkpt>
      <trkpt lat="48.11055" lon="-2.07451">
        <ele>17.209</ele>
        <time>2011-10-09T07:20:39Z</time>
      </trkpt>
      <trkpt lat="48.11087" lon="-2.07435">
        <ele>17.978</ele>
        <time>2011-10-09T07:20:44Z</time>
      </trkpt>
      <trkpt lat="48.11138" lon="-2.07407">
        <ele>20.141</ele>
        <time>2011-10-09T07:20:53Z</time>
      </trkpt>
      <trkpt lat="48.11143" lon="-2.07403">
        <ele>20.397</ele>
        <time>2011-10-09T07:20:54Z</time>
      </trkpt>
      <trkpt lat="48.11169" lon="-2.07366">
        <ele>21.291</ele>
        <time>2011-10-09T07:21:00Z</time>
      </trkpt>
      <trkpt lat="48.11172" lon="-2.07358">
        <ele>21.352</ele>
        <time>2011-10-09T07:21:01Z</time>
      </trkpt>
      <trkpt lat="48.11185" lon="-2.07301">
        <ele>21.526</ele>
        <time>2011-10-09T07:21:07Z</time>
      </trkpt>
      <trkpt lat="48.11185" lon="-2.07243">
        <ele>21.921</ele>
        <time>2011-10-09T07:21:13Z</time>
      </trkpt>
      <trkpt lat="48.11188" lon="-2.07153">
        <ele>22.314</ele>
        <time>2011-10-09T07:21:22Z</time>
      </trkpt>
      <trkpt lat="48.11202" lon="-2.0709">
        <ele>21.729</ele>
        <time>2011-10-09T07:21:28Z</time>
      </trkpt>
      <trkpt lat="48.11227" lon="-2.07027">
        <ele>20.261</ele>
        <time>2011-10-09T07:21:34Z</time>
      </trkpt>
      <trkpt lat="48.11258" lon="-2.06971">
        <ele>19.414</ele>
        <time>2011-10-09T07:21:40Z</time>
      </trkpt>
      <trkpt lat="48.11284" lon="-2.06926">
        <ele>20.67</ele>
        <time>2011-10-09T07:21:46Z</time>
      </trkpt>
      <trkpt lat="48.11317" lon="-2.06873">
        <ele>22.803</ele>
        <time>2011-10-09T07:21:54Z</time>
      </trkpt>
      <trkpt lat="48.11342" lon="-2.06837">
        <ele>23.815</ele>
        <time>2011-10-09T07:22:00Z</time>
      </trkpt>
      <trkpt lat="48.11352" lon="-2.06796">
        <ele>24.454</ele>
        <time>2011-10-09T07:22:05Z</time>
      </trkpt>
      <trkpt lat="48.11351" lon="-2.06786">
        <ele>24.469</ele>
        <time>2011-10-09T07:22:06Z</time>
      </trkpt>
      <trkpt lat="48.11347" lon="-2.06744">
        <ele>24.745</ele>
        <time>2011-10-09T07:22:11Z</time>
      </trkpt>
      <trkpt lat="48.11337" lon="-2.06706">
        <ele>26.037</ele>
        <time>2011-10-09T07:22:16Z</time>
      </trkpt>
      <trkpt lat="48.1133" lon="-2.06641">
        <ele>27.687</ele>
        <time>2011-10-09T07:22:24Z</time>
      </trkpt>
      <trkpt lat="48.11312" lon="-2.06549">
        <ele>29.445</ele>
        <time>2011-10-09T07:22:35Z</time>
      </trkpt>
      <trkpt lat="48.11306" lon="-2.06517">
        <ele>30.134</ele>
        <time>2011-10-09T07:22:39Z</time>
      </trkpt>
      <trkpt lat="48.11292" lon="-2.06471">
        <ele>30.866</ele>
        <time>2011-10-09T07:22:45Z</time>
      </trkpt>
      <trkpt lat="48.11269" lon="-2.0641">
        <ele>31.116</ele>
        <time>2011-10-09T07:22:53Z</time>
      </trkpt>
      <trkpt lat="48.11243" lon="-2.06335">
        <ele>30.628</ele>
        <time>2011-10-09T07:23:01Z</time>
      </trkpt>
      <trkpt lat="48.11219" lon="-2.06267">
        <ele>30.155</ele>
        <time>2011-10-09T07:23:08Z</time>
      </trkpt>
      <trkpt lat="48.11186" lon="-2.06168">
        <ele>29.838</ele>
        <time>2011-10-09T07:23:18Z</time>
      </trkpt>
      <trkpt lat="48.11161" lon="-2.06094">
        <ele>30.234</ele>
        <time>2011-10-09T07:23:26Z</time>
      </trkpt>
      <trkpt lat="48.11131" lon="-2.06008">
        <ele>30.61</ele>
        <time>2011-10-09T07:23:36Z</time>
      </trkpt>
      <trkpt lat="48.11108" lon="-2.0594">
        <ele>31.127</ele>
        <time>2011-10-09T07:23:44Z</time>
      </trkpt>
      <trkpt lat="48.11095" lon="-2.05897">
        <ele>31.435</ele>
        <time>2011-10-09T07:23:49Z</time>
      </trkpt>
      <trkpt lat="48.11091" lon="-2.05849">
        <ele>31.566</ele>
        <time>2011-10-09T07:23:54Z</time>
      </trkpt>
      <trkpt lat="48.11093" lon="-2.05839">
        <ele>31.535</ele>
        <time>2011-10-09T07:23:55Z</time>
      </trkpt>
      <trkpt lat="48.11119" lon="-2.05726">
        <ele>31.818</ele>
        <time>2011-10-09T07:24:06Z</time>
      </trkpt>
      <trkpt lat="48.11147" lon="-2.0561">
        <ele>30.809</ele>
        <time>2011-10-09T07:24:17Z</time>
      </trkpt>
      <trkpt lat="48.1117" lon="-2.05512">
        <ele>29.678</ele>
        <time>2011-10-09T07:24:26Z</time>
      </trkpt>
      <trkpt lat="48.11186" lon="-2.05446">
        <ele>28.991</ele>
        <time>2011-10-09T07:24:32Z</time>
      </trkpt>
      <trkpt lat="48.11209" lon="-2.05344">
        <ele>27.441</ele>
        <time>2011-10-09T07:24:41Z</time>
      </trkpt>
      <trkpt lat="48.1122" lon="-2.05297">
        <ele>26.695</ele>
        <time>2011-10-09T07:24:45Z</time>
      </trkpt>
      <trkpt lat="48.11251" lon="-2.05162">
        <ele>23.825</ele>
        <time>2011-10-09T07:24:56Z</time>
      </trkpt>
      <trkpt lat="48.11269" lon="-2.05059">
        <ele>22.053</ele>
        <time>2011-10-09T07:25:04Z</time>
      </trkpt>
      <trkpt lat="48.11283" lon="-2.04974">
        <ele>21.23</ele>
        <time>2011-10-09T07:25:11Z</time>
      </trkpt>
      <trkpt lat="48.11295" lon="-2.04897">
        <ele>21.31</ele>
        <time>2011-10-09T07:25:18Z</time>
      </trkpt>
      <trkpt lat="48.11309" lon="-2.04831">
        <ele>22.861</ele>
        <time>2011-10-09T07:25:25Z</time>
      </trkpt>
      <trkpt lat="48.11317" lon="-2.04808">
        <ele>23.661</ele>
        <time>2011-10-09T07:25:28Z</time>
      </trkpt>
      <trkpt lat="48.1134" lon="-2.04779">
        <ele>25.333</ele>
        <time>2011-10-09T07:25:34Z</time>
      </trkpt>
      <trkpt lat="48.11366" lon="-2.04762">
        <ele>27.453</ele>
        <time>2011-10-09T07:25:40Z</time>
      </trkpt>
      <trkpt lat="48.11387" lon="-2.04749">
        <ele>29.235</ele>
        <time>2011-10-09T07:25:45Z</time>
      </trkpt>
      <trkpt lat="48.11403" lon="-2.04737">
        <ele>30.58</ele>
        <time>2011-10-09T07:25:49Z</time>
      </trkpt>
      <trkpt lat="48.11423" lon="-2.04722">
        <ele>31.894</ele>
        <time>2011-10-09T07:25:54Z</time>
      </trkpt>
      <trkpt lat="48.11439" lon="-2.0471">
        <ele>33.082</ele>
        <time>2011-10-09T07:25:58Z</time>
      </trkpt>
      <trkpt lat="48.11452" lon="-2.047">
        <ele>33.97</ele>
        <time>2011-10-09T07:26:01Z</time>
      </trkpt>
      <trkpt lat="48.11483" lon="-2.04676">
        <ele>35.167</ele>
        <time>2011-10-09T07:26:08Z</time>
      </trkpt>
      <trkpt lat="48.11519" lon="-2.04649">
        <ele>35.08</ele>
        <time>2011-10-09T07:26:15Z</time>
      </trkpt>
      <trkpt lat="48.11557" lon="-2.04622">
        <ele>35.061</ele>
        <time>2011-10-09T07:26:22Z</time>
      </trkpt>
      <trkpt lat="48.11601" lon="-2.04589">
        <ele>34.002</ele>
        <time>2011-10-09T07:26:29Z</time>
      </trkpt>
      <trkpt lat="48.11654" lon="-2.0455">
        <ele>31.497</ele>
        <time>2011-10-09T07:26:36Z</time>
      </trkpt>
      <trkpt lat="48.11716" lon="-2.04503">
        <ele>28.815</ele>
        <time>2011-10-09T07:26:44Z</time>
      </trkpt>
      <trkpt lat="48.11752" lon="-2.04477">
        <ele>28.241</ele>
        <time>2011-10-09T07:26:49Z</time>
      </trkpt>
      <trkpt lat="48.11782" lon="-2.04454">
        <ele>28.683</ele>
        <time>2011-10-09T07:26:54Z</time>
      </trkpt>
      <trkpt lat="48.11822" lon="-2.04422">
        <ele>30.847</ele>
        <time>2011-10-09T07:27:02Z</time>
      </trkpt>
      <trkpt lat="48.11849" lon="-2.04402">
        <ele>32.29</ele>
        <time>2011-10-09T07:27:08Z</time>
      </trkpt>
      <trkpt lat="48.11878" lon="-2.0438">
        <ele>33.861</ele>
        <time>2011-10-09T07:27:14Z</time>
      </trkpt>
      <trkpt lat="48.11915" lon="-2.04351">
        <ele>34.681</ele>
        <time>2011-10-09T07:27:21Z</time>
      </trkpt>
      <trkpt lat="48.11964" lon="-2.04317">
        <ele>33.488</ele>
        <time>2011-10-09T07:27:29Z</time>
      </trkpt>
      <trkpt lat="48.12026" lon="-2.04272">
        <ele>30.763</ele>
        <time>2011-10-09T07:27:38Z</time>
      </trkpt>
      <trkpt lat="48.12048" lon="-2.04256">
        <ele>29.712</ele>
        <time>2011-10-09T07:27:41Z</time>
      </trkpt>
      <trkpt lat="48.1208" lon="-2.04233">
        <ele>28.446</ele>
        <time>2011-10-09T07:27:45Z</time>
      </trkpt>
      <trkpt lat="48.12112" lon="-2.0421">
        <ele>27.04</ele>
        <time>2011-10-09T07:27:49Z</time>
      </trkpt>
      <trkpt lat="48.12158" lon="-2.04176">
        <ele>25.291</ele>
        <time>2011-10-09T07:27:55Z</time>
      </trkpt>
      <trkpt lat="48.12219" lon="-2.04133">
        <ele>24.157</ele>
        <time>2011-10-09T07:28:03Z</time>
      </trkpt>
      <trkpt lat="48.12286" lon="-2.04085">
        <ele>22.477</ele>
        <time>2011-10-09T07:28:12Z</time>
      </trkpt>
      <trkpt lat="48.12364" lon="-2.04028">
        <ele>22.111</ele>
        <time>2011-10-09T07:28:23Z</time>
      </trkpt>
      <trkpt lat="48.12403" lon="-2.0399">
        <ele>21.617</ele>
        <time>2011-10-09T07:28:29Z</time>
      </trkpt>
      <trkpt lat="48.12425" lon="-2.03948">
        <ele>21.164</ele>
        <time>2011-10-09T07:28:34Z</time>
      </trkpt>
      <trkpt lat="48.12466" lon="-2.03849">
        <ele>19.279</ele>
        <time>2011-10-09T07:28:44Z</time>
      </trkpt>
      <trkpt lat="48.125" lon="-2.0377">
        <ele>16.37</ele>
        <time>2011-10-09T07:28:51Z</time>
      </trkpt>
      <trkpt lat="48.12544" lon="-2.03667">
        <ele>12.417</ele>
        <time>2011-10-09T07:28:59Z</time>
      </trkpt>
      <trkpt lat="48.12576" lon="-2.03573">
        <ele>9.31</ele>
        <time>2011-10-09T07:29:06Z</time>
      </trkpt>
      <trkpt lat="48.12598" lon="-2.03507">
        <ele>8.379</ele>
        <time>2011-10-09T07:29:12Z</time>
      </trkpt>
      <trkpt lat="48.12616" lon="-2.03453">
        <ele>7.939</ele>
        <time>2011-10-09T07:29:18Z</time>
      </trkpt>
      <trkpt lat="48.12634" lon="-2.03397">
        <ele>7.756</ele>
        <time>2011-10-09T07:29:25Z</time>
      </trkpt>
      <trkpt lat="48.1263" lon="-2.03363">
        <ele>7.719</ele>
        <time>2011-10-09T07:29:29Z</time>
      </trkpt>
      <trkpt lat="48.12627" lon="-2.03354">
        <ele>7.744</ele>
        <time>2011-10-09T07:29:30Z</time>
      </trkpt>
      <trkpt lat="48.12595" lon="-2.03296">
        <ele>7.768</ele>
        <time>2011-10-09T07:29:37Z</time>
      </trkpt>
      <trkpt lat="48.12569" lon="-2.03245">
        <ele>7.902</ele>
        <time>2011-10-09T07:29:43Z</time>
      </trkpt>
      <trkpt lat="48.12551" lon="-2.03208">
        <ele>8.126</ele>
        <time>2011-10-09T07:29:47Z</time>
      </trkpt>
      <trkpt lat="48.12525" lon="-2.03153">
        <ele>8.297</ele>
        <time>2011-10-09T07:29:54Z</time>
      </trkpt>
      <trkpt lat="48.12494" lon="-2.03089">
        <ele>8.795</ele>
        <time>2011-10-09T07:30:02Z</time>
      </trkpt>
      <trkpt lat="48.12457" lon="-2.03008">
        <ele>9.666</ele>
        <time>2011-10-09T07:30:12Z</time>
      </trkpt>
      <trkpt lat="48.12427" lon="-2.02945">
        <ele>10.219</ele>
        <time>2011-10-09T07:30:20Z</time>
      </trkpt>
      <trkpt lat="48.12394" lon="-2.02874">
        <ele>11.029</ele>
        <time>2011-10-09T07:30:29Z</time>
      </trkpt>
      <trkpt lat="48.1236" lon="-2.02801">
        <ele>11.505</ele>
        <time>2011-10-09T07:30:38Z</time>
      </trkpt>
      <trkpt lat="48.12329" lon="-2.02727">
        <ele>12.308</ele>
        <time>2011-10-09T07:30:47Z</time>
      </trkpt>
      <trkpt lat="48.12305" lon="-2.02659">
        <ele>13.589</ele>
        <time>2011-10-09T07:30:55Z</time>
      </trkpt>
      <trkpt lat="48.12279" lon="-2.02575">
        <ele>15.393</ele>
        <time>2011-10-09T07:31:05Z</time>
      </trkpt>
      <trkpt lat="48.12256" lon="-2.025">
        <ele>16.983</ele>
        <time>2011-10-09T07:31:14Z</time>
      </trkpt>
      <trkpt lat="48.1223" lon="-2.02421">
        <ele>18.861</ele>
        <time>2011-10-09T07:31:24Z</time>
      </trkpt>
      <trkpt lat="48.12204" lon="-2.02341">
        <ele>20.322</ele>
        <time>2011-10-09T07:31:34Z</time>
      </trkpt>
      <trkpt lat="48.12185" lon="-2.02279">
        <ele>21.619</ele>
        <time>2011-10-09T07:31:42Z</time>
      </trkpt>
      <trkpt lat="48.12159" lon="-2.02198">
        <ele>23.019</ele>
        <time>2011-10-09T07:31:52Z</time>
      </trkpt>
      <trkpt lat="48.12126" lon="-2.02097">
        <ele>23.793</ele>
        <time>2011-10-09T07:32:04Z</time>
      </trkpt>
      <trkpt lat="48.12101" lon="-2.02019">
        <ele>23.785</ele>
        <time>2011-10-09T07:32:13Z</time>
      </trkpt>
      <trkpt lat="48.1208" lon="-2.01958">
        <ele>23.755</ele>
        <time>2011-10-09T07:32:20Z</time>
      </trkpt>
      <trkpt lat="48.12053" lon="-2.01874">
        <ele>22.969</ele>
        <time>2011-10-09T07:32:29Z</time>
      </trkpt>
      <trkpt lat="48.12027" lon="-2.01794">
        <ele>21.573</ele>
        <time>2011-10-09T07:32:37Z</time>
      </trkpt>
      <trkpt lat="48.12007" lon="-2.0173">
        <ele>20.728</ele>
        <time>2011-10-09T07:32:43Z</time>
      </trkpt>
      <trkpt lat="48.11997" lon="-2.01698">
        <ele>20.106</ele>
        <time>2011-10-09T07:32:46Z</time>
      </trkpt>
      <trkpt lat="48.11967" lon="-2.01603">
        <ele>18.6</ele>
        <time>2011-10-09T07:32:55Z</time>
      </trkpt>
      <trkpt lat="48.1195" lon="-2.01553">
        <ele>18.049</ele>
        <time>2011-10-09T07:33:00Z</time>
      </trkpt>
      <trkpt lat="48.11922" lon="-2.01466">
        <ele>18.225</ele>
        <time>2011-10-09T07:33:09Z</time>
      </trkpt>
      <trkpt lat="48.11902" lon="-2.01406">
        <ele>19.231</ele>
        <time>2011-10-09T07:33:16Z</time>
      </trkpt>
      <trkpt lat="48.11881" lon="-2.01351">
        <ele>20.486</ele>
        <time>2011-10-09T07:33:23Z</time>
      </trkpt>
      <trkpt lat="48.11857" lon="-2.01311">
        <ele>21.578</ele>
        <time>2011-10-09T07:33:29Z</time>
      </trkpt>
      <trkpt lat="48.11825" lon="-2.01272">
        <ele>22.905</ele>
        <time>2011-10-09T07:33:36Z</time>
      </trkpt>
      <trkpt lat="48.11791" lon="-2.01237">
        <ele>24.595</ele>
        <time>2011-10-09T07:33:43Z</time>
      </trkpt>
      <trkpt lat="48.11763" lon="-2.01208">
        <ele>25.922</ele>
        <time>2011-10-09T07:33:49Z</time>
      </trkpt>
      <trkpt lat="48.11728" lon="-2.01171">
        <ele>27.63</ele>
        <time>2011-10-09T07:33:57Z</time>
      </trkpt>
      <trkpt lat="48.11694" lon="-2.01136">
        <ele>29.422</ele>
        <time>2011-10-09T07:34:05Z</time>
      </trkpt>
      <trkpt lat="48.11648" lon="-2.01086">
        <ele>32.947</ele>
        <time>2011-10-09T07:34:17Z</time>
      </trkpt>
      <trkpt lat="48.11622" lon="-2.01055">
        <ele>34.887</ele>
        <time>2011-10-09T07:34:25Z</time>
      </trkpt>
      <trkpt lat="48.11596" lon="-2.01015">
        <ele>37.629</ele>
        <time>2011-10-09T07:34:34Z</time>
      </trkpt>
      <trkpt lat="48.11578" lon="-2.00979">
        <ele>39.885</ele>
        <time>2011-10-09T07:34:42Z</time>
      </trkpt>
      <trkpt lat="48.11558" lon="-2.0094">
        <ele>42.192</ele>
        <time>2011-10-09T07:34:51Z</time>
      </trkpt>
      <trkpt lat="48.11539" lon="-2.00906">
        <ele>44.268</ele>
        <time>2011-10-09T07:34:59Z</time>
      </trkpt>
      <trkpt lat="48.11525" lon="-2.00878">
        <ele>46.252</ele>
        <time>2011-10-09T07:35:06Z</time>
      </trkpt>
      <trkpt lat="48.11509" lon="-2.00847">
        <ele>48.15</ele>
        <time>2011-10-09T07:35:14Z</time>
      </trkpt>
      <trkpt lat="48.11494" lon="-2.00814">
        <ele>50.357</ele>
        <time>2011-10-09T07:35:22Z</time>
      </trkpt>
      <trkpt lat="48.11485" lon="-2.00791">
        <ele>51.835</ele>
        <time>2011-10-09T07:35:27Z</time>
      </trkpt>
      <trkpt lat="48.11469" lon="-2.00763">
        <ele>53.299</ele>
        <time>2011-10-09T07:35:34Z</time>
      </trkpt>
      <trkpt lat="48.11453" lon="-2.00735">
        <ele>54.948</ele>
        <time>2011-10-09T07:35:42Z</time>
      </trkpt>
      <trkpt lat="48.11431" lon="-2.00699">
        <ele>57.608</ele>
        <time>2011-10-09T07:35:52Z</time>
      </trkpt>
      <trkpt lat="48.11406" lon="-2.00667">
        <ele>59.603</ele>
        <time>2011-10-09T07:36:02Z</time>
      </trkpt>
      <trkpt lat="48.11385" lon="-2.00648">
        <ele>61.68</ele>
        <time>2011-10-09T07:36:10Z</time>
      </trkpt>
      <trkpt lat="48.11364" lon="-2.00632">
        <ele>63.437</ele>
        <time>2011-10-09T07:36:17Z</time>
      </trkpt>
      <trkpt lat="48.11347" lon="-2.00624">
        <ele>64.57</ele>
        <time>2011-10-09T07:36:23Z</time>
      </trkpt>
      <trkpt lat="48.1132" lon="-2.00609">
        <ele>66.317</ele>
        <time>2011-10-09T07:36:31Z</time>
      </trkpt>
      <trkpt lat="48.11287" lon="-2.0059">
        <ele>68.408</ele>
        <time>2011-10-09T07:36:41Z</time>
      </trkpt>
      <trkpt lat="48.11248" lon="-2.00568">
        <ele>71.467</ele>
        <time>2011-10-09T07:36:53Z</time>
      </trkpt>
      <trkpt lat="48.11215" lon="-2.00548">
        <ele>73.569</ele>
        <time>2011-10-09T07:37:03Z</time>
      </trkpt>
      <trkpt lat="48.11181" lon="-2.00529">
        <ele>76.164</ele>
        <time>2011-10-09T07:37:13Z</time>
      </trkpt>
      <trkpt lat="48.11141" lon="-2.00507">
        <ele>77.855</ele>
        <time>2011-10-09T07:37:24Z</time>
      </trkpt>
      <trkpt lat="48.11102" lon="-2.00485">
        <ele>79.533</ele>
        <time>2011-10-09T07:37:34Z</time>
      </trkpt>
      <trkpt lat="48.11068" lon="-2.00466">
        <ele>80.23</ele>
        <time>2011-10-09T07:37:43Z</time>
      </trkpt>
      <trkpt lat="48.11051" lon="-2.00457">
        <ele>80.665</ele>
        <time>2011-10-09T07:37:47Z</time>
      </trkpt>
      <trkpt lat="48.11011" lon="-2.00434">
        <ele>81.245</ele>
        <time>2011-10-09T07:37:56Z</time>
      </trkpt>
      <trkpt lat="48.10971" lon="-2.00411">
        <ele>81.475</ele>
        <time>2011-10-09T07:38:05Z</time>
      </trkpt>
      <trkpt lat="48.10921" lon="-2.00382">
        <ele>82.146</ele>
        <time>2011-10-09T07:38:16Z</time>
      </trkpt>
      <trkpt lat="48.10871" lon="-2.00353">
        <ele>82.752</ele>
        <time>2011-10-09T07:38:27Z</time>
      </trkpt>
      <trkpt lat="48.10829" lon="-2.00328">
        <ele>83.151</ele>
        <time>2011-10-09T07:38:36Z</time>
      </trkpt>
      <trkpt lat="48.10785" lon="-2.00304">
        <ele>84.027</ele>
        <time>2011-10-09T07:38:45Z</time>
      </trkpt>
      <trkpt lat="48.10742" lon="-2.00279">
        <ele>84.543</ele>
        <time>2011-10-09T07:38:54Z</time>
      </trkpt>
      <trkpt lat="48.10681" lon="-2.00244">
        <ele>84.734</ele>
        <time>2011-10-09T07:39:06Z</time>
      </trkpt>
      <trkpt lat="48.10632" lon="-2.00216">
        <ele>84.009</ele>
        <time>2011-10-09T07:39:15Z</time>
      </trkpt>
      <trkpt lat="48.10603" lon="-2.00199">
        <ele>83.13</ele>
        <time>2011-10-09T07:39:20Z</time>
      </trkpt>
      <trkpt lat="48.1056" lon="-2.00176">
        <ele>82.351</ele>
        <time>2011-10-09T07:39:27Z</time>
      </trkpt>
      <trkpt lat="48.10496" lon="-2.00138">
        <ele>80.877</ele>
        <time>2011-10-09T07:39:37Z</time>
      </trkpt>
      <trkpt lat="48.10453" lon="-2.00113">
        <ele>80.495</ele>
        <time>2011-10-09T07:39:44Z</time>
      </trkpt>
      <trkpt lat="48.10417" lon="-2.00101">
        <ele>81.923</ele>
        <time>2011-10-09T07:39:51Z</time>
      </trkpt>
      <trkpt lat="48.10386" lon="-2.00101">
        <ele>82.996</ele>
        <time>2011-10-09T07:39:57Z</time>
      </trkpt>
      <trkpt lat="48.10358" lon="-2.0011">
        <ele>84.518</ele>
        <time>2011-10-09T07:40:03Z</time>
      </trkpt>
      <trkpt lat="48.1033" lon="-2.00124">
        <ele>85.256</ele>
        <time>2011-10-09T07:40:11Z</time>
      </trkpt>
      <trkpt lat="48.10306" lon="-2.00132">
        <ele>85.773</ele>
        <time>2011-10-09T07:40:18Z</time>
      </trkpt>
      <trkpt lat="48.103" lon="-2.00134">
        <ele>85.857</ele>
        <time>2011-10-09T07:40:20Z</time>
      </trkpt>
      <trkpt lat="48.10295" lon="-2.00128">
        <ele>85.844</ele>
        <time>2011-10-09T07:40:24Z</time>
      </trkpt>
      <trkpt lat="48.10299" lon="-2.00129">
        <ele>85.844</ele>
        <time>2011-10-09T07:40:27Z</time>
      </trkpt>
      <trkpt lat="48.10294" lon="-2.00137">
        <ele>85.876</ele>
        <time>2011-10-09T07:40:30Z</time>
      </trkpt>
      <trkpt lat="48.10289" lon="-2.00139">
        <ele>85.835</ele>
        <time>2011-10-09T07:40:31Z</time>
      </trkpt>
      <trkpt lat="48.10252" lon="-2.00151">
        <ele>85.868</ele>
        <time>2011-10-09T07:40:37Z</time>
      </trkpt>
      <trkpt lat="48.10198" lon="-2.00172">
        <ele>85.102</ele>
        <time>2011-10-09T07:40:44Z</time>
      </trkpt>
      <trkpt lat="48.10131" lon="-2.00199">
        <ele>82.342</ele>
        <time>2011-10-09T07:40:52Z</time>
      </trkpt>
      <trkpt lat="48.10041" lon="-2.00233">
        <ele>78.8</ele>
        <time>2011-10-09T07:41:02Z</time>
      </trkpt>
      <trkpt lat="48.09993" lon="-2.00237">
        <ele>76.077</ele>
        <time>2011-10-09T07:41:07Z</time>
      </trkpt>
      <trkpt lat="48.09943" lon="-2.00228">
        <ele>74.269</ele>
        <time>2011-10-09T07:41:12Z</time>
      </trkpt>
      <trkpt lat="48.0986" lon="-2.00211">
        <ele>72.07</ele>
        <time>2011-10-09T07:41:20Z</time>
      </trkpt>
      <trkpt lat="48.0984" lon="-2.00207">
        <ele>70.809</ele>
        <time>2011-10-09T07:41:22Z</time>
      </trkpt>
      <trkpt lat="48.09792" lon="-2.00199">
        <ele>68.173</ele>
        <time>2011-10-09T07:41:27Z</time>
      </trkpt>
      <trkpt lat="48.09734" lon="-2.00188">
        <ele>67.966</ele>
        <time>2011-10-09T07:41:34Z</time>
      </trkpt>
      <trkpt lat="48.09694" lon="-2.0018">
        <ele>68.132</ele>
        <time>2011-10-09T07:41:39Z</time>
      </trkpt>
      <trkpt lat="48.09641" lon="-2.00162">
        <ele>68.263</ele>
        <time>2011-10-09T07:41:46Z</time>
      </trkpt>
      <trkpt lat="48.09598" lon="-2.00134">
        <ele>68.464</ele>
        <time>2011-10-09T07:41:52Z</time>
      </trkpt>
      <trkpt lat="48.09536" lon="-2.00083">
        <ele>67.52</ele>
        <time>2011-10-09T07:42:01Z</time>
      </trkpt>
      <trkpt lat="48.09465" lon="-2.00025">
        <ele>67.244</ele>
        <time>2011-10-09T07:42:11Z</time>
      </trkpt>
      <trkpt lat="48.09401" lon="-1.99972">
        <ele>67.654</ele>
        <time>2011-10-09T07:42:21Z</time>
      </trkpt>
      <trkpt lat="48.09349" lon="-1.9993">
        <ele>68.358</ele>
        <time>2011-10-09T07:42:30Z</time>
      </trkpt>
      <trkpt lat="48.09304" lon="-1.99893">
        <ele>69.784</ele>
        <time>2011-10-09T07:42:39Z</time>
      </trkpt>
      <trkpt lat="48.09267" lon="-1.99862">
        <ele>70.619</ele>
        <time>2011-10-09T07:42:47Z</time>
      </trkpt>
      <trkpt lat="48.09226" lon="-1.99832">
        <ele>70.479</ele>
        <time>2011-10-09T07:42:56Z</time>
      </trkpt>
      <trkpt lat="48.09213" lon="-1.99824">
        <ele>70.157</ele>
        <time>2011-10-09T07:43:01Z</time>
      </trkpt>
      <trkpt lat="48.09205" lon="-1.99815">
        <ele>70.003</ele>
        <time>2011-10-09T07:43:04Z</time>
      </trkpt>
      <trkpt lat="48.09175" lon="-1.99789">
        <ele>69.535</ele>
        <time>2011-10-09T07:43:10Z</time>
      </trkpt>
      <trkpt lat="48.09116" lon="-1.9974">
        <ele>68.617</ele>
        <time>2011-10-09T07:43:20Z</time>
      </trkpt>
      <trkpt lat="48.09085" lon="-1.99712">
        <ele>67.225</ele>
        <time>2011-10-09T07:43:25Z</time>
      </trkpt>
      <trkpt lat="48.09049" lon="-1.99669">
        <ele>66.492</ele>
        <time>2011-10-09T07:43:31Z</time>
      </trkpt>
      <trkpt lat="48.09004" lon="-1.99613">
        <ele>64.741</ele>
        <time>2011-10-09T07:43:38Z</time>
      </trkpt>
      <trkpt lat="48.08955" lon="-1.99551">
        <ele>63.658</ele>
        <time>2011-10-09T07:43:45Z</time>
      </trkpt>
      <trkpt lat="48.08928" lon="-1.99517">
        <ele>62.474</ele>
        <time>2011-10-09T07:43:49Z</time>
      </trkpt>
      <trkpt lat="48.0889" lon="-1.99483">
        <ele>59.557</ele>
        <time>2011-10-09T07:43:54Z</time>
      </trkpt>
      <trkpt lat="48.08846" lon="-1.99463">
        <ele>57.393</ele>
        <time>2011-10-09T07:43:59Z</time>
      </trkpt>
      <trkpt lat="48.08782" lon="-1.99437">
        <ele>54.521</ele>
        <time>2011-10-09T07:44:06Z</time>
      </trkpt>
      <trkpt lat="48.08701" lon="-1.99404">
        <ele>52.078</ele>
        <time>2011-10-09T07:44:15Z</time>
      </trkpt>
      <trkpt lat="48.08628" lon="-1.99374">
        <ele>50.327</ele>
        <time>2011-10-09T07:44:24Z</time>
      </trkpt>
      <trkpt lat="48.08549" lon="-1.99341">
        <ele>49.465</ele>
        <time>2011-10-09T07:44:34Z</time>
      </trkpt>
      <trkpt lat="48.08505" lon="-1.9932">
        <ele>49.642</ele>
        <time>2011-10-09T07:44:40Z</time>
      </trkpt>
      <trkpt lat="48.08479" lon="-1.993">
        <ele>49.747</ele>
        <time>2011-10-09T07:44:44Z</time>
      </trkpt>
      <trkpt lat="48.08416" lon="-1.99245">
        <ele>50.135</ele>
        <time>2011-10-09T07:44:54Z</time>
      </trkpt>
      <trkpt lat="48.08373" lon="-1.99207">
        <ele>50.927</ele>
        <time>2011-10-09T07:45:01Z</time>
      </trkpt>
      <trkpt lat="48.08304" lon="-1.99147">
        <ele>51.277</ele>
        <time>2011-10-09T07:45:12Z</time>
      </trkpt>
      <trkpt lat="48.08253" lon="-1.99114">
        <ele>51.877</ele>
        <time>2011-10-09T07:45:20Z</time>
      </trkpt>
      <trkpt lat="48.08217" lon="-1.99109">
        <ele>52.039</ele>
        <time>2011-10-09T07:45:25Z</time>
      </trkpt>
      <trkpt lat="48.08175" lon="-1.99121">
        <ele>52.345</ele>
        <time>2011-10-09T07:45:31Z</time>
      </trkpt>
      <trkpt lat="48.0812" lon="-1.9914">
        <ele>52.32</ele>
        <time>2011-10-09T07:45:39Z</time>
      </trkpt>
      <trkpt lat="48.08045" lon="-1.99166">
        <ele>53.494</ele>
        <time>2011-10-09T07:45:50Z</time>
      </trkpt>
      <trkpt lat="48.07981" lon="-1.99188">
        <ele>54.122</ele>
        <time>2011-10-09T07:46:00Z</time>
      </trkpt>
      <trkpt lat="48.07936" lon="-1.99194">
        <ele>54.568</ele>
        <time>2011-10-09T07:46:07Z</time>
      </trkpt>
      <trkpt lat="48.07892" lon="-1.99185">
        <ele>55.381</ele>
        <time>2011-10-09T07:46:14Z</time>
      </trkpt>
      <trkpt lat="48.07837" lon="-1.99163">
        <ele>56.87</ele>
        <time>2011-10-09T07:46:23Z</time>
      </trkpt>
      <trkpt lat="48.07765" lon="-1.99132">
        <ele>58.442</ele>
        <time>2011-10-09T07:46:35Z</time>
      </trkpt>
      <trkpt lat="48.07713" lon="-1.99114">
        <ele>59.621</ele>
        <time>2011-10-09T07:46:44Z</time>
      </trkpt>
      <trkpt lat="48.07668" lon="-1.99109">
        <ele>60.622</ele>
        <time>2011-10-09T07:46:52Z</time>
      </trkpt>
      <trkpt lat="48.07603" lon="-1.99107">
        <ele>62.556</ele>
        <time>2011-10-09T07:47:03Z</time>
      </trkpt>
      <trkpt lat="48.07542" lon="-1.99105">
        <ele>63.545</ele>
        <time>2011-10-09T07:47:13Z</time>
      </trkpt>
      <trkpt lat="48.07488" lon="-1.99096">
        <ele>64.46</ele>
        <time>2011-10-09T07:47:22Z</time>
      </trkpt>
      <trkpt lat="48.07453" lon="-1.99075">
        <ele>64.998</ele>
        <time>2011-10-09T07:47:28Z</time>
      </trkpt>
      <trkpt lat="48.0742" lon="-1.99042">
        <ele>65.082</ele>
        <time>2011-10-09T07:47:34Z</time>
      </trkpt>
      <trkpt lat="48.07415" lon="-1.99035">
        <ele>65.086</ele>
        <time>2011-10-09T07:47:35Z</time>
      </trkpt>
      <trkpt lat="48.07386" lon="-1.98989">
        <ele>64.914</ele>
        <time>2011-10-09T07:47:41Z</time>
      </trkpt>
      <trkpt lat="48.07339" lon="-1.98919">
        <ele>64.376</ele>
        <time>2011-10-09T07:47:50Z</time>
      </trkpt>
      <trkpt lat="48.07302" lon="-1.98863">
        <ele>63.482</ele>
        <time>2011-10-09T07:47:57Z</time>
      </trkpt>
      <trkpt lat="48.07264" lon="-1.98805">
        <ele>62.602</ele>
        <time>2011-10-09T07:48:04Z</time>
      </trkpt>
      <trkpt lat="48.07237" lon="-1.98763">
        <ele>62.095</ele>
        <time>2011-10-09T07:48:09Z</time>
      </trkpt>
      <trkpt lat="48.07204" lon="-1.98713">
        <ele>61.475</ele>
        <time>2011-10-09T07:48:15Z</time>
      </trkpt>
      <trkpt lat="48.07161" lon="-1.98647">
        <ele>61.145</ele>
        <time>2011-10-09T07:48:23Z</time>
      </trkpt>
      <trkpt lat="48.07113" lon="-1.98579">
        <ele>61.107</ele>
        <time>2011-10-09T07:48:32Z</time>
      </trkpt>
      <trkpt lat="48.07074" lon="-1.98519">
        <ele>61.348</ele>
        <time>2011-10-09T07:48:40Z</time>
      </trkpt>
      <trkpt lat="48.0704" lon="-1.98467">
        <ele>61.434</ele>
        <time>2011-10-09T07:48:47Z</time>
      </trkpt>
      <trkpt lat="48.0699" lon="-1.9839">
        <ele>60.601</ele>
        <time>2011-10-09T07:48:57Z</time>
      </trkpt>
      <trkpt lat="48.06954" lon="-1.98333">
        <ele>59.157</ele>
        <time>2011-10-09T07:49:04Z</time>
      </trkpt>
      <trkpt lat="48.06916" lon="-1.98273">
        <ele>57.301</ele>
        <time>2011-10-09T07:49:11Z</time>
      </trkpt>
      <trkpt lat="48.06887" lon="-1.98232">
        <ele>55.687</ele>
        <time>2011-10-09T07:49:16Z</time>
      </trkpt>
      <trkpt lat="48.06857" lon="-1.98213">
        <ele>54.148</ele>
        <time>2011-10-09T07:49:20Z</time>
      </trkpt>
      <trkpt lat="48.0684" lon="-1.9821">
        <ele>53.726</ele>
        <time>2011-10-09T07:49:22Z</time>
      </trkpt>
      <trkpt lat="48.06782" lon="-1.98208">
        <ele>50.77</ele>
        <time>2011-10-09T07:49:28Z</time>
      </trkpt>
      <trkpt lat="48.06772" lon="-1.98208">
        <ele>50.232</ele>
        <time>2011-10-09T07:49:29Z</time>
      </trkpt>
      <trkpt lat="48.06736" lon="-1.98184">
        <ele>47.522</ele>
        <time>2011-10-09T07:49:33Z</time>
      </trkpt>
      <trkpt lat="48.06721" lon="-1.98159">
        <ele>46.029</ele>
        <time>2011-10-09T07:49:35Z</time>
      </trkpt>
      <trkpt lat="48.06697" lon="-1.98106">
        <ele>43.439</ele>
        <time>2011-10-09T07:49:39Z</time>
      </trkpt>
      <trkpt lat="48.06665" lon="-1.98067">
        <ele>41.328</ele>
        <time>2011-10-09T07:49:43Z</time>
      </trkpt>
      <trkpt lat="48.06645" lon="-1.98058">
        <ele>40.301</ele>
        <time>2011-10-09T07:49:45Z</time>
      </trkpt>
      <trkpt lat="48.06581" lon="-1.98037">
        <ele>36.836</ele>
        <time>2011-10-09T07:49:52Z</time>
      </trkpt>
      <trkpt lat="48.06548" lon="-1.98025">
        <ele>35.069</ele>
        <time>2011-10-09T07:49:56Z</time>
      </trkpt>
      <trkpt lat="48.06527" lon="-1.98005">
        <ele>33.062</ele>
        <time>2011-10-09T07:50:01Z</time>
      </trkpt>
      <trkpt lat="48.0652" lon="-1.97993">
        <ele>32.359</ele>
        <time>2011-10-09T07:50:04Z</time>
      </trkpt>
      <trkpt lat="48.06509" lon="-1.97951">
        <ele>31.328</ele>
        <time>2011-10-09T07:50:10Z</time>
      </trkpt>
      <trkpt lat="48.06501" lon="-1.97902">
        <ele>30.451</ele>
        <time>2011-10-09T07:50:16Z</time>
      </trkpt>
      <trkpt lat="48.06487" lon="-1.9784">
        <ele>28.626</ele>
        <time>2011-10-09T07:50:23Z</time>
      </trkpt>
      <trkpt lat="48.06465" lon="-1.9781">
        <ele>27.014</ele>
        <time>2011-10-09T07:50:27Z</time>
      </trkpt>
      <trkpt lat="48.0645" lon="-1.978">
        <ele>26.109</ele>
        <time>2011-10-09T07:50:29Z</time>
      </trkpt>
      <trkpt lat="48.06387" lon="-1.97772">
        <ele>22.798</ele>
        <time>2011-10-09T07:50:36Z</time>
      </trkpt>
      <trkpt lat="48.0632" lon="-1.97742">
        <ele>19.176</ele>
        <time>2011-10-09T07:50:43Z</time>
      </trkpt>
      <trkpt lat="48.06256" lon="-1.97715">
        <ele>15.483</ele>
        <time>2011-10-09T07:50:50Z</time>
      </trkpt>
      <trkpt lat="48.06229" lon="-1.97709">
        <ele>14.391</ele>
        <time>2011-10-09T07:50:53Z</time>
      </trkpt>
      <trkpt lat="48.06211" lon="-1.97708">
        <ele>13.798</ele>
        <time>2011-10-09T07:50:55Z</time>
      </trkpt>
      <trkpt lat="48.06165" lon="-1.97705">
        <ele>13.267</ele>
        <time>2011-10-09T07:51:01Z</time>
      </trkpt>
      <trkpt lat="48.06121" lon="-1.97701">
        <ele>13.027</ele>
        <time>2011-10-09T07:51:08Z</time>
      </trkpt>
      <trkpt lat="48.06103" lon="-1.97703">
        <ele>12.953</ele>
        <time>2011-10-09T07:51:12Z</time>
      </trkpt>
      <trkpt lat="48.06089" lon="-1.97691">
        <ele>12.881</ele>
        <time>2011-10-09T07:51:16Z</time>
      </trkpt>
      <trkpt lat="48.06089" lon="-1.97683">
        <ele>12.812</ele>
        <time>2011-10-09T07:51:17Z</time>
      </trkpt>
      <trkpt lat="48.06087" lon="-1.97621">
        <ele>12.072</ele>
        <time>2011-10-09T07:51:23Z</time>
      </trkpt>
      <trkpt lat="48.06081" lon="-1.97528">
        <ele>10.766</ele>
        <time>2011-10-09T07:51:31Z</time>
      </trkpt>
      <trkpt lat="48.06071" lon="-1.97494">
        <ele>10.118</ele>
        <time>2011-10-09T07:51:34Z</time>
      </trkpt>
      <trkpt lat="48.06045" lon="-1.97445">
        <ele>9.048</ele>
        <time>2011-10-09T07:51:39Z</time>
      </trkpt>
      <trkpt lat="48.05999" lon="-1.97384">
        <ele>8.17</ele>
        <time>2011-10-09T07:51:47Z</time>
      </trkpt>
      <trkpt lat="48.05968" lon="-1.97346">
        <ele>8.118</ele>
        <time>2011-10-09T07:51:53Z</time>
      </trkpt>
      <trkpt lat="48.05944" lon="-1.97314">
        <ele>8.537</ele>
        <time>2011-10-09T07:51:58Z</time>
      </trkpt>
      <trkpt lat="48.05909" lon="-1.97264">
        <ele>8.854</ele>
        <time>2011-10-09T07:52:05Z</time>
      </trkpt>
      <trkpt lat="48.05889" lon="-1.97219">
        <ele>8.465</ele>
        <time>2011-10-09T07:52:10Z</time>
      </trkpt>
      <trkpt lat="48.05879" lon="-1.97168">
        <ele>8.419</ele>
        <time>2011-10-09T07:52:15Z</time>
      </trkpt>
      <trkpt lat="48.0588" lon="-1.97115">
        <ele>8.45</ele>
        <time>2011-10-09T07:52:20Z</time>
      </trkpt>
      <trkpt lat="48.05891" lon="-1.97037">
        <ele>8.913</ele>
        <time>2011-10-09T07:52:28Z</time>
      </trkpt>
      <trkpt lat="48.05904" lon="-1.96932">
        <ele>9.927</ele>
        <time>2011-10-09T07:52:39Z</time>
      </trkpt>
      <trkpt lat="48.05907" lon="-1.96837">
        <ele>11.29</ele>
        <time>2011-10-09T07:52:49Z</time>
      </trkpt>
      <trkpt lat="48.05907" lon="-1.96741">
        <ele>12.086</ele>
        <time>2011-10-09T07:52:59Z</time>
      </trkpt>
      <trkpt lat="48.05901" lon="-1.96675">
        <ele>13.255</ele>
        <time>2011-10-09T07:53:06Z</time>
      </trkpt>
      <trkpt lat="48.05883" lon="-1.96617">
        <ele>13.576</ele>
        <time>2011-10-09T07:53:13Z</time>
      </trkpt>
      <trkpt lat="48.05855" lon="-1.96548">
        <ele>14.463</ele>
        <time>2011-10-09T07:53:22Z</time>
      </trkpt>
      <trkpt lat="48.05839" lon="-1.96495">
        <ele>16.482</ele>
        <time>2011-10-09T07:53:29Z</time>
      </trkpt>
      <trkpt lat="48.05832" lon="-1.96431">
        <ele>18.478</ele>
        <time>2011-10-09T07:53:37Z</time>
      </trkpt>
      <trkpt lat="48.05837" lon="-1.96376">
        <ele>20.389</ele>
        <time>2011-10-09T07:53:44Z</time>
      </trkpt>
      <trkpt lat="48.05848" lon="-1.96327">
        <ele>22.656</ele>
        <time>2011-10-09T07:53:51Z</time>
      </trkpt>
      <trkpt lat="48.05864" lon="-1.96268">
        <ele>24.678</ele>
        <time>2011-10-09T07:54:00Z</time>
      </trkpt>
      <trkpt lat="48.05876" lon="-1.96219">
        <ele>27.147</ele>
        <time>2011-10-09T07:54:08Z</time>
      </trkpt>
      <trkpt lat="48.05889" lon="-1.96164">
        <ele>29.85</ele>
        <time>2011-10-09T07:54:17Z</time>
      </trkpt>
      <trkpt lat="48.05895" lon="-1.96126">
        <ele>31.163</ele>
        <time>2011-10-09T07:54:23Z</time>
      </trkpt>
      <trkpt lat="48.05894" lon="-1.96061">
        <ele>33.945</ele>
        <time>2011-10-09T07:54:33Z</time>
      </trkpt>
      <trkpt lat="48.05883" lon="-1.96008">
        <ele>35.765</ele>
        <time>2011-10-09T07:54:41Z</time>
      </trkpt>
      <trkpt lat="48.05877" lon="-1.95988">
        <ele>36.339</ele>
        <time>2011-10-09T07:54:44Z</time>
      </trkpt>
      <trkpt lat="48.05848" lon="-1.95931">
        <ele>37.73</ele>
        <time>2011-10-09T07:54:54Z</time>
      </trkpt>
      <trkpt lat="48.05845" lon="-1.95926">
        <ele>37.843</ele>
        <time>2011-10-09T07:54:55Z</time>
      </trkpt>
      <trkpt lat="48.05831" lon="-1.95908">
        <ele>38.29</ele>
        <time>2011-10-09T07:54:59Z</time>
      </trkpt>
      <trkpt lat="48.05792" lon="-1.95875">
        <ele>39.466</ele>
        <time>2011-10-09T07:55:08Z</time>
      </trkpt>
      <trkpt lat="48.05753" lon="-1.95846">
        <ele>40.583</ele>
        <time>2011-10-09T07:55:17Z</time>
      </trkpt>
      <trkpt lat="48.05715" lon="-1.95818">
        <ele>42.271</ele>
        <time>2011-10-09T07:55:26Z</time>
      </trkpt>
      <trkpt lat="48.05683" lon="-1.95791">
        <ele>43.922</ele>
        <time>2011-10-09T07:55:34Z</time>
      </trkpt>
      <trkpt lat="48.05666" lon="-1.95768">
        <ele>44.377</ele>
        <time>2011-10-09T07:55:39Z</time>
      </trkpt>
      <trkpt lat="48.05647" lon="-1.95718">
        <ele>45.827</ele>
        <time>2011-10-09T07:55:47Z</time>
      </trkpt>
      <trkpt lat="48.05643" lon="-1.95672">
        <ele>46.821</ele>
        <time>2011-10-09T07:55:53Z</time>
      </trkpt>
      <trkpt lat="48.05646" lon="-1.95583">
        <ele>47.73</ele>
        <time>2011-10-09T07:56:04Z</time>
      </trkpt>
      <trkpt lat="48.05648" lon="-1.95506">
        <ele>48.747</ele>
        <time>2011-10-09T07:56:13Z</time>
      </trkpt>
      <trkpt lat="48.05643" lon="-1.9543">
        <ele>48.946</ele>
        <time>2011-10-09T07:56:21Z</time>
      </trkpt>
      <trkpt lat="48.0563" lon="-1.95385">
        <ele>49.152</ele>
        <time>2011-10-09T07:56:26Z</time>
      </trkpt>
      <trkpt lat="48.05598" lon="-1.95311">
        <ele>49.398</ele>
        <time>2011-10-09T07:56:35Z</time>
      </trkpt>
      <trkpt lat="48.05587" lon="-1.95253">
        <ele>49.426</ele>
        <time>2011-10-09T07:56:41Z</time>
      </trkpt>
      <trkpt lat="48.05577" lon="-1.95146">
        <ele>49.371</ele>
        <time>2011-10-09T07:56:51Z</time>
      </trkpt>
      <trkpt lat="48.05573" lon="-1.95045">
        <ele>48.978</ele>
        <time>2011-10-09T07:57:00Z</time>
      </trkpt>
      <trkpt lat="48.05574" lon="-1.94997">
        <ele>48.136</ele>
        <time>2011-10-09T07:57:04Z</time>
      </trkpt>
      <trkpt lat="48.05578" lon="-1.94925">
        <ele>46.732</ele>
        <time>2011-10-09T07:57:10Z</time>
      </trkpt>
      <trkpt lat="48.05581" lon="-1.94864">
        <ele>45.674</ele>
        <time>2011-10-09T07:57:15Z</time>
      </trkpt>
      <trkpt lat="48.05585" lon="-1.94793">
        <ele>45.052</ele>
        <time>2011-10-09T07:57:21Z</time>
      </trkpt>
      <trkpt lat="48.05591" lon="-1.947">
        <ele>43.82</ele>
        <time>2011-10-09T07:57:29Z</time>
      </trkpt>
      <trkpt lat="48.05603" lon="-1.94626">
        <ele>42.995</ele>
        <time>2011-10-09T07:57:35Z</time>
      </trkpt>
      <trkpt lat="48.05633" lon="-1.94516">
        <ele>42.194</ele>
        <time>2011-10-09T07:57:44Z</time>
      </trkpt>
      <trkpt lat="48.05662" lon="-1.94411">
        <ele>40.959</ele>
        <time>2011-10-09T07:57:53Z</time>
      </trkpt>
      <trkpt lat="48.05686" lon="-1.94321">
        <ele>39.777</ele>
        <time>2011-10-09T07:58:01Z</time>
      </trkpt>
      <trkpt lat="48.05713" lon="-1.94219">
        <ele>39.413</ele>
        <time>2011-10-09T07:58:10Z</time>
      </trkpt>
      <trkpt lat="48.05743" lon="-1.94106">
        <ele>38.448</ele>
        <time>2011-10-09T07:58:20Z</time>
      </trkpt>
      <trkpt lat="48.05756" lon="-1.94038">
        <ele>37.939</ele>
        <time>2011-10-09T07:58:26Z</time>
      </trkpt>
      <trkpt lat="48.05758" lon="-1.93972">
        <ele>37.797</ele>
        <time>2011-10-09T07:58:32Z</time>
      </trkpt>
      <trkpt lat="48.05752" lon="-1.93912">
        <ele>38.363</ele>
        <time>2011-10-09T07:58:38Z</time>
      </trkpt>
      <trkpt lat="48.05737" lon="-1.93821">
        <ele>40.08</ele>
        <time>2011-10-09T07:58:47Z</time>
      </trkpt>
      <trkpt lat="48.05722" lon="-1.93719">
        <ele>40.313</ele>
        <time>2011-10-09T07:58:57Z</time>
      </trkpt>
      <trkpt lat="48.05707" lon="-1.93615">
        <ele>40.607</ele>
        <time>2011-10-09T07:59:07Z</time>
      </trkpt>
      <trkpt lat="48.05696" lon="-1.93538">
        <ele>42.024</ele>
        <time>2011-10-09T07:59:15Z</time>
      </trkpt>
      <trkpt lat="48.05692" lon="-1.93467">
        <ele>42.725</ele>
        <time>2011-10-09T07:59:22Z</time>
      </trkpt>
      <trkpt lat="48.05695" lon="-1.93424">
        <ele>42.769</ele>
        <time>2011-10-09T07:59:26Z</time>
      </trkpt>
      <trkpt lat="48.05716" lon="-1.93339">
        <ele>41.392</ele>
        <time>2011-10-09T07:59:34Z</time>
      </trkpt>
      <trkpt lat="48.05741" lon="-1.9325">
        <ele>39.863</ele>
        <time>2011-10-09T07:59:42Z</time>
      </trkpt>
      <trkpt lat="48.05773" lon="-1.93142">
        <ele>37.19</ele>
        <time>2011-10-09T07:59:51Z</time>
      </trkpt>
      <trkpt lat="48.05801" lon="-1.93047">
        <ele>34.592</ele>
        <time>2011-10-09T07:59:58Z</time>
      </trkpt>
      <trkpt lat="48.05843" lon="-1.92893">
        <ele>30.541</ele>
        <time>2011-10-09T08:00:09Z</time>
      </trkpt>
      <trkpt lat="48.05865" lon="-1.92811">
        <ele>28.564</ele>
        <time>2011-10-09T08:00:15Z</time>
      </trkpt>
      <trkpt lat="48.05872" lon="-1.92784">
        <ele>27.863</ele>
        <time>2011-10-09T08:00:17Z</time>
      </trkpt>
      <trkpt lat="48.05899" lon="-1.92682">
        <ele>26.566</ele>
        <time>2011-10-09T08:00:25Z</time>
      </trkpt>
      <trkpt lat="48.05915" lon="-1.92622">
        <ele>26.208</ele>
        <time>2011-10-09T08:00:30Z</time>
      </trkpt>
      <trkpt lat="48.05938" lon="-1.92528">
        <ele>25.438</ele>
        <time>2011-10-09T08:00:38Z</time>
      </trkpt>
      <trkpt lat="48.05955" lon="-1.92415">
        <ele>24.866</ele>
        <time>2011-10-09T08:00:48Z</time>
      </trkpt>
      <trkpt lat="48.05953" lon="-1.92358">
        <ele>24.679</ele>
        <time>2011-10-09T08:00:53Z</time>
      </trkpt>
      <trkpt lat="48.05939" lon="-1.92284">
        <ele>23.37</ele>
        <time>2011-10-09T08:00:59Z</time>
      </trkpt>
      <trkpt lat="48.05921" lon="-1.92232">
        <ele>21.467</ele>
        <time>2011-10-09T08:01:03Z</time>
      </trkpt>
      <trkpt lat="48.05879" lon="-1.92156">
        <ele>18.013</ele>
        <time>2011-10-09T08:01:09Z</time>
      </trkpt>
      <trkpt lat="48.05836" lon="-1.92076">
        <ele>13.223</ele>
        <time>2011-10-09T08:01:15Z</time>
      </trkpt>
      <trkpt lat="48.05798" lon="-1.92005">
        <ele>9.206</ele>
        <time>2011-10-09T08:01:21Z</time>
      </trkpt>
      <trkpt lat="48.05784" lon="-1.91973">
        <ele>8.003</ele>
        <time>2011-10-09T08:01:24Z</time>
      </trkpt>
      <trkpt lat="48.05762" lon="-1.91945">
        <ele>7.149</ele>
        <time>2011-10-09T08:01:28Z</time>
      </trkpt>
      <trkpt lat="48.05754" lon="-1.91942">
        <ele>7.03</ele>
        <time>2011-10-09T08:01:29Z</time>
      </trkpt>
      <trkpt lat="48.05715" lon="-1.91935">
        <ele>7.596</ele>
        <time>2011-10-09T08:01:35Z</time>
      </trkpt>
      <trkpt lat="48.05684" lon="-1.91931">
        <ele>9.688</ele>
        <time>2011-10-09T08:01:41Z</time>
      </trkpt>
      <trkpt lat="48.05657" lon="-1.91937">
        <ele>11.994</ele>
        <time>2011-10-09T08:01:47Z</time>
      </trkpt>
      <trkpt lat="48.05637" lon="-1.91946">
        <ele>13.706</ele>
        <time>2011-10-09T08:01:52Z</time>
      </trkpt>
      <trkpt lat="48.05617" lon="-1.91954">
        <ele>14.881</ele>
        <time>2011-10-09T08:01:57Z</time>
      </trkpt>
      <trkpt lat="48.05604" lon="-1.91956">
        <ele>15.777</ele>
        <time>2011-10-09T08:02:00Z</time>
      </trkpt>
      <trkpt lat="48.05583" lon="-1.91957">
        <ele>17.214</ele>
        <time>2011-10-09T08:02:05Z</time>
      </trkpt>
      <trkpt lat="48.05559" lon="-1.91955">
        <ele>19.102</ele>
        <time>2011-10-09T08:02:11Z</time>
      </trkpt>
      <trkpt lat="48.05533" lon="-1.91952">
        <ele>20.679</ele>
        <time>2011-10-09T08:02:18Z</time>
      </trkpt>
      <trkpt lat="48.05505" lon="-1.91952">
        <ele>22.222</ele>
        <time>2011-10-09T08:02:25Z</time>
      </trkpt>
      <trkpt lat="48.05477" lon="-1.91952">
        <ele>24.142</ele>
        <time>2011-10-09T08:02:32Z</time>
      </trkpt>
      <trkpt lat="48.05445" lon="-1.91957">
        <ele>26.007</ele>
        <time>2011-10-09T08:02:40Z</time>
      </trkpt>
      <trkpt lat="48.05408" lon="-1.91965">
        <ele>28.179</ele>
        <time>2011-10-09T08:02:49Z</time>
      </trkpt>
      <trkpt lat="48.05381" lon="-1.9198">
        <ele>29.569</ele>
        <time>2011-10-09T08:02:56Z</time>
      </trkpt>
      <trkpt lat="48.05356" lon="-1.92012">
        <ele>30.839</ele>
        <time>2011-10-09T08:03:04Z</time>
      </trkpt>
      <trkpt lat="48.05339" lon="-1.92046">
        <ele>31.348</ele>
        <time>2011-10-09T08:03:11Z</time>
      </trkpt>
      <trkpt lat="48.05317" lon="-1.92096">
        <ele>31.775</ele>
        <time>2011-10-09T08:03:20Z</time>
      </trkpt>
      <trkpt lat="48.05301" lon="-1.92138">
        <ele>32.101</ele>
        <time>2011-10-09T08:03:27Z</time>
      </trkpt>
      <trkpt lat="48.0528" lon="-1.92191">
        <ele>32.488</ele>
        <time>2011-10-09T08:03:36Z</time>
      </trkpt>
      <trkpt lat="48.05253" lon="-1.92276">
        <ele>33.038</ele>
        <time>2011-10-09T08:03:48Z</time>
      </trkpt>
      <trkpt lat="48.05226" lon="-1.92373">
        <ele>33.229</ele>
        <time>2011-10-09T08:04:01Z</time>
      </trkpt>
      <trkpt lat="48.05223" lon="-1.92381">
        <ele>33.22</ele>
        <time>2011-10-09T08:04:02Z</time>
      </trkpt>
      <trkpt lat="48.05197" lon="-1.92421">
        <ele>33.161</ele>
        <time>2011-10-09T08:04:09Z</time>
      </trkpt>
      <trkpt lat="48.05164" lon="-1.92433">
        <ele>33.157</ele>
        <time>2011-10-09T08:04:15Z</time>
      </trkpt>
      <trkpt lat="48.05141" lon="-1.92426">
        <ele>33.151</ele>
        <time>2011-10-09T08:04:19Z</time>
      </trkpt>
      <trkpt lat="48.05114" lon="-1.9242">
        <ele>32.979</ele>
        <time>2011-10-09T08:04:24Z</time>
      </trkpt>
      <trkpt lat="48.05102" lon="-1.92436">
        <ele>32.912</ele>
        <time>2011-10-09T08:04:27Z</time>
      </trkpt>
      <trkpt lat="48.05099" lon="-1.92442">
        <ele>32.848</ele>
        <time>2011-10-09T08:04:28Z</time>
      </trkpt>
      <trkpt lat="48.05072" lon="-1.92493">
        <ele>32.661</ele>
        <time>2011-10-09T08:04:35Z</time>
      </trkpt>
      <trkpt lat="48.05036" lon="-1.92556">
        <ele>31.542</ele>
        <time>2011-10-09T08:04:43Z</time>
      </trkpt>
      <trkpt lat="48.05" lon="-1.92618">
        <ele>30.738</ele>
        <time>2011-10-09T08:04:51Z</time>
      </trkpt>
      <trkpt lat="48.04973" lon="-1.92664">
        <ele>31.171</ele>
        <time>2011-10-09T08:04:58Z</time>
      </trkpt>
      <trkpt lat="48.04946" lon="-1.92711">
        <ele>32.902</ele>
        <time>2011-10-09T08:05:06Z</time>
      </trkpt>
      <trkpt lat="48.04921" lon="-1.92753">
        <ele>35.205</ele>
        <time>2011-10-09T08:05:13Z</time>
      </trkpt>
      <trkpt lat="48.04904" lon="-1.92782">
        <ele>36.422</ele>
        <time>2011-10-09T08:05:18Z</time>
      </trkpt>
      <trkpt lat="48.04875" lon="-1.92829">
        <ele>37.907</ele>
        <time>2011-10-09T08:05:26Z</time>
      </trkpt>
      <trkpt lat="48.04847" lon="-1.92876">
        <ele>38.7</ele>
        <time>2011-10-09T08:05:34Z</time>
      </trkpt>
      <trkpt lat="48.04805" lon="-1.92947">
        <ele>37.987</ele>
        <time>2011-10-09T08:05:45Z</time>
      </trkpt>
      <trkpt lat="48.04775" lon="-1.92996">
        <ele>37.14</ele>
        <time>2011-10-09T08:05:53Z</time>
      </trkpt>
      <trkpt lat="48.04768" lon="-1.93008">
        <ele>36.816</ele>
        <time>2011-10-09T08:05:55Z</time>
      </trkpt>
      <trkpt lat="48.0475" lon="-1.93016">
        <ele>36.251</ele>
        <time>2011-10-09T08:05:59Z</time>
      </trkpt>
      <trkpt lat="48.04736" lon="-1.93004">
        <ele>36.012</ele>
        <time>2011-10-09T08:06:02Z</time>
      </trkpt>
      <trkpt lat="48.04693" lon="-1.92954">
        <ele>36.444</ele>
        <time>2011-10-09T08:06:11Z</time>
      </trkpt>
      <trkpt lat="48.04657" lon="-1.92914">
        <ele>37.633</ele>
        <time>2011-10-09T08:06:19Z</time>
      </trkpt>
      <trkpt lat="48.04622" lon="-1.92874">
        <ele>38.802</ele>
        <time>2011-10-09T08:06:27Z</time>
      </trkpt>
      <trkpt lat="48.04578" lon="-1.92826">
        <ele>39.377</ele>
        <time>2011-10-09T08:06:37Z</time>
      </trkpt>
      <trkpt lat="48.04541" lon="-1.92796">
        <ele>38.815</ele>
        <time>2011-10-09T08:06:44Z</time>
      </trkpt>
      <trkpt lat="48.045" lon="-1.92776">
        <ele>38.227</ele>
        <time>2011-10-09T08:06:50Z</time>
      </trkpt>
      <trkpt lat="48.04453" lon="-1.92769">
        <ele>38.013</ele>
        <time>2011-10-09T08:06:57Z</time>
      </trkpt>
      <trkpt lat="48.04397" lon="-1.92778">
        <ele>38.425</ele>
        <time>2011-10-09T08:07:06Z</time>
      </trkpt>
      <trkpt lat="48.04321" lon="-1.92792">
        <ele>39.25</ele>
        <time>2011-10-09T08:07:18Z</time>
      </trkpt>
      <trkpt lat="48.04262" lon="-1.92796">
        <ele>39.518</ele>
        <time>2011-10-09T08:07:27Z</time>
      </trkpt>
      <trkpt lat="48.0419" lon="-1.92789">
        <ele>39.274</ele>
        <time>2011-10-09T08:07:38Z</time>
      </trkpt>
      <trkpt lat="48.04131" lon="-1.92784">
        <ele>39.003</ele>
        <time>2011-10-09T08:07:47Z</time>
      </trkpt>
      <trkpt lat="48.0409" lon="-1.92792">
        <ele>38.926</ele>
        <time>2011-10-09T08:07:53Z</time>
      </trkpt>
      <trkpt lat="48.04052" lon="-1.92817">
        <ele>39.187</ele>
        <time>2011-10-09T08:07:59Z</time>
      </trkpt>
      <trkpt lat="48.04003" lon="-1.92861">
        <ele>38.315</ele>
        <time>2011-10-09T08:08:07Z</time>
      </trkpt>
      <trkpt lat="48.03956" lon="-1.92902">
        <ele>37.749</ele>
        <time>2011-10-09T08:08:15Z</time>
      </trkpt>
      <trkpt lat="48.03909" lon="-1.92944">
        <ele>37.29</ele>
        <time>2011-10-09T08:08:23Z</time>
      </trkpt>
      <trkpt lat="48.03854" lon="-1.92992">
        <ele>36.606</ele>
        <time>2011-10-09T08:08:32Z</time>
      </trkpt>
      <trkpt lat="48.03817" lon="-1.93025">
        <ele>35.719</ele>
        <time>2011-10-09T08:08:38Z</time>
      </trkpt>
      <trkpt lat="48.03773" lon="-1.93063">
        <ele>33.734</ele>
        <time>2011-10-09T08:08:44Z</time>
      </trkpt>
      <trkpt lat="48.03713" lon="-1.93118">
        <ele>31.97</ele>
        <time>2011-10-09T08:08:52Z</time>
      </trkpt>
      <trkpt lat="48.03668" lon="-1.93157">
        <ele>29.215</ele>
        <time>2011-10-09T08:08:58Z</time>
      </trkpt>
      <trkpt lat="48.03636" lon="-1.93182">
        <ele>28.423</ele>
        <time>2011-10-09T08:09:02Z</time>
      </trkpt>
      <trkpt lat="48.03599" lon="-1.93192">
        <ele>26.458</ele>
        <time>2011-10-09T08:09:06Z</time>
      </trkpt>
      <trkpt lat="48.03589" lon="-1.9319">
        <ele>26.458</ele>
        <time>2011-10-09T08:09:07Z</time>
      </trkpt>
      <trkpt lat="48.03561" lon="-1.93179">
        <ele>24.383</ele>
        <time>2011-10-09T08:09:10Z</time>
      </trkpt>
      <trkpt lat="48.03553" lon="-1.93174">
        <ele>23.27</ele>
        <time>2011-10-09T08:09:11Z</time>
      </trkpt>
      <trkpt lat="48.03529" lon="-1.93152">
        <ele>21.207</ele>
        <time>2011-10-09T08:09:14Z</time>
      </trkpt>
      <trkpt lat="48.03515" lon="-1.93116">
        <ele>18.525</ele>
        <time>2011-10-09T08:09:17Z</time>
      </trkpt>
      <trkpt lat="48.03491" lon="-1.93036">
        <ele>15.096</ele>
        <time>2011-10-09T08:09:23Z</time>
      </trkpt>
      <trkpt lat="48.03462" lon="-1.92989">
        <ele>13.426</ele>
        <time>2011-10-09T08:09:27Z</time>
      </trkpt>
      <trkpt lat="48.03453" lon="-1.9298">
        <ele>12.906</ele>
        <time>2011-10-09T08:09:28Z</time>
      </trkpt>
      <trkpt lat="48.03407" lon="-1.92942">
        <ele>10.264</ele>
        <time>2011-10-09T08:09:34Z</time>
      </trkpt>
      <trkpt lat="48.03354" lon="-1.9291">
        <ele>8.746</ele>
        <time>2011-10-09T08:09:41Z</time>
      </trkpt>
      <trkpt lat="48.03331" lon="-1.92898">
        <ele>8.065</ele>
        <time>2011-10-09T08:09:44Z</time>
      </trkpt>
      <trkpt lat="48.033" lon="-1.92896">
        <ele>7.111</ele>
        <time>2011-10-09T08:09:48Z</time>
      </trkpt>
      <trkpt lat="48.03278" lon="-1.92909">
        <ele>6.743</ele>
        <time>2011-10-09T08:09:51Z</time>
      </trkpt>
      <trkpt lat="48.03255" lon="-1.92937">
        <ele>6.381</ele>
        <time>2011-10-09T08:09:55Z</time>
      </trkpt>
      <trkpt lat="48.03231" lon="-1.92982">
        <ele>7.216</ele>
        <time>2011-10-09T08:10:01Z</time>
      </trkpt>
      <trkpt lat="48.03197" lon="-1.93041">
        <ele>8.701</ele>
        <time>2011-10-09T08:10:10Z</time>
      </trkpt>
      <trkpt lat="48.03176" lon="-1.93077">
        <ele>9.096</ele>
        <time>2011-10-09T08:10:17Z</time>
      </trkpt>
      <trkpt lat="48.03164" lon="-1.931">
        <ele>10.53</ele>
        <time>2011-10-09T08:10:22Z</time>
      </trkpt>
      <trkpt lat="48.0315" lon="-1.93122">
        <ele>12.816</ele>
        <time>2011-10-09T08:10:27Z</time>
      </trkpt>
      <trkpt lat="48.03139" lon="-1.9314">
        <ele>14.586</ele>
        <time>2011-10-09T08:10:31Z</time>
      </trkpt>
      <trkpt lat="48.03132" lon="-1.93148">
        <ele>15.437</ele>
        <time>2011-10-09T08:10:33Z</time>
      </trkpt>
      <trkpt lat="48.03122" lon="-1.93159">
        <ele>16.608</ele>
        <time>2011-10-09T08:10:36Z</time>
      </trkpt>
      <trkpt lat="48.03094" lon="-1.9318">
        <ele>18.533</ele>
        <time>2011-10-09T08:10:44Z</time>
      </trkpt>
      <trkpt lat="48.03067" lon="-1.93197">
        <ele>20.591</ele>
        <time>2011-10-09T08:10:52Z</time>
      </trkpt>
      <trkpt lat="48.03042" lon="-1.93211">
        <ele>23.088</ele>
        <time>2011-10-09T08:11:00Z</time>
      </trkpt>
      <trkpt lat="48.03024" lon="-1.93216">
        <ele>24.689</ele>
        <time>2011-10-09T08:11:06Z</time>
      </trkpt>
      <trkpt lat="48.03009" lon="-1.9322">
        <ele>25.992</ele>
        <time>2011-10-09T08:11:11Z</time>
      </trkpt>
      <trkpt lat="48.02996" lon="-1.93232">
        <ele>27.059</ele>
        <time>2011-10-09T08:11:17Z</time>
      </trkpt>
      <trkpt lat="48.02988" lon="-1.9326">
        <ele>27.203</ele>
        <time>2011-10-09T08:11:22Z</time>
      </trkpt>
      <trkpt lat="48.02973" lon="-1.93313">
        <ele>26.219</ele>
        <time>2011-10-09T08:11:29Z</time>
      </trkpt>
      <trkpt lat="48.0296" lon="-1.93358">
        <ele>25.998</ele>
        <time>2011-10-09T08:11:35Z</time>
      </trkpt>
      <trkpt lat="48.02943" lon="-1.93415">
        <ele>26.931</ele>
        <time>2011-10-09T08:11:43Z</time>
      </trkpt>
      <trkpt lat="48.02923" lon="-1.93489">
        <ele>26.993</ele>
        <time>2011-10-09T08:11:53Z</time>
      </trkpt>
      <trkpt lat="48.02915" lon="-1.93557">
        <ele>27.627</ele>
        <time>2011-10-09T08:12:02Z</time>
      </trkpt>
      <trkpt lat="48.02907" lon="-1.93617">
        <ele>28.487</ele>
        <time>2011-10-09T08:12:10Z</time>
      </trkpt>
      <trkpt lat="48.02895" lon="-1.93712">
        <ele>28.055</ele>
        <time>2011-10-09T08:12:22Z</time>
      </trkpt>
      <trkpt lat="48.02886" lon="-1.9379">
        <ele>27.318</ele>
        <time>2011-10-09T08:12:31Z</time>
      </trkpt>
      <trkpt lat="48.02875" lon="-1.93871">
        <ele>26.264</ele>
        <time>2011-10-09T08:12:40Z</time>
      </trkpt>
      <trkpt lat="48.02867" lon="-1.93932">
        <ele>25.267</ele>
        <time>2011-10-09T08:12:46Z</time>
      </trkpt>
      <trkpt lat="48.02858" lon="-1.93995">
        <ele>23.41</ele>
        <time>2011-10-09T08:12:52Z</time>
      </trkpt>
      <trkpt lat="48.0285" lon="-1.94053">
        <ele>21.757</ele>
        <time>2011-10-09T08:12:57Z</time>
      </trkpt>
      <trkpt lat="48.02842" lon="-1.94115">
        <ele>19.329</ele>
        <time>2011-10-09T08:13:02Z</time>
      </trkpt>
      <trkpt lat="48.0283" lon="-1.94208">
        <ele>16.083</ele>
        <time>2011-10-09T08:13:09Z</time>
      </trkpt>
      <trkpt lat="48.02829" lon="-1.94222">
        <ele>15.726</ele>
        <time>2011-10-09T08:13:10Z</time>
      </trkpt>
      <trkpt lat="48.02834" lon="-1.9429">
        <ele>13.753</ele>
        <time>2011-10-09T08:13:15Z</time>
      </trkpt>
      <trkpt lat="48.02845" lon="-1.94373">
        <ele>10.489</ele>
        <time>2011-10-09T08:13:22Z</time>
      </trkpt>
      <trkpt lat="48.02847" lon="-1.94383">
        <ele>10.311</ele>
        <time>2011-10-09T08:13:23Z</time>
      </trkpt>
      <trkpt lat="48.02864" lon="-1.94426">
        <ele>10.378</ele>
        <time>2011-10-09T08:13:28Z</time>
      </trkpt>
      <trkpt lat="48.02893" lon="-1.94467">
        <ele>11.463</ele>
        <time>2011-10-09T08:13:35Z</time>
      </trkpt>
      <trkpt lat="48.02916" lon="-1.94494">
        <ele>13.289</ele>
        <time>2011-10-09T08:13:42Z</time>
      </trkpt>
      <trkpt lat="48.0292" lon="-1.94497">
        <ele>13.664</ele>
        <time>2011-10-09T08:13:43Z</time>
      </trkpt>
      <trkpt lat="48.02938" lon="-1.94519">
        <ele>15.607</ele>
        <time>2011-10-09T08:13:49Z</time>
      </trkpt>
      <trkpt lat="48.02949" lon="-1.94537">
        <ele>16.878</ele>
        <time>2011-10-09T08:13:53Z</time>
      </trkpt>
      <trkpt lat="48.02962" lon="-1.94568">
        <ele>18.28</ele>
        <time>2011-10-09T08:13:59Z</time>
      </trkpt>
      <trkpt lat="48.02972" lon="-1.94596">
        <ele>19.489</ele>
        <time>2011-10-09T08:14:04Z</time>
      </trkpt>
      <trkpt lat="48.02983" lon="-1.9463">
        <ele>20.634</ele>
        <time>2011-10-09T08:14:10Z</time>
      </trkpt>
      <trkpt lat="48.02998" lon="-1.94669">
        <ele>21.749</ele>
        <time>2011-10-09T08:14:17Z</time>
      </trkpt>
      <trkpt lat="48.03003" lon="-1.9468">
        <ele>22.028</ele>
        <time>2011-10-09T08:14:19Z</time>
      </trkpt>
      <trkpt lat="48.03018" lon="-1.94697">
        <ele>22.584</ele>
        <time>2011-10-09T08:14:23Z</time>
      </trkpt>
      <trkpt lat="48.03045" lon="-1.94709">
        <ele>23.312</ele>
        <time>2011-10-09T08:14:29Z</time>
      </trkpt>
      <trkpt lat="48.03062" lon="-1.94712">
        <ele>23.793</ele>
        <time>2011-10-09T08:14:33Z</time>
      </trkpt>
      <trkpt lat="48.0307" lon="-1.94715">
        <ele>24.154</ele>
        <time>2011-10-09T08:14:35Z</time>
      </trkpt>
      <trkpt lat="48.0309" lon="-1.94735">
        <ele>25.684</ele>
        <time>2011-10-09T08:14:41Z</time>
      </trkpt>
      <trkpt lat="48.03091" lon="-1.9474">
        <ele>25.928</ele>
        <time>2011-10-09T08:14:42Z</time>
      </trkpt>
      <trkpt lat="48.03091" lon="-1.94772">
        <ele>27.926</ele>
        <time>2011-10-09T08:14:48Z</time>
      </trkpt>
      <trkpt lat="48.0308" lon="-1.94793">
        <ele>29.539</ele>
        <time>2011-10-09T08:14:53Z</time>
      </trkpt>
      <trkpt lat="48.03058" lon="-1.94815">
        <ele>31.847</ele>
        <time>2011-10-09T08:15:00Z</time>
      </trkpt>
      <trkpt lat="48.03036" lon="-1.94835">
        <ele>33.615</ele>
        <time>2011-10-09T08:15:07Z</time>
      </trkpt>
      <trkpt lat="48.0302" lon="-1.94861">
        <ele>35.068</ele>
        <time>2011-10-09T08:15:13Z</time>
      </trkpt>
      <trkpt lat="48.03015" lon="-1.94887">
        <ele>36.097</ele>
        <time>2011-10-09T08:15:18Z</time>
      </trkpt>
      <trkpt lat="48.03017" lon="-1.94919">
        <ele>37.879</ele>
        <time>2011-10-09T08:15:24Z</time>
      </trkpt>
      <trkpt lat="48.03022" lon="-1.94952">
        <ele>39.69</ele>
        <time>2011-10-09T08:15:31Z</time>
      </trkpt>
      <trkpt lat="48.03029" lon="-1.94992">
        <ele>41.854</ele>
        <time>2011-10-09T08:15:39Z</time>
      </trkpt>
      <trkpt lat="48.03036" lon="-1.95037">
        <ele>43.834</ele>
        <time>2011-10-09T08:15:48Z</time>
      </trkpt>
      <trkpt lat="48.03047" lon="-1.95074">
        <ele>45.728</ele>
        <time>2011-10-09T08:15:56Z</time>
      </trkpt>
      <trkpt lat="48.03062" lon="-1.95106">
        <ele>47.493</ele>
        <time>2011-10-09T08:16:04Z</time>
      </trkpt>
      <trkpt lat="48.0308" lon="-1.95139">
        <ele>49.959</ele>
        <time>2011-10-09T08:16:13Z</time>
      </trkpt>
      <trkpt lat="48.03093" lon="-1.95164">
        <ele>51.503</ele>
        <time>2011-10-09T08:16:20Z</time>
      </trkpt>
      <trkpt lat="48.03104" lon="-1.95199">
        <ele>53.31</ele>
        <time>2011-10-09T08:16:28Z</time>
      </trkpt>
      <trkpt lat="48.03107" lon="-1.95233">
        <ele>54.698</ele>
        <time>2011-10-09T08:16:35Z</time>
      </trkpt>
      <trkpt lat="48.03106" lon="-1.95272">
        <ele>56.61</ele>
        <time>2011-10-09T08:16:43Z</time>
      </trkpt>
      <trkpt lat="48.03107" lon="-1.95327">
        <ele>59.59</ele>
        <time>2011-10-09T08:16:53Z</time>
      </trkpt>
      <trkpt lat="48.03116" lon="-1.95374">
        <ele>62.037</ele>
        <time>2011-10-09T08:17:02Z</time>
      </trkpt>
      <trkpt lat="48.03127" lon="-1.95419">
        <ele>63.935</ele>
        <time>2011-10-09T08:17:11Z</time>
      </trkpt>
      <trkpt lat="48.03139" lon="-1.95473">
        <ele>65.379</ele>
        <time>2011-10-09T08:17:21Z</time>
      </trkpt>
      <trkpt lat="48.03144" lon="-1.95527">
        <ele>66.344</ele>
        <time>2011-10-09T08:17:30Z</time>
      </trkpt>
      <trkpt lat="48.03138" lon="-1.95578">
        <ele>66.93</ele>
        <time>2011-10-09T08:17:38Z</time>
      </trkpt>
      <trkpt lat="48.03126" lon="-1.95645">
        <ele>67.812</ele>
        <time>2011-10-09T08:17:48Z</time>
      </trkpt>
      <trkpt lat="48.03118" lon="-1.95692">
        <ele>68.287</ele>
        <time>2011-10-09T08:17:56Z</time>
      </trkpt>
      <trkpt lat="48.03108" lon="-1.95745">
        <ele>68.371</ele>
        <time>2011-10-09T08:18:04Z</time>
      </trkpt>
      <trkpt lat="48.03097" lon="-1.95816">
        <ele>67.506</ele>
        <time>2011-10-09T08:18:13Z</time>
      </trkpt>
      <trkpt lat="48.03096" lon="-1.95882">
        <ele>66.518</ele>
        <time>2011-10-09T08:18:21Z</time>
      </trkpt>
      <trkpt lat="48.03098" lon="-1.95932">
        <ele>65.786</ele>
        <time>2011-10-09T08:18:27Z</time>
      </trkpt>
      <trkpt lat="48.031" lon="-1.96022">
        <ele>65.473</ele>
        <time>2011-10-09T08:18:37Z</time>
      </trkpt>
      <trkpt lat="48.03103" lon="-1.96103">
        <ele>65.942</ele>
        <time>2011-10-09T08:18:47Z</time>
      </trkpt>
      <trkpt lat="48.03105" lon="-1.96182">
        <ele>68.125</ele>
        <time>2011-10-09T08:18:58Z</time>
      </trkpt>
      <trkpt lat="48.03107" lon="-1.9625">
        <ele>70.038</ele>
        <time>2011-10-09T08:19:08Z</time>
      </trkpt>
      <trkpt lat="48.03106" lon="-1.96289">
        <ele>71.408</ele>
        <time>2011-10-09T08:19:15Z</time>
      </trkpt>
      <trkpt lat="48.03103" lon="-1.96333">
        <ele>72.29</ele>
        <time>2011-10-09T08:19:23Z</time>
      </trkpt>
      <trkpt lat="48.03095" lon="-1.96369">
        <ele>72.964</ele>
        <time>2011-10-09T08:19:30Z</time>
      </trkpt>
      <trkpt lat="48.03083" lon="-1.96416">
        <ele>73.73</ele>
        <time>2011-10-09T08:19:38Z</time>
      </trkpt>
      <trkpt lat="48.03075" lon="-1.96438">
        <ele>73.525</ele>
        <time>2011-10-09T08:19:43Z</time>
      </trkpt>
      <trkpt lat="48.03076" lon="-1.96442">
        <ele>73.238</ele>
        <time>2011-10-09T08:19:47Z</time>
      </trkpt>
      <trkpt lat="48.03076" lon="-1.9644">
        <ele>72.834</ele>
        <time>2011-10-09T08:19:51Z</time>
      </trkpt>
      <trkpt lat="48.03075" lon="-1.96446">
        <ele>73.371</ele>
        <time>2011-10-09T08:22:25Z</time>
      </trkpt>
      <trkpt lat="48.03066" lon="-1.96465">
        <ele>73.33</ele>
        <time>2011-10-09T08:22:32Z</time>
      </trkpt>
      <trkpt lat="48.03053" lon="-1.965">
        <ele>73.08</ele>
        <time>2011-10-09T08:22:39Z</time>
      </trkpt>
      <trkpt lat="48.03036" lon="-1.96547">
        <ele>72.322</ele>
        <time>2011-10-09T08:22:46Z</time>
      </trkpt>
      <trkpt lat="48.03016" lon="-1.96605">
        <ele>70.615</ele>
        <time>2011-10-09T08:22:53Z</time>
      </trkpt>
      <trkpt lat="48.02988" lon="-1.96683">
        <ele>68.613</ele>
        <time>2011-10-09T08:23:01Z</time>
      </trkpt>
      <trkpt lat="48.0297" lon="-1.96728">
        <ele>68.155</ele>
        <time>2011-10-09T08:23:07Z</time>
      </trkpt>
      <trkpt lat="48.02956" lon="-1.96771">
        <ele>69.053</ele>
        <time>2011-10-09T08:23:14Z</time>
      </trkpt>
      <trkpt lat="48.02951" lon="-1.96804">
        <ele>70.161</ele>
        <time>2011-10-09T08:23:20Z</time>
      </trkpt>
      <trkpt lat="48.02951" lon="-1.96839">
        <ele>71.494</ele>
        <time>2011-10-09T08:23:26Z</time>
      </trkpt>
      <trkpt lat="48.02954" lon="-1.96868">
        <ele>73.01</ele>
        <time>2011-10-09T08:23:31Z</time>
      </trkpt>
      <trkpt lat="48.02957" lon="-1.96893">
        <ele>74.107</ele>
        <time>2011-10-09T08:23:35Z</time>
      </trkpt>
      <trkpt lat="48.02959" lon="-1.96905">
        <ele>74.464</ele>
        <time>2011-10-09T08:23:37Z</time>
      </trkpt>
      <trkpt lat="48.02963" lon="-1.96938">
        <ele>76.38</ele>
        <time>2011-10-09T08:23:43Z</time>
      </trkpt>
      <trkpt lat="48.02967" lon="-1.9696">
        <ele>77.251</ele>
        <time>2011-10-09T08:23:47Z</time>
      </trkpt>
      <trkpt lat="48.02975" lon="-1.97023">
        <ele>78.367</ele>
        <time>2011-10-09T08:23:57Z</time>
      </trkpt>
      <trkpt lat="48.02978" lon="-1.97049">
        <ele>78.745</ele>
        <time>2011-10-09T08:24:01Z</time>
      </trkpt>
      <trkpt lat="48.02984" lon="-1.97103">
        <ele>78.804</ele>
        <time>2011-10-09T08:24:09Z</time>
      </trkpt>
      <trkpt lat="48.02994" lon="-1.97155">
        <ele>79.47</ele>
        <time>2011-10-09T08:24:17Z</time>
      </trkpt>
      <trkpt lat="48.03011" lon="-1.97207">
        <ele>80.567</ele>
        <time>2011-10-09T08:24:26Z</time>
      </trkpt>
      <trkpt lat="48.03031" lon="-1.97254">
        <ele>82.533</ele>
        <time>2011-10-09T08:24:35Z</time>
      </trkpt>
      <trkpt lat="48.0305" lon="-1.97305">
        <ele>83.121</ele>
        <time>2011-10-09T08:24:44Z</time>
      </trkpt>
      <trkpt lat="48.03073" lon="-1.97347">
        <ele>84.073</ele>
        <time>2011-10-09T08:24:52Z</time>
      </trkpt>
      <trkpt lat="48.03095" lon="-1.97371">
        <ele>84.526</ele>
        <time>2011-10-09T08:24:58Z</time>
      </trkpt>
      <trkpt lat="48.03128" lon="-1.97409">
        <ele>85.282</ele>
        <time>2011-10-09T08:25:07Z</time>
      </trkpt>
      <trkpt lat="48.0314" lon="-1.97448">
        <ele>85.565</ele>
        <time>2011-10-09T08:25:13Z</time>
      </trkpt>
      <trkpt lat="48.03141" lon="-1.97456">
        <ele>85.637</ele>
        <time>2011-10-09T08:25:14Z</time>
      </trkpt>
      <trkpt lat="48.03142" lon="-1.97523">
        <ele>86.067</ele>
        <time>2011-10-09T08:25:23Z</time>
      </trkpt>
      <trkpt lat="48.03149" lon="-1.97583">
        <ele>85.779</ele>
        <time>2011-10-09T08:25:31Z</time>
      </trkpt>
      <trkpt lat="48.03165" lon="-1.97631">
        <ele>85.98</ele>
        <time>2011-10-09T08:25:38Z</time>
      </trkpt>
      <trkpt lat="48.03177" lon="-1.97682">
        <ele>85.938</ele>
        <time>2011-10-09T08:25:45Z</time>
      </trkpt>
      <trkpt lat="48.03179" lon="-1.97738">
        <ele>86.025</ele>
        <time>2011-10-09T08:25:52Z</time>
      </trkpt>
      <trkpt lat="48.03181" lon="-1.97815">
        <ele>86</ele>
        <time>2011-10-09T08:26:01Z</time>
      </trkpt>
      <trkpt lat="48.03177" lon="-1.97879">
        <ele>85.653</ele>
        <time>2011-10-09T08:26:08Z</time>
      </trkpt>
      <trkpt lat="48.03169" lon="-1.97972">
        <ele>84.981</ele>
        <time>2011-10-09T08:26:18Z</time>
      </trkpt>
      <trkpt lat="48.03158" lon="-1.98063">
        <ele>84.665</ele>
        <time>2011-10-09T08:26:28Z</time>
      </trkpt>
      <trkpt lat="48.03139" lon="-1.98173">
        <ele>83.882</ele>
        <time>2011-10-09T08:26:40Z</time>
      </trkpt>
      <trkpt lat="48.03117" lon="-1.9827">
        <ele>83.074</ele>
        <time>2011-10-09T08:26:50Z</time>
      </trkpt>
      <trkpt lat="48.03093" lon="-1.98382">
        <ele>81.721</ele>
        <time>2011-10-09T08:27:01Z</time>
      </trkpt>
      <trkpt lat="48.03067" lon="-1.985">
        <ele>78.66</ele>
        <time>2011-10-09T08:27:12Z</time>
      </trkpt>
      <trkpt lat="48.03045" lon="-1.98605">
        <ele>75.842</ele>
        <time>2011-10-09T08:27:21Z</time>
      </trkpt>
      <trkpt lat="48.0302" lon="-1.98716">
        <ele>72.207</ele>
        <time>2011-10-09T08:27:30Z</time>
      </trkpt>
      <trkpt lat="48.02997" lon="-1.98822">
        <ele>67.834</ele>
        <time>2011-10-09T08:27:38Z</time>
      </trkpt>
      <trkpt lat="48.02976" lon="-1.98918">
        <ele>65.848</ele>
        <time>2011-10-09T08:27:46Z</time>
      </trkpt>
      <trkpt lat="48.02965" lon="-1.98969">
        <ele>65.943</ele>
        <time>2011-10-09T08:27:51Z</time>
      </trkpt>
      <trkpt lat="48.02957" lon="-1.99007">
        <ele>66.531</ele>
        <time>2011-10-09T08:27:55Z</time>
      </trkpt>
      <trkpt lat="48.02943" lon="-1.99071">
        <ele>68.39</ele>
        <time>2011-10-09T08:28:02Z</time>
      </trkpt>
      <trkpt lat="48.02939" lon="-1.9909">
        <ele>68.761</ele>
        <time>2011-10-09T08:28:04Z</time>
      </trkpt>
      <trkpt lat="48.02922" lon="-1.99172">
        <ele>70.502</ele>
        <time>2011-10-09T08:28:13Z</time>
      </trkpt>
      <trkpt lat="48.02908" lon="-1.99236">
        <ele>71.439</ele>
        <time>2011-10-09T08:28:20Z</time>
      </trkpt>
      <trkpt lat="48.029" lon="-1.99273">
        <ele>71.703</ele>
        <time>2011-10-09T08:28:24Z</time>
      </trkpt>
      <trkpt lat="48.02882" lon="-1.99357">
        <ele>71.478</ele>
        <time>2011-10-09T08:28:33Z</time>
      </trkpt>
      <trkpt lat="48.02862" lon="-1.99447">
        <ele>71.087</ele>
        <time>2011-10-09T08:28:42Z</time>
      </trkpt>
      <trkpt lat="48.02848" lon="-1.99539">
        <ele>70.238</ele>
        <time>2011-10-09T08:28:51Z</time>
      </trkpt>
      <trkpt lat="48.02848" lon="-1.99613">
        <ele>71.364</ele>
        <time>2011-10-09T08:28:59Z</time>
      </trkpt>
      <trkpt lat="48.02853" lon="-1.99677">
        <ele>73.074</ele>
        <time>2011-10-09T08:29:07Z</time>
      </trkpt>
      <trkpt lat="48.02858" lon="-1.99744">
        <ele>75.55</ele>
        <time>2011-10-09T08:29:16Z</time>
      </trkpt>
      <trkpt lat="48.02863" lon="-1.99801">
        <ele>77.448</ele>
        <time>2011-10-09T08:29:24Z</time>
      </trkpt>
      <trkpt lat="48.02872" lon="-1.99874">
        <ele>79.269</ele>
        <time>2011-10-09T08:29:34Z</time>
      </trkpt>
      <trkpt lat="48.02889" lon="-1.99943">
        <ele>80.947</ele>
        <time>2011-10-09T08:29:44Z</time>
      </trkpt>
      <trkpt lat="48.02909" lon="-1.99996">
        <ele>82.256</ele>
        <time>2011-10-09T08:29:52Z</time>
      </trkpt>
      <trkpt lat="48.0294" lon="-2.0005">
        <ele>82.768</ele>
        <time>2011-10-09T08:30:01Z</time>
      </trkpt>
      <trkpt lat="48.02976" lon="-2.00096">
        <ele>83.863</ele>
        <time>2011-10-09T08:30:10Z</time>
      </trkpt>
      <trkpt lat="48.0301" lon="-2.00127">
        <ele>84.023</ele>
        <time>2011-10-09T08:30:18Z</time>
      </trkpt>
      <trkpt lat="48.03025" lon="-2.00136">
        <ele>84.14</ele>
        <time>2011-10-09T08:30:23Z</time>
      </trkpt>
      <trkpt lat="48.03028" lon="-2.00138">
        <ele>84.165</ele>
        <time>2011-10-09T08:30:24Z</time>
      </trkpt>
      <trkpt lat="48.03028" lon="-2.00165">
        <ele>84.427</ele>
        <time>2011-10-09T08:30:29Z</time>
      </trkpt>
      <trkpt lat="48.03015" lon="-2.00228">
        <ele>84.855</ele>
        <time>2011-10-09T08:30:38Z</time>
      </trkpt>
      <trkpt lat="48.03003" lon="-2.00294">
        <ele>84.756</ele>
        <time>2011-10-09T08:30:46Z</time>
      </trkpt>
      <trkpt lat="48.02985" lon="-2.00373">
        <ele>84.809</ele>
        <time>2011-10-09T08:30:55Z</time>
      </trkpt>
      <trkpt lat="48.02965" lon="-2.00475">
        <ele>84.447</ele>
        <time>2011-10-09T08:31:06Z</time>
      </trkpt>
      <trkpt lat="48.02948" lon="-2.00556">
        <ele>83.946</ele>
        <time>2011-10-09T08:31:15Z</time>
      </trkpt>
      <trkpt lat="48.02931" lon="-2.00643">
        <ele>83.717</ele>
        <time>2011-10-09T08:31:25Z</time>
      </trkpt>
      <trkpt lat="48.02909" lon="-2.00749">
        <ele>84.048</ele>
        <time>2011-10-09T08:31:37Z</time>
      </trkpt>
      <trkpt lat="48.02892" lon="-2.00835">
        <ele>85.072</ele>
        <time>2011-10-09T08:31:47Z</time>
      </trkpt>
      <trkpt lat="48.02874" lon="-2.00923">
        <ele>86.747</ele>
        <time>2011-10-09T08:31:57Z</time>
      </trkpt>
      <trkpt lat="48.0285" lon="-2.01044">
        <ele>87.664</ele>
        <time>2011-10-09T08:32:11Z</time>
      </trkpt>
      <trkpt lat="48.02834" lon="-2.01124">
        <ele>88.051</ele>
        <time>2011-10-09T08:32:20Z</time>
      </trkpt>
      <trkpt lat="48.02814" lon="-2.0121">
        <ele>88.744</ele>
        <time>2011-10-09T08:32:30Z</time>
      </trkpt>
      <trkpt lat="48.02802" lon="-2.01263">
        <ele>88.745</ele>
        <time>2011-10-09T08:32:37Z</time>
      </trkpt>
      <trkpt lat="48.02789" lon="-2.01277">
        <ele>88.745</ele>
        <time>2011-10-09T08:32:41Z</time>
      </trkpt>
      <trkpt lat="48.02783" lon="-2.01276">
        <ele>88.745</ele>
        <time>2011-10-09T08:32:42Z</time>
      </trkpt>
      <trkpt lat="48.02737" lon="-2.01262">
        <ele>87.731</ele>
        <time>2011-10-09T08:32:49Z</time>
      </trkpt>
      <trkpt lat="48.0269" lon="-2.01252">
        <ele>85.837</ele>
        <time>2011-10-09T08:32:55Z</time>
      </trkpt>
      <trkpt lat="48.0263" lon="-2.01238">
        <ele>85.468</ele>
        <time>2011-10-09T08:33:02Z</time>
      </trkpt>
      <trkpt lat="48.02584" lon="-2.01228">
        <ele>81.986</ele>
        <time>2011-10-09T08:33:07Z</time>
      </trkpt>
      <trkpt lat="48.02546" lon="-2.0122">
        <ele>79.079</ele>
        <time>2011-10-09T08:33:11Z</time>
      </trkpt>
      <trkpt lat="48.02497" lon="-2.01211">
        <ele>77.555</ele>
        <time>2011-10-09T08:33:16Z</time>
      </trkpt>
      <trkpt lat="48.02395" lon="-2.0119">
        <ele>73.68</ele>
        <time>2011-10-09T08:33:26Z</time>
      </trkpt>
      <trkpt lat="48.02354" lon="-2.01184">
        <ele>73.276</ele>
        <time>2011-10-09T08:33:30Z</time>
      </trkpt>
      <trkpt lat="48.02314" lon="-2.01194">
        <ele>71.793</ele>
        <time>2011-10-09T08:33:34Z</time>
      </trkpt>
      <trkpt lat="48.02266" lon="-2.01223">
        <ele>68.645</ele>
        <time>2011-10-09T08:33:39Z</time>
      </trkpt>
      <trkpt lat="48.02174" lon="-2.0128">
        <ele>64.01</ele>
        <time>2011-10-09T08:33:49Z</time>
      </trkpt>
      <trkpt lat="48.02097" lon="-2.01327">
        <ele>59.078</ele>
        <time>2011-10-09T08:33:57Z</time>
      </trkpt>
      <trkpt lat="48.02044" lon="-2.0136">
        <ele>56.991</ele>
        <time>2011-10-09T08:34:03Z</time>
      </trkpt>
      <trkpt lat="48.02011" lon="-2.01381">
        <ele>56.675</ele>
        <time>2011-10-09T08:34:07Z</time>
      </trkpt>
      <trkpt lat="48.01964" lon="-2.01408">
        <ele>56.257</ele>
        <time>2011-10-09T08:34:13Z</time>
      </trkpt>
      <trkpt lat="48.01924" lon="-2.01417">
        <ele>55.894</ele>
        <time>2011-10-09T08:34:18Z</time>
      </trkpt>
      <trkpt lat="48.01886" lon="-2.01411">
        <ele>56.391</ele>
        <time>2011-10-09T08:34:23Z</time>
      </trkpt>
      <trkpt lat="48.01847" lon="-2.01391">
        <ele>57.42</ele>
        <time>2011-10-09T08:34:29Z</time>
      </trkpt>
      <trkpt lat="48.01796" lon="-2.01349">
        <ele>57.663</ele>
        <time>2011-10-09T08:34:37Z</time>
      </trkpt>
      <trkpt lat="48.01749" lon="-2.01314">
        <ele>57.677</ele>
        <time>2011-10-09T08:34:44Z</time>
      </trkpt>
      <trkpt lat="48.01694" lon="-2.01302">
        <ele>56.77</ele>
        <time>2011-10-09T08:34:51Z</time>
      </trkpt>
      <trkpt lat="48.01654" lon="-2.01309">
        <ele>56.002</ele>
        <time>2011-10-09T08:34:56Z</time>
      </trkpt>
      <trkpt lat="48.01595" lon="-2.01327">
        <ele>55.9</ele>
        <time>2011-10-09T08:35:04Z</time>
      </trkpt>
      <trkpt lat="48.01543" lon="-2.01341">
        <ele>57.039</ele>
        <time>2011-10-09T08:35:12Z</time>
      </trkpt>
      <trkpt lat="48.01477" lon="-2.01358">
        <ele>59.292</ele>
        <time>2011-10-09T08:35:23Z</time>
      </trkpt>
      <trkpt lat="48.01425" lon="-2.01372">
        <ele>60.788</ele>
        <time>2011-10-09T08:35:32Z</time>
      </trkpt>
      <trkpt lat="48.01375" lon="-2.01385">
        <ele>61.413</ele>
        <time>2011-10-09T08:35:41Z</time>
      </trkpt>
      <trkpt lat="48.0134" lon="-2.01392">
        <ele>60.401</ele>
        <time>2011-10-09T08:35:46Z</time>
      </trkpt>
      <trkpt lat="48.01289" lon="-2.01405">
        <ele>57.404</ele>
        <time>2011-10-09T08:35:52Z</time>
      </trkpt>
      <trkpt lat="48.01228" lon="-2.01426">
        <ele>53.094</ele>
        <time>2011-10-09T08:35:58Z</time>
      </trkpt>
      <trkpt lat="48.01163" lon="-2.01435">
        <ele>48.659</ele>
        <time>2011-10-09T08:36:04Z</time>
      </trkpt>
      <trkpt lat="48.01113" lon="-2.0143">
        <ele>46.802</ele>
        <time>2011-10-09T08:36:09Z</time>
      </trkpt>
      <trkpt lat="48.01068" lon="-2.0142">
        <ele>46.199</ele>
        <time>2011-10-09T08:36:14Z</time>
      </trkpt>
      <trkpt lat="48.01027" lon="-2.01413">
        <ele>46.128</ele>
        <time>2011-10-09T08:36:19Z</time>
      </trkpt>
      <trkpt lat="48.00943" lon="-2.01396">
        <ele>46.391</ele>
        <time>2011-10-09T08:36:30Z</time>
      </trkpt>
      <trkpt lat="48.00871" lon="-2.01382">
        <ele>46.243</ele>
        <time>2011-10-09T08:36:40Z</time>
      </trkpt>
      <trkpt lat="48.00846" lon="-2.01378">
        <ele>46.661</ele>
        <time>2011-10-09T08:36:44Z</time>
      </trkpt>
      <trkpt lat="48.00811" lon="-2.01368">
        <ele>49.081</ele>
        <time>2011-10-09T08:36:51Z</time>
      </trkpt>
      <trkpt lat="48.00787" lon="-2.01363">
        <ele>51.337</ele>
        <time>2011-10-09T08:36:57Z</time>
      </trkpt>
      <trkpt lat="48.00762" lon="-2.01359">
        <ele>52.936</ele>
        <time>2011-10-09T08:37:03Z</time>
      </trkpt>
      <trkpt lat="48.00742" lon="-2.01357">
        <ele>54.586</ele>
        <time>2011-10-09T08:37:08Z</time>
      </trkpt>
      <trkpt lat="48.00724" lon="-2.01354">
        <ele>56.277</ele>
        <time>2011-10-09T08:37:13Z</time>
      </trkpt>
      <trkpt lat="48.00706" lon="-2.01352">
        <ele>57.796</ele>
        <time>2011-10-09T08:37:18Z</time>
      </trkpt>
      <trkpt lat="48.00683" lon="-2.01344">
        <ele>60.238</ele>
        <time>2011-10-09T08:37:25Z</time>
      </trkpt>
      <trkpt lat="48.00665" lon="-2.01342">
        <ele>61.69</ele>
        <time>2011-10-09T08:37:30Z</time>
      </trkpt>
      <trkpt lat="48.00645" lon="-2.01338">
        <ele>63.712</ele>
        <time>2011-10-09T08:37:36Z</time>
      </trkpt>
      <trkpt lat="48.00617" lon="-2.01332">
        <ele>66.412</ele>
        <time>2011-10-09T08:37:44Z</time>
      </trkpt>
      <trkpt lat="48.0059" lon="-2.01326">
        <ele>68.709</ele>
        <time>2011-10-09T08:37:52Z</time>
      </trkpt>
      <trkpt lat="48.00561" lon="-2.0132">
        <ele>71.017</ele>
        <time>2011-10-09T08:38:00Z</time>
      </trkpt>
      <trkpt lat="48.00525" lon="-2.01319">
        <ele>72.915</ele>
        <time>2011-10-09T08:38:10Z</time>
      </trkpt>
      <trkpt lat="48.00495" lon="-2.01325">
        <ele>74.025</ele>
        <time>2011-10-09T08:38:18Z</time>
      </trkpt>
      <trkpt lat="48.00488" lon="-2.01328">
        <ele>74.194</ele>
        <time>2011-10-09T08:38:20Z</time>
      </trkpt>
      <trkpt lat="48.00449" lon="-2.01357">
        <ele>74.994</ele>
        <time>2011-10-09T08:38:30Z</time>
      </trkpt>
      <trkpt lat="48.00415" lon="-2.01397">
        <ele>75.513</ele>
        <time>2011-10-09T08:38:39Z</time>
      </trkpt>
      <trkpt lat="48.00378" lon="-2.01442">
        <ele>76.368</ele>
        <time>2011-10-09T08:38:48Z</time>
      </trkpt>
      <trkpt lat="48.00325" lon="-2.0151">
        <ele>76.524</ele>
        <time>2011-10-09T08:39:01Z</time>
      </trkpt>
      <trkpt lat="48.00284" lon="-2.01561">
        <ele>76.312</ele>
        <time>2011-10-09T08:39:11Z</time>
      </trkpt>
      <trkpt lat="48.00239" lon="-2.01619">
        <ele>75.45</ele>
        <time>2011-10-09T08:39:22Z</time>
      </trkpt>
      <trkpt lat="48.0022" lon="-2.01644">
        <ele>75.171</ele>
        <time>2011-10-09T08:39:27Z</time>
      </trkpt>
      <trkpt lat="48.00216" lon="-2.01649">
        <ele>75.144</ele>
        <time>2011-10-09T08:39:28Z</time>
      </trkpt>
      <trkpt lat="48.00177" lon="-2.01697">
        <ele>75.197</ele>
        <time>2011-10-09T08:39:38Z</time>
      </trkpt>
      <trkpt lat="48.00152" lon="-2.01728">
        <ele>74.952</ele>
        <time>2011-10-09T08:39:44Z</time>
      </trkpt>
      <trkpt lat="48.0011" lon="-2.01781">
        <ele>74.924</ele>
        <time>2011-10-09T08:39:54Z</time>
      </trkpt>
      <trkpt lat="48.00068" lon="-2.01835">
        <ele>75.134</ele>
        <time>2011-10-09T08:40:04Z</time>
      </trkpt>
      <trkpt lat="48.00016" lon="-2.01901">
        <ele>75.511</ele>
        <time>2011-10-09T08:40:16Z</time>
      </trkpt>
      <trkpt lat="47.99964" lon="-2.01969">
        <ele>76.04</ele>
        <time>2011-10-09T08:40:28Z</time>
      </trkpt>
      <trkpt lat="47.99937" lon="-2.02015">
        <ele>76.144</ele>
        <time>2011-10-09T08:40:35Z</time>
      </trkpt>
      <trkpt lat="47.99906" lon="-2.0208">
        <ele>76.076</ele>
        <time>2011-10-09T08:40:44Z</time>
      </trkpt>
      <trkpt lat="47.99869" lon="-2.02163">
        <ele>76.411</ele>
        <time>2011-10-09T08:40:55Z</time>
      </trkpt>
      <trkpt lat="47.99829" lon="-2.02254">
        <ele>76.443</ele>
        <time>2011-10-09T08:41:07Z</time>
      </trkpt>
      <trkpt lat="47.99793" lon="-2.02331">
        <ele>76.847</ele>
        <time>2011-10-09T08:41:17Z</time>
      </trkpt>
      <trkpt lat="47.99756" lon="-2.02413">
        <ele>76.799</ele>
        <time>2011-10-09T08:41:27Z</time>
      </trkpt>
      <trkpt lat="47.99727" lon="-2.02481">
        <ele>76.73</ele>
        <time>2011-10-09T08:41:35Z</time>
      </trkpt>
      <trkpt lat="47.99691" lon="-2.0258">
        <ele>76.642</ele>
        <time>2011-10-09T08:41:46Z</time>
      </trkpt>
      <trkpt lat="47.99664" lon="-2.02674">
        <ele>76.425</ele>
        <time>2011-10-09T08:41:56Z</time>
      </trkpt>
      <trkpt lat="47.99638" lon="-2.02762">
        <ele>76.032</ele>
        <time>2011-10-09T08:42:05Z</time>
      </trkpt>
      <trkpt lat="47.9961" lon="-2.02814">
        <ele>75.554</ele>
        <time>2011-10-09T08:42:11Z</time>
      </trkpt>
      <trkpt lat="47.99557" lon="-2.02885">
        <ele>73.579</ele>
        <time>2011-10-09T08:42:20Z</time>
      </trkpt>
      <trkpt lat="47.99508" lon="-2.02939">
        <ele>73.024</ele>
        <time>2011-10-09T08:42:27Z</time>
      </trkpt>
      <trkpt lat="47.99466" lon="-2.02986">
        <ele>70.689</ele>
        <time>2011-10-09T08:42:33Z</time>
      </trkpt>
      <trkpt lat="47.99422" lon="-2.03037">
        <ele>65.353</ele>
        <time>2011-10-09T08:42:39Z</time>
      </trkpt>
      <trkpt lat="47.99391" lon="-2.03073">
        <ele>63.297</ele>
        <time>2011-10-09T08:42:43Z</time>
      </trkpt>
      <trkpt lat="47.99375" lon="-2.03091">
        <ele>62.227</ele>
        <time>2011-10-09T08:42:45Z</time>
      </trkpt>
      <trkpt lat="47.99319" lon="-2.03147">
        <ele>58.943</ele>
        <time>2011-10-09T08:42:52Z</time>
      </trkpt>
      <trkpt lat="47.99272" lon="-2.03179">
        <ele>58.688</ele>
        <time>2011-10-09T08:42:58Z</time>
      </trkpt>
      <trkpt lat="47.99212" lon="-2.0321">
        <ele>58.919</ele>
        <time>2011-10-09T08:43:06Z</time>
      </trkpt>
      <trkpt lat="47.99134" lon="-2.03247">
        <ele>59.027</ele>
        <time>2011-10-09T08:43:17Z</time>
      </trkpt>
      <trkpt lat="47.9908" lon="-2.03273">
        <ele>59.832</ele>
        <time>2011-10-09T08:43:25Z</time>
      </trkpt>
      <trkpt lat="47.99029" lon="-2.03296">
        <ele>58.984</ele>
        <time>2011-10-09T08:43:32Z</time>
      </trkpt>
      <trkpt lat="47.98977" lon="-2.0331">
        <ele>57.785</ele>
        <time>2011-10-09T08:43:39Z</time>
      </trkpt>
      <trkpt lat="47.98915" lon="-2.03317">
        <ele>57.199</ele>
        <time>2011-10-09T08:43:47Z</time>
      </trkpt>
      <trkpt lat="47.98842" lon="-2.03321">
        <ele>57.186</ele>
        <time>2011-10-09T08:43:57Z</time>
      </trkpt>
      <trkpt lat="47.98764" lon="-2.03324">
        <ele>57.726</ele>
        <time>2011-10-09T08:44:08Z</time>
      </trkpt>
      <trkpt lat="47.98693" lon="-2.03327">
        <ele>58.037</ele>
        <time>2011-10-09T08:44:18Z</time>
      </trkpt>
      <trkpt lat="47.98628" lon="-2.0333">
        <ele>58.251</ele>
        <time>2011-10-09T08:44:27Z</time>
      </trkpt>
      <trkpt lat="47.98553" lon="-2.03333">
        <ele>59.048</ele>
        <time>2011-10-09T08:44:38Z</time>
      </trkpt>
      <trkpt lat="47.98491" lon="-2.03336">
        <ele>59.689</ele>
        <time>2011-10-09T08:44:48Z</time>
      </trkpt>
      <trkpt lat="47.98439" lon="-2.03338">
        <ele>63.102</ele>
        <time>2011-10-09T08:44:57Z</time>
      </trkpt>
      <trkpt lat="47.98386" lon="-2.03341">
        <ele>64.998</ele>
        <time>2011-10-09T08:45:07Z</time>
      </trkpt>
      <trkpt lat="47.98348" lon="-2.03342">
        <ele>66.554</ele>
        <time>2011-10-09T08:45:15Z</time>
      </trkpt>
      <trkpt lat="47.98321" lon="-2.03343">
        <ele>67.777</ele>
        <time>2011-10-09T08:45:22Z</time>
      </trkpt>
      <trkpt lat="47.98302" lon="-2.03342">
        <ele>68.338</ele>
        <time>2011-10-09T08:45:29Z</time>
      </trkpt>
      <trkpt lat="47.98296" lon="-2.03345">
        <ele>68.431</ele>
        <time>2011-10-09T08:45:32Z</time>
      </trkpt>
      <trkpt lat="47.98292" lon="-2.03367">
        <ele>68.813</ele>
        <time>2011-10-09T08:45:37Z</time>
      </trkpt>
      <trkpt lat="47.98292" lon="-2.03406">
        <ele>69.781</ele>
        <time>2011-10-09T08:45:44Z</time>
      </trkpt>
      <trkpt lat="47.98288" lon="-2.03423">
        <ele>69.781</ele>
        <time>2011-10-09T08:45:47Z</time>
      </trkpt>
      <trkpt lat="47.98273" lon="-2.03431">
        <ele>70.333</ele>
        <time>2011-10-09T08:45:51Z</time>
      </trkpt>
      <trkpt lat="47.98255" lon="-2.03443">
        <ele>71.056</ele>
        <time>2011-10-09T08:45:55Z</time>
      </trkpt>
      <trkpt lat="47.98213" lon="-2.03508">
        <ele>71.562</ele>
        <time>2011-10-09T08:46:06Z</time>
      </trkpt>
      <trkpt lat="47.9817" lon="-2.03574">
        <ele>71.364</ele>
        <time>2011-10-09T08:46:16Z</time>
      </trkpt>
      <trkpt lat="47.98129" lon="-2.03633">
        <ele>70.715</ele>
        <time>2011-10-09T08:46:25Z</time>
      </trkpt>
      <trkpt lat="47.98096" lon="-2.03679">
        <ele>70.665</ele>
        <time>2011-10-09T08:46:33Z</time>
      </trkpt>
      <trkpt lat="47.98071" lon="-2.03714">
        <ele>70.611</ele>
        <time>2011-10-09T08:46:39Z</time>
      </trkpt>
      <trkpt lat="47.98039" lon="-2.03757">
        <ele>70.519</ele>
        <time>2011-10-09T08:46:45Z</time>
      </trkpt>
      <trkpt lat="47.98" lon="-2.03819">
        <ele>70.741</ele>
        <time>2011-10-09T08:46:53Z</time>
      </trkpt>
      <trkpt lat="47.97965" lon="-2.03881">
        <ele>71.742</ele>
        <time>2011-10-09T08:47:01Z</time>
      </trkpt>
      <trkpt lat="47.97924" lon="-2.03963">
        <ele>72.863</ele>
        <time>2011-10-09T08:47:11Z</time>
      </trkpt>
      <trkpt lat="47.97888" lon="-2.04035">
        <ele>72.292</ele>
        <time>2011-10-09T08:47:19Z</time>
      </trkpt>
      <trkpt lat="47.97851" lon="-2.04094">
        <ele>70.71</ele>
        <time>2011-10-09T08:47:26Z</time>
      </trkpt>
      <trkpt lat="47.9781" lon="-2.04139">
        <ele>68.916</ele>
        <time>2011-10-09T08:47:32Z</time>
      </trkpt>
      <trkpt lat="47.97754" lon="-2.04196">
        <ele>66.762</ele>
        <time>2011-10-09T08:47:40Z</time>
      </trkpt>
      <trkpt lat="47.97721" lon="-2.04229">
        <ele>66.206</ele>
        <time>2011-10-09T08:47:45Z</time>
      </trkpt>
      <trkpt lat="47.97679" lon="-2.04259">
        <ele>65.578</ele>
        <time>2011-10-09T08:47:51Z</time>
      </trkpt>
      <trkpt lat="47.97622" lon="-2.04284">
        <ele>64.356</ele>
        <time>2011-10-09T08:47:58Z</time>
      </trkpt>
      <trkpt lat="47.97565" lon="-2.04312">
        <ele>62.483</ele>
        <time>2011-10-09T08:48:05Z</time>
      </trkpt>
      <trkpt lat="47.97517" lon="-2.04343">
        <ele>60.299</ele>
        <time>2011-10-09T08:48:11Z</time>
      </trkpt>
      <trkpt lat="47.97482" lon="-2.04367">
        <ele>59.677</ele>
        <time>2011-10-09T08:48:16Z</time>
      </trkpt>
      <trkpt lat="47.97439" lon="-2.04398">
        <ele>59.946</ele>
        <time>2011-10-09T08:48:22Z</time>
      </trkpt>
      <trkpt lat="47.97411" lon="-2.0442">
        <ele>60.401</ele>
        <time>2011-10-09T08:48:26Z</time>
      </trkpt>
      <trkpt lat="47.97404" lon="-2.04425">
        <ele>60.59</ele>
        <time>2011-10-09T08:48:27Z</time>
      </trkpt>
      <trkpt lat="47.97365" lon="-2.04457">
        <ele>62.526</ele>
        <time>2011-10-09T08:48:34Z</time>
      </trkpt>
      <trkpt lat="47.97331" lon="-2.04483">
        <ele>64.571</ele>
        <time>2011-10-09T08:48:40Z</time>
      </trkpt>
      <trkpt lat="47.97309" lon="-2.04501">
        <ele>65.614</ele>
        <time>2011-10-09T08:48:44Z</time>
      </trkpt>
      <trkpt lat="47.97285" lon="-2.0452">
        <ele>66.764</ele>
        <time>2011-10-09T08:48:48Z</time>
      </trkpt>
      <trkpt lat="47.97234" lon="-2.04555">
        <ele>66.901</ele>
        <time>2011-10-09T08:48:56Z</time>
      </trkpt>
      <trkpt lat="47.97192" lon="-2.04571">
        <ele>66.938</ele>
        <time>2011-10-09T08:49:02Z</time>
      </trkpt>
      <trkpt lat="47.97139" lon="-2.04591">
        <ele>66.659</ele>
        <time>2011-10-09T08:49:10Z</time>
      </trkpt>
      <trkpt lat="47.97072" lon="-2.04616">
        <ele>67.358</ele>
        <time>2011-10-09T08:49:20Z</time>
      </trkpt>
      <trkpt lat="47.97015" lon="-2.04637">
        <ele>68.805</ele>
        <time>2011-10-09T08:49:29Z</time>
      </trkpt>
      <trkpt lat="47.96952" lon="-2.0466">
        <ele>70.5</ele>
        <time>2011-10-09T08:49:39Z</time>
      </trkpt>
      <trkpt lat="47.96899" lon="-2.0468">
        <ele>72.074</ele>
        <time>2011-10-09T08:49:48Z</time>
      </trkpt>
      <trkpt lat="47.96845" lon="-2.04701">
        <ele>72.793</ele>
        <time>2011-10-09T08:49:57Z</time>
      </trkpt>
      <trkpt lat="47.96787" lon="-2.04724">
        <ele>71.625</ele>
        <time>2011-10-09T08:50:06Z</time>
      </trkpt>
      <trkpt lat="47.96735" lon="-2.04749">
        <ele>70.48</ele>
        <time>2011-10-09T08:50:14Z</time>
      </trkpt>
      <trkpt lat="47.96677" lon="-2.04783">
        <ele>69.947</ele>
        <time>2011-10-09T08:50:23Z</time>
      </trkpt>
      <trkpt lat="47.96616" lon="-2.04821">
        <ele>68.659</ele>
        <time>2011-10-09T08:50:32Z</time>
      </trkpt>
      <trkpt lat="47.96544" lon="-2.04866">
        <ele>67.535</ele>
        <time>2011-10-09T08:50:42Z</time>
      </trkpt>
      <trkpt lat="47.96485" lon="-2.04903">
        <ele>67.254</ele>
        <time>2011-10-09T08:50:51Z</time>
      </trkpt>
      <trkpt lat="47.96439" lon="-2.04937">
        <ele>68.519</ele>
        <time>2011-10-09T08:50:59Z</time>
      </trkpt>
      <trkpt lat="47.964" lon="-2.04981">
        <ele>69.939</ele>
        <time>2011-10-09T08:51:07Z</time>
      </trkpt>
      <trkpt lat="47.9636" lon="-2.0503">
        <ele>71.886</ele>
        <time>2011-10-09T08:51:16Z</time>
      </trkpt>
      <trkpt lat="47.96315" lon="-2.05087">
        <ele>73.648</ele>
        <time>2011-10-09T08:51:26Z</time>
      </trkpt>
      <trkpt lat="47.96265" lon="-2.05153">
        <ele>74.654</ele>
        <time>2011-10-09T08:51:37Z</time>
      </trkpt>
      <trkpt lat="47.96221" lon="-2.05203">
        <ele>75.439</ele>
        <time>2011-10-09T08:51:46Z</time>
      </trkpt>
      <trkpt lat="47.9621" lon="-2.0521">
        <ele>75.613</ele>
        <time>2011-10-09T08:51:48Z</time>
      </trkpt>
      <trkpt lat="47.96179" lon="-2.05215">
        <ele>76.053</ele>
        <time>2011-10-09T08:51:53Z</time>
      </trkpt>
      <trkpt lat="47.96125" lon="-2.05209">
        <ele>76.707</ele>
        <time>2011-10-09T08:52:01Z</time>
      </trkpt>
      <trkpt lat="47.96064" lon="-2.05205">
        <ele>75.9</ele>
        <time>2011-10-09T08:52:10Z</time>
      </trkpt>
      <trkpt lat="47.96013" lon="-2.05205">
        <ele>75.5</ele>
        <time>2011-10-09T08:52:17Z</time>
      </trkpt>
      <trkpt lat="47.95964" lon="-2.05215">
        <ele>74.857</ele>
        <time>2011-10-09T08:52:24Z</time>
      </trkpt>
      <trkpt lat="47.95895" lon="-2.05228">
        <ele>74.314</ele>
        <time>2011-10-09T08:52:33Z</time>
      </trkpt>
      <trkpt lat="47.95843" lon="-2.05229">
        <ele>72.693</ele>
        <time>2011-10-09T08:52:39Z</time>
      </trkpt>
      <trkpt lat="47.95766" lon="-2.05219">
        <ele>69.392</ele>
        <time>2011-10-09T08:52:47Z</time>
      </trkpt>
      <trkpt lat="47.95709" lon="-2.0521">
        <ele>66.248</ele>
        <time>2011-10-09T08:52:53Z</time>
      </trkpt>
      <trkpt lat="47.95671" lon="-2.05205">
        <ele>65.265</ele>
        <time>2011-10-09T08:52:57Z</time>
      </trkpt>
      <trkpt lat="47.95635" lon="-2.0522">
        <ele>64.387</ele>
        <time>2011-10-09T08:53:01Z</time>
      </trkpt>
      <trkpt lat="47.9562" lon="-2.05235">
        <ele>64.211</ele>
        <time>2011-10-09T08:53:03Z</time>
      </trkpt>
      <trkpt lat="47.95574" lon="-2.05286">
        <ele>64.071</ele>
        <time>2011-10-09T08:53:10Z</time>
      </trkpt>
      <trkpt lat="47.95534" lon="-2.05329">
        <ele>64.65</ele>
        <time>2011-10-09T08:53:17Z</time>
      </trkpt>
      <trkpt lat="47.95486" lon="-2.05383">
        <ele>66.035</ele>
        <time>2011-10-09T08:53:26Z</time>
      </trkpt>
      <trkpt lat="47.9545" lon="-2.05428">
        <ele>67.024</ele>
        <time>2011-10-09T08:53:33Z</time>
      </trkpt>
      <trkpt lat="47.95425" lon="-2.05484">
        <ele>67.018</ele>
        <time>2011-10-09T08:53:39Z</time>
      </trkpt>
      <trkpt lat="47.95401" lon="-2.05554">
        <ele>66.419</ele>
        <time>2011-10-09T08:53:46Z</time>
      </trkpt>
      <trkpt lat="47.9537" lon="-2.05639">
        <ele>65.757</ele>
        <time>2011-10-09T08:53:55Z</time>
      </trkpt>
      <trkpt lat="47.95339" lon="-2.05727">
        <ele>65.477</ele>
        <time>2011-10-09T08:54:04Z</time>
      </trkpt>
      <trkpt lat="47.95307" lon="-2.05814">
        <ele>64.877</ele>
        <time>2011-10-09T08:54:13Z</time>
      </trkpt>
      <trkpt lat="47.95273" lon="-2.05893">
        <ele>63.696</ele>
        <time>2011-10-09T08:54:21Z</time>
      </trkpt>
      <trkpt lat="47.95233" lon="-2.05956">
        <ele>61.703</ele>
        <time>2011-10-09T08:54:28Z</time>
      </trkpt>
      <trkpt lat="47.95209" lon="-2.05993">
        <ele>60.135</ele>
        <time>2011-10-09T08:54:32Z</time>
      </trkpt>
      <trkpt lat="47.95171" lon="-2.06048">
        <ele>59.026</ele>
        <time>2011-10-09T08:54:38Z</time>
      </trkpt>
      <trkpt lat="47.95112" lon="-2.06135">
        <ele>56.538</ele>
        <time>2011-10-09T08:54:47Z</time>
      </trkpt>
      <trkpt lat="47.95041" lon="-2.06243">
        <ele>53.411</ele>
        <time>2011-10-09T08:54:58Z</time>
      </trkpt>
      <trkpt lat="47.94957" lon="-2.06368">
        <ele>49.033</ele>
        <time>2011-10-09T08:55:11Z</time>
      </trkpt>
      <trkpt lat="47.94884" lon="-2.06477">
        <ele>45.923</ele>
        <time>2011-10-09T08:55:22Z</time>
      </trkpt>
      <trkpt lat="47.94843" lon="-2.06539">
        <ele>45.763</ele>
        <time>2011-10-09T08:55:29Z</time>
      </trkpt>
      <trkpt lat="47.94799" lon="-2.06604">
        <ele>46.47</ele>
        <time>2011-10-09T08:55:37Z</time>
      </trkpt>
      <trkpt lat="47.9476" lon="-2.06661">
        <ele>47.061</ele>
        <time>2011-10-09T08:55:44Z</time>
      </trkpt>
      <trkpt lat="47.94716" lon="-2.06707">
        <ele>47.161</ele>
        <time>2011-10-09T08:55:51Z</time>
      </trkpt>
      <trkpt lat="47.94688" lon="-2.0673">
        <ele>47.088</ele>
        <time>2011-10-09T08:55:56Z</time>
      </trkpt>
      <trkpt lat="47.94676" lon="-2.06741">
        <ele>46.733</ele>
        <time>2011-10-09T08:56:00Z</time>
      </trkpt>
      <trkpt lat="47.94659" lon="-2.06754">
        <ele>46.697</ele>
        <time>2011-10-09T08:56:06Z</time>
      </trkpt>
      <trkpt lat="47.94631" lon="-2.06776">
        <ele>47.235</ele>
        <time>2011-10-09T08:56:13Z</time>
      </trkpt>
      <trkpt lat="47.94595" lon="-2.06803">
        <ele>48.249</ele>
        <time>2011-10-09T08:56:21Z</time>
      </trkpt>
      <trkpt lat="47.94572" lon="-2.06821">
        <ele>49.063</ele>
        <time>2011-10-09T08:56:27Z</time>
      </trkpt>
      <trkpt lat="47.94555" lon="-2.06833">
        <ele>49.499</ele>
        <time>2011-10-09T08:56:32Z</time>
      </trkpt>
      <trkpt lat="47.94534" lon="-2.0685">
        <ele>49.791</ele>
        <time>2011-10-09T08:56:37Z</time>
      </trkpt>
      <trkpt lat="47.94502" lon="-2.06876">
        <ele>50.182</ele>
        <time>2011-10-09T08:56:43Z</time>
      </trkpt>
      <trkpt lat="47.94452" lon="-2.06918">
        <ele>49.869</ele>
        <time>2011-10-09T08:56:51Z</time>
      </trkpt>
      <trkpt lat="47.94381" lon="-2.06981">
        <ele>47.187</ele>
        <time>2011-10-09T08:57:01Z</time>
      </trkpt>
      <trkpt lat="47.94326" lon="-2.07033">
        <ele>44.494</ele>
        <time>2011-10-09T08:57:08Z</time>
      </trkpt>
      <trkpt lat="47.94282" lon="-2.07069">
        <ele>40.895</ele>
        <time>2011-10-09T08:57:13Z</time>
      </trkpt>
      <trkpt lat="47.94236" lon="-2.07102">
        <ele>38.062</ele>
        <time>2011-10-09T08:57:18Z</time>
      </trkpt>
      <trkpt lat="47.94211" lon="-2.07122">
        <ele>37.211</ele>
        <time>2011-10-09T08:57:21Z</time>
      </trkpt>
      <trkpt lat="47.94176" lon="-2.07144">
        <ele>37.821</ele>
        <time>2011-10-09T08:57:26Z</time>
      </trkpt>
      <trkpt lat="47.94146" lon="-2.07161">
        <ele>39.482</ele>
        <time>2011-10-09T08:57:31Z</time>
      </trkpt>
      <trkpt lat="47.9413" lon="-2.0717">
        <ele>40.599</ele>
        <time>2011-10-09T08:57:34Z</time>
      </trkpt>
      <trkpt lat="47.941" lon="-2.07187">
        <ele>42.486</ele>
        <time>2011-10-09T08:57:40Z</time>
      </trkpt>
      <trkpt lat="47.94073" lon="-2.07203">
        <ele>43.927</ele>
        <time>2011-10-09T08:57:45Z</time>
      </trkpt>
      <trkpt lat="47.94041" lon="-2.07222">
        <ele>44.514</ele>
        <time>2011-10-09T08:57:50Z</time>
      </trkpt>
      <trkpt lat="47.93994" lon="-2.07239">
        <ele>43.538</ele>
        <time>2011-10-09T08:57:56Z</time>
      </trkpt>
      <trkpt lat="47.93945" lon="-2.07248">
        <ele>43.58</ele>
        <time>2011-10-09T08:58:03Z</time>
      </trkpt>
      <trkpt lat="47.9389" lon="-2.0726">
        <ele>44.896</ele>
        <time>2011-10-09T08:58:11Z</time>
      </trkpt>
      <trkpt lat="47.93827" lon="-2.0727">
        <ele>45.567</ele>
        <time>2011-10-09T08:58:20Z</time>
      </trkpt>
      <trkpt lat="47.93782" lon="-2.07283">
        <ele>44.902</ele>
        <time>2011-10-09T08:58:26Z</time>
      </trkpt>
      <trkpt lat="47.93775" lon="-2.07287">
        <ele>44.673</ele>
        <time>2011-10-09T08:58:27Z</time>
      </trkpt>
      <trkpt lat="47.93736" lon="-2.07331">
        <ele>42.485</ele>
        <time>2011-10-09T08:58:32Z</time>
      </trkpt>
      <trkpt lat="47.93714" lon="-2.07385">
        <ele>39.561</ele>
        <time>2011-10-09T08:58:36Z</time>
      </trkpt>
      <trkpt lat="47.93706" lon="-2.07434">
        <ele>37.071</ele>
        <time>2011-10-09T08:58:39Z</time>
      </trkpt>
      <trkpt lat="47.93699" lon="-2.07549">
        <ele>31.983</ele>
        <time>2011-10-09T08:58:46Z</time>
      </trkpt>
      <trkpt lat="47.93694" lon="-2.07633">
        <ele>27.762</ele>
        <time>2011-10-09T08:58:51Z</time>
      </trkpt>
      <trkpt lat="47.93688" lon="-2.07713">
        <ele>23.83</ele>
        <time>2011-10-09T08:58:56Z</time>
      </trkpt>
      <trkpt lat="47.93685" lon="-2.0776">
        <ele>21.846</ele>
        <time>2011-10-09T08:58:59Z</time>
      </trkpt>
      <trkpt lat="47.93679" lon="-2.07851">
        <ele>18.611</ele>
        <time>2011-10-09T08:59:05Z</time>
      </trkpt>
      <trkpt lat="47.93674" lon="-2.07899">
        <ele>17.03</ele>
        <time>2011-10-09T08:59:09Z</time>
      </trkpt>
      <trkpt lat="47.93659" lon="-2.07953">
        <ele>16.26</ele>
        <time>2011-10-09T08:59:14Z</time>
      </trkpt>
      <trkpt lat="47.93631" lon="-2.07995">
        <ele>14.376</ele>
        <time>2011-10-09T08:59:19Z</time>
      </trkpt>
      <trkpt lat="47.93602" lon="-2.08016">
        <ele>10.362</ele>
        <time>2011-10-09T08:59:25Z</time>
      </trkpt>
      <trkpt lat="47.93595" lon="-2.08021">
        <ele>8.472</ele>
        <time>2011-10-09T08:59:29Z</time>
      </trkpt>
      <trkpt lat="47.93592" lon="-2.08026">
        <ele>7.663</ele>
        <time>2011-10-09T08:59:32Z</time>
      </trkpt>
      <trkpt lat="47.93599" lon="-2.08042">
        <ele>7.174</ele>
        <time>2011-10-09T08:59:37Z</time>
      </trkpt>
      <trkpt lat="47.93625" lon="-2.0806">
        <ele>6.888</ele>
        <time>2011-10-09T08:59:45Z</time>
      </trkpt>
      <trkpt lat="47.93651" lon="-2.08075">
        <ele>7.158</ele>
        <time>2011-10-09T08:59:52Z</time>
      </trkpt>
      <trkpt lat="47.9367" lon="-2.08085">
        <ele>7.406</ele>
        <time>2011-10-09T08:59:57Z</time>
      </trkpt>
      <trkpt lat="47.93706" lon="-2.08112">
        <ele>7.856</ele>
        <time>2011-10-09T09:00:05Z</time>
      </trkpt>
      <trkpt lat="47.93727" lon="-2.08125">
        <ele>7.21</ele>
        <time>2011-10-09T09:00:09Z</time>
      </trkpt>
      <trkpt lat="47.93757" lon="-2.08136">
        <ele>5.91</ele>
        <time>2011-10-09T09:00:14Z</time>
      </trkpt>
      <trkpt lat="47.93801" lon="-2.08153">
        <ele>4.212</ele>
        <time>2011-10-09T09:00:21Z</time>
      </trkpt>
      <trkpt lat="47.93834" lon="-2.08171">
        <ele>3.185</ele>
        <time>2011-10-09T09:00:26Z</time>
      </trkpt>
      <trkpt lat="47.93871" lon="-2.08207">
        <ele>2.146</ele>
        <time>2011-10-09T09:00:32Z</time>
      </trkpt>
      <trkpt lat="47.93913" lon="-2.08265">
        <ele>0.197</ele>
        <time>2011-10-09T09:00:39Z</time>
      </trkpt>
      <trkpt lat="47.93959" lon="-2.08328">
        <ele>-0.282</ele>
        <time>2011-10-09T09:00:47Z</time>
      </trkpt>
      <trkpt lat="47.94" lon="-2.08385">
        <ele>-0.434</ele>
        <time>2011-10-09T09:00:54Z</time>
      </trkpt>
      <trkpt lat="47.94038" lon="-2.08438">
        <ele>-0.938</ele>
        <time>2011-10-09T09:01:01Z</time>
      </trkpt>
      <trkpt lat="47.94078" lon="-2.08487">
        <ele>-1.53</ele>
        <time>2011-10-09T09:01:08Z</time>
      </trkpt>
      <trkpt lat="47.94111" lon="-2.08509">
        <ele>-1.479</ele>
        <time>2011-10-09T09:01:13Z</time>
      </trkpt>
      <trkpt lat="47.94159" lon="-2.0855">
        <ele>-1.037</ele>
        <time>2011-10-09T09:01:21Z</time>
      </trkpt>
      <trkpt lat="47.94213" lon="-2.08612">
        <ele>-0.498</ele>
        <time>2011-10-09T09:01:31Z</time>
      </trkpt>
      <trkpt lat="47.94247" lon="-2.08652">
        <ele>-0.303</ele>
        <time>2011-10-09T09:01:37Z</time>
      </trkpt>
      <trkpt lat="47.94288" lon="-2.08699">
        <ele>-0.287</ele>
        <time>2011-10-09T09:01:44Z</time>
      </trkpt>
      <trkpt lat="47.9433" lon="-2.08725">
        <ele>-0.618</ele>
        <time>2011-10-09T09:01:50Z</time>
      </trkpt>
      <trkpt lat="47.94374" lon="-2.08735">
        <ele>-0.575</ele>
        <time>2011-10-09T09:01:56Z</time>
      </trkpt>
      <trkpt lat="47.94447" lon="-2.08745">
        <ele>-0.386</ele>
        <time>2011-10-09T09:02:06Z</time>
      </trkpt>
      <trkpt lat="47.9451" lon="-2.08752">
        <ele>0.03</ele>
        <time>2011-10-09T09:02:15Z</time>
      </trkpt>
      <trkpt lat="47.94572" lon="-2.08762">
        <ele>0.703</ele>
        <time>2011-10-09T09:02:24Z</time>
      </trkpt>
      <trkpt lat="47.94616" lon="-2.08776">
        <ele>1.291</ele>
        <time>2011-10-09T09:02:31Z</time>
      </trkpt>
      <trkpt lat="47.94655" lon="-2.08804">
        <ele>1.725</ele>
        <time>2011-10-09T09:02:38Z</time>
      </trkpt>
      <trkpt lat="47.947" lon="-2.08851">
        <ele>2.567</ele>
        <time>2011-10-09T09:02:47Z</time>
      </trkpt>
      <trkpt lat="47.94744" lon="-2.08902">
        <ele>3.391</ele>
        <time>2011-10-09T09:02:56Z</time>
      </trkpt>
      <trkpt lat="47.94801" lon="-2.08965">
        <ele>4.096</ele>
        <time>2011-10-09T09:03:07Z</time>
      </trkpt>
      <trkpt lat="47.94845" lon="-2.09012">
        <ele>4.812</ele>
        <time>2011-10-09T09:03:15Z</time>
      </trkpt>
      <trkpt lat="47.9487" lon="-2.09042">
        <ele>5.112</ele>
        <time>2011-10-09T09:03:20Z</time>
      </trkpt>
      <trkpt lat="47.94894" lon="-2.09071">
        <ele>5.464</ele>
        <time>2011-10-09T09:03:25Z</time>
      </trkpt>
      <trkpt lat="47.94947" lon="-2.09129">
        <ele>4.734</ele>
        <time>2011-10-09T09:03:34Z</time>
      </trkpt>
      <trkpt lat="47.94979" lon="-2.09168">
        <ele>5.014</ele>
        <time>2011-10-09T09:03:40Z</time>
      </trkpt>
      <trkpt lat="47.95012" lon="-2.09205">
        <ele>5.159</ele>
        <time>2011-10-09T09:03:46Z</time>
      </trkpt>
      <trkpt lat="47.95058" lon="-2.09257">
        <ele>5.445</ele>
        <time>2011-10-09T09:03:55Z</time>
      </trkpt>
      <trkpt lat="47.951" lon="-2.09311">
        <ele>5.496</ele>
        <time>2011-10-09T09:04:04Z</time>
      </trkpt>
      <trkpt lat="47.95148" lon="-2.09376">
        <ele>6.439</ele>
        <time>2011-10-09T09:04:14Z</time>
      </trkpt>
      <trkpt lat="47.95207" lon="-2.09447">
        <ele>6.966</ele>
        <time>2011-10-09T09:04:25Z</time>
      </trkpt>
      <trkpt lat="47.95247" lon="-2.09456">
        <ele>7.295</ele>
        <time>2011-10-09T09:04:31Z</time>
      </trkpt>
      <trkpt lat="47.95287" lon="-2.09444">
        <ele>8.105</ele>
        <time>2011-10-09T09:04:37Z</time>
      </trkpt>
      <trkpt lat="47.95327" lon="-2.09421">
        <ele>9.01</ele>
        <time>2011-10-09T09:04:44Z</time>
      </trkpt>
      <trkpt lat="47.95374" lon="-2.09397">
        <ele>10.854</ele>
        <time>2011-10-09T09:04:53Z</time>
      </trkpt>
      <trkpt lat="47.95394" lon="-2.09387">
        <ele>11.734</ele>
        <time>2011-10-09T09:04:57Z</time>
      </trkpt>
      <trkpt lat="47.95406" lon="-2.09383">
        <ele>12.484</ele>
        <time>2011-10-09T09:05:00Z</time>
      </trkpt>
      <trkpt lat="47.95437" lon="-2.09373">
        <ele>14.293</ele>
        <time>2011-10-09T09:05:07Z</time>
      </trkpt>
      <trkpt lat="47.9546" lon="-2.09366">
        <ele>15.85</ele>
        <time>2011-10-09T09:05:12Z</time>
      </trkpt>
      <trkpt lat="47.95476" lon="-2.09362">
        <ele>17.095</ele>
        <time>2011-10-09T09:05:16Z</time>
      </trkpt>
      <trkpt lat="47.95492" lon="-2.09359">
        <ele>18.955</ele>
        <time>2011-10-09T09:05:22Z</time>
      </trkpt>
      <trkpt lat="47.95509" lon="-2.09356">
        <ele>20.326</ele>
        <time>2011-10-09T09:05:28Z</time>
      </trkpt>
      <trkpt lat="47.95528" lon="-2.09353">
        <ele>21.416</ele>
        <time>2011-10-09T09:05:33Z</time>
      </trkpt>
      <trkpt lat="47.95558" lon="-2.09353">
        <ele>23.398</ele>
        <time>2011-10-09T09:05:41Z</time>
      </trkpt>
      <trkpt lat="47.9558" lon="-2.09361">
        <ele>24.549</ele>
        <time>2011-10-09T09:05:47Z</time>
      </trkpt>
      <trkpt lat="47.95602" lon="-2.09384">
        <ele>25.775</ele>
        <time>2011-10-09T09:05:54Z</time>
      </trkpt>
      <trkpt lat="47.95619" lon="-2.09412">
        <ele>26.697</ele>
        <time>2011-10-09T09:06:01Z</time>
      </trkpt>
      <trkpt lat="47.95637" lon="-2.09443">
        <ele>28.194</ele>
        <time>2011-10-09T09:06:08Z</time>
      </trkpt>
      <trkpt lat="47.95665" lon="-2.0949">
        <ele>30.879</ele>
        <time>2011-10-09T09:06:19Z</time>
      </trkpt>
      <trkpt lat="47.95678" lon="-2.09514">
        <ele>32.379</ele>
        <time>2011-10-09T09:06:25Z</time>
      </trkpt>
      <trkpt lat="47.95699" lon="-2.09557">
        <ele>35.044</ele>
        <time>2011-10-09T09:06:35Z</time>
      </trkpt>
      <trkpt lat="47.95713" lon="-2.09587">
        <ele>36.697</ele>
        <time>2011-10-09T09:06:42Z</time>
      </trkpt>
      <trkpt lat="47.95731" lon="-2.09627">
        <ele>37.879</ele>
        <time>2011-10-09T09:06:50Z</time>
      </trkpt>
      <trkpt lat="47.95755" lon="-2.09679">
        <ele>39.019</ele>
        <time>2011-10-09T09:07:00Z</time>
      </trkpt>
      <trkpt lat="47.9578" lon="-2.09732">
        <ele>39.688</ele>
        <time>2011-10-09T09:07:10Z</time>
      </trkpt>
      <trkpt lat="47.958" lon="-2.09785">
        <ele>40.301</ele>
        <time>2011-10-09T09:07:19Z</time>
      </trkpt>
      <trkpt lat="47.9581" lon="-2.09818">
        <ele>40.183</ele>
        <time>2011-10-09T09:07:25Z</time>
      </trkpt>
      <trkpt lat="47.95815" lon="-2.09875">
        <ele>39.602</ele>
        <time>2011-10-09T09:07:34Z</time>
      </trkpt>
      <trkpt lat="47.95821" lon="-2.09922">
        <ele>38.578</ele>
        <time>2011-10-09T09:07:41Z</time>
      </trkpt>
      <trkpt lat="47.95823" lon="-2.09941">
        <ele>38.028</ele>
        <time>2011-10-09T09:07:44Z</time>
      </trkpt>
      <trkpt lat="47.95832" lon="-2.09975">
        <ele>37.507</ele>
        <time>2011-10-09T09:07:50Z</time>
      </trkpt>
      <trkpt lat="47.95843" lon="-2.10013">
        <ele>36.628</ele>
        <time>2011-10-09T09:07:56Z</time>
      </trkpt>
      <trkpt lat="47.95852" lon="-2.10063">
        <ele>35.631</ele>
        <time>2011-10-09T09:08:01Z</time>
      </trkpt>
      <trkpt lat="47.95868" lon="-2.10125">
        <ele>33.238</ele>
        <time>2011-10-09T09:08:06Z</time>
      </trkpt>
      <trkpt lat="47.95893" lon="-2.10189">
        <ele>30.496</ele>
        <time>2011-10-09T09:08:11Z</time>
      </trkpt>
      <trkpt lat="47.95937" lon="-2.10282">
        <ele>25.916</ele>
        <time>2011-10-09T09:08:18Z</time>
      </trkpt>
      <trkpt lat="47.9596" lon="-2.10327">
        <ele>24.445</ele>
        <time>2011-10-09T09:08:22Z</time>
      </trkpt>
      <trkpt lat="47.95988" lon="-2.10383">
        <ele>25.486</ele>
        <time>2011-10-09T09:08:28Z</time>
      </trkpt>
      <trkpt lat="47.96005" lon="-2.10414">
        <ele>26.124</ele>
        <time>2011-10-09T09:08:32Z</time>
      </trkpt>
      <trkpt lat="47.96026" lon="-2.10425">
        <ele>25.892</ele>
        <time>2011-10-09T09:08:36Z</time>
      </trkpt>
      <trkpt lat="47.9603" lon="-2.10423">
        <ele>25.909</ele>
        <time>2011-10-09T09:08:37Z</time>
      </trkpt>
      <trkpt lat="47.96071" lon="-2.10422">
        <ele>28.067</ele>
        <time>2011-10-09T09:08:46Z</time>
      </trkpt>
      <trkpt lat="47.96102" lon="-2.10433">
        <ele>30.156</ele>
        <time>2011-10-09T09:08:54Z</time>
      </trkpt>
      <trkpt lat="47.96124" lon="-2.10441">
        <ele>32.208</ele>
        <time>2011-10-09T09:09:00Z</time>
      </trkpt>
      <trkpt lat="47.96145" lon="-2.10445">
        <ele>33.47</ele>
        <time>2011-10-09T09:09:06Z</time>
      </trkpt>
      <trkpt lat="47.96168" lon="-2.10444">
        <ele>35.093</ele>
        <time>2011-10-09T09:09:12Z</time>
      </trkpt>
      <trkpt lat="47.96203" lon="-2.10429">
        <ele>37.702</ele>
        <time>2011-10-09T09:09:22Z</time>
      </trkpt>
      <trkpt lat="47.96237" lon="-2.10407">
        <ele>39.795</ele>
        <time>2011-10-09T09:09:32Z</time>
      </trkpt>
      <trkpt lat="47.96269" lon="-2.10385">
        <ele>41.807</ele>
        <time>2011-10-09T09:09:42Z</time>
      </trkpt>
      <trkpt lat="47.963" lon="-2.10374">
        <ele>43.764</ele>
        <time>2011-10-09T09:09:51Z</time>
      </trkpt>
      <trkpt lat="47.96336" lon="-2.10366">
        <ele>46.077</ele>
        <time>2011-10-09T09:10:01Z</time>
      </trkpt>
      <trkpt lat="47.96364" lon="-2.10359">
        <ele>47.24</ele>
        <time>2011-10-09T09:10:08Z</time>
      </trkpt>
      <trkpt lat="47.96409" lon="-2.10346">
        <ele>49.077</ele>
        <time>2011-10-09T09:10:19Z</time>
      </trkpt>
      <trkpt lat="47.96447" lon="-2.10336">
        <ele>50.259</ele>
        <time>2011-10-09T09:10:28Z</time>
      </trkpt>
      <trkpt lat="47.96483" lon="-2.10327">
        <ele>51.503</ele>
        <time>2011-10-09T09:10:37Z</time>
      </trkpt>
      <trkpt lat="47.96515" lon="-2.10318">
        <ele>52.678</ele>
        <time>2011-10-09T09:10:45Z</time>
      </trkpt>
      <trkpt lat="47.96554" lon="-2.10309">
        <ele>54.24</ele>
        <time>2011-10-09T09:10:55Z</time>
      </trkpt>
      <trkpt lat="47.96589" lon="-2.103">
        <ele>56.683</ele>
        <time>2011-10-09T09:11:05Z</time>
      </trkpt>
      <trkpt lat="47.96616" lon="-2.10293">
        <ele>58.427</ele>
        <time>2011-10-09T09:11:13Z</time>
      </trkpt>
      <trkpt lat="47.96639" lon="-2.1029">
        <ele>60.277</ele>
        <time>2011-10-09T09:11:20Z</time>
      </trkpt>
      <trkpt lat="47.9667" lon="-2.10281">
        <ele>62.424</ele>
        <time>2011-10-09T09:11:29Z</time>
      </trkpt>
      <trkpt lat="47.96712" lon="-2.10271">
        <ele>65.64</ele>
        <time>2011-10-09T09:11:41Z</time>
      </trkpt>
      <trkpt lat="47.96741" lon="-2.10263">
        <ele>67.169</ele>
        <time>2011-10-09T09:11:50Z</time>
      </trkpt>
      <trkpt lat="47.9677" lon="-2.10256">
        <ele>69.535</ele>
        <time>2011-10-09T09:11:59Z</time>
      </trkpt>
      <trkpt lat="47.96804" lon="-2.10246">
        <ele>72.705</ele>
        <time>2011-10-09T09:12:10Z</time>
      </trkpt>
      <trkpt lat="47.96828" lon="-2.10241">
        <ele>74.339</ele>
        <time>2011-10-09T09:12:18Z</time>
      </trkpt>
      <trkpt lat="47.9685" lon="-2.10235">
        <ele>75.934</ele>
        <time>2011-10-09T09:12:25Z</time>
      </trkpt>
      <trkpt lat="47.96875" lon="-2.10229">
        <ele>77.897</ele>
        <time>2011-10-09T09:12:32Z</time>
      </trkpt>
      <trkpt lat="47.96907" lon="-2.1022">
        <ele>79.886</ele>
        <time>2011-10-09T09:12:41Z</time>
      </trkpt>
      <trkpt lat="47.9695" lon="-2.10208">
        <ele>82.322</ele>
        <time>2011-10-09T09:12:53Z</time>
      </trkpt>
      <trkpt lat="47.96986" lon="-2.10198">
        <ele>83.757</ele>
        <time>2011-10-09T09:13:03Z</time>
      </trkpt>
      <trkpt lat="47.97025" lon="-2.1019">
        <ele>84.631</ele>
        <time>2011-10-09T09:13:13Z</time>
      </trkpt>
      <trkpt lat="47.97065" lon="-2.10187">
        <ele>85.44</ele>
        <time>2011-10-09T09:13:23Z</time>
      </trkpt>
      <trkpt lat="47.97107" lon="-2.10191">
        <ele>86.61</ele>
        <time>2011-10-09T09:13:33Z</time>
      </trkpt>
      <trkpt lat="47.97153" lon="-2.10197">
        <ele>88.165</ele>
        <time>2011-10-09T09:13:44Z</time>
      </trkpt>
      <trkpt lat="47.972" lon="-2.10203">
        <ele>89.094</ele>
        <time>2011-10-09T09:13:55Z</time>
      </trkpt>
      <trkpt lat="47.97237" lon="-2.10209">
        <ele>89.81</ele>
        <time>2011-10-09T09:14:04Z</time>
      </trkpt>
      <trkpt lat="47.97271" lon="-2.10214">
        <ele>89.959</ele>
        <time>2011-10-09T09:14:12Z</time>
      </trkpt>
      <trkpt lat="47.97298" lon="-2.10215">
        <ele>90.269</ele>
        <time>2011-10-09T09:14:18Z</time>
      </trkpt>
      <trkpt lat="47.97334" lon="-2.1022">
        <ele>90.615</ele>
        <time>2011-10-09T09:14:26Z</time>
      </trkpt>
      <trkpt lat="47.97373" lon="-2.10225">
        <ele>90.856</ele>
        <time>2011-10-09T09:14:33Z</time>
      </trkpt>
      <trkpt lat="47.97422" lon="-2.10231">
        <ele>91.288</ele>
        <time>2011-10-09T09:14:41Z</time>
      </trkpt>
      <trkpt lat="47.97492" lon="-2.1024">
        <ele>90.773</ele>
        <time>2011-10-09T09:14:52Z</time>
      </trkpt>
      <trkpt lat="47.97565" lon="-2.10249">
        <ele>90.449</ele>
        <time>2011-10-09T09:15:03Z</time>
      </trkpt>
      <trkpt lat="47.97624" lon="-2.10257">
        <ele>89.522</ele>
        <time>2011-10-09T09:15:11Z</time>
      </trkpt>
      <trkpt lat="47.97707" lon="-2.10268">
        <ele>86.775</ele>
        <time>2011-10-09T09:15:21Z</time>
      </trkpt>
      <trkpt lat="47.97778" lon="-2.10279">
        <ele>84.048</ele>
        <time>2011-10-09T09:15:29Z</time>
      </trkpt>
      <trkpt lat="47.97843" lon="-2.10286">
        <ele>82.107</ele>
        <time>2011-10-09T09:15:36Z</time>
      </trkpt>
      <trkpt lat="47.97917" lon="-2.10296">
        <ele>81.748</ele>
        <time>2011-10-09T09:15:45Z</time>
      </trkpt>
      <trkpt lat="47.97974" lon="-2.10303">
        <ele>82.526</ele>
        <time>2011-10-09T09:15:53Z</time>
      </trkpt>
      <trkpt lat="47.98032" lon="-2.10312">
        <ele>83.985</ele>
        <time>2011-10-09T09:16:02Z</time>
      </trkpt>
      <trkpt lat="47.98085" lon="-2.10317">
        <ele>84.09</ele>
        <time>2011-10-09T09:16:11Z</time>
      </trkpt>
      <trkpt lat="47.9811" lon="-2.1032">
        <ele>84.771</ele>
        <time>2011-10-09T09:16:15Z</time>
      </trkpt>
      <trkpt lat="47.98129" lon="-2.10323">
        <ele>85.555</ele>
        <time>2011-10-09T09:16:18Z</time>
      </trkpt>
      <trkpt lat="48.00452" lon="-2.11717">
        <ele>71.343</ele>
        <time>2011-10-09T09:23:43Z</time>
      </trkpt>
      <trkpt lat="48.00472" lon="-2.11752">
        <ele>72.708</ele>
        <time>2011-10-09T09:23:51Z</time>
      </trkpt>
      <trkpt lat="48.00504" lon="-2.11805">
        <ele>74.682</ele>
        <time>2011-10-09T09:24:02Z</time>
      </trkpt>
      <trkpt lat="48.00525" lon="-2.11837">
        <ele>75.965</ele>
        <time>2011-10-09T09:24:09Z</time>
      </trkpt>
      <trkpt lat="48.00551" lon="-2.11877">
        <ele>76.765</ele>
        <time>2011-10-09T09:24:17Z</time>
      </trkpt>
      <trkpt lat="48.0058" lon="-2.11922">
        <ele>77.302</ele>
        <time>2011-10-09T09:24:26Z</time>
      </trkpt>
      <trkpt lat="48.00609" lon="-2.11968">
        <ele>77.975</ele>
        <time>2011-10-09T09:24:35Z</time>
      </trkpt>
      <trkpt lat="48.0064" lon="-2.12016">
        <ele>78.241</ele>
        <time>2011-10-09T09:24:43Z</time>
      </trkpt>
      <trkpt lat="48.00676" lon="-2.12075">
        <ele>79.053</ele>
        <time>2011-10-09T09:24:53Z</time>
      </trkpt>
      <trkpt lat="48.00705" lon="-2.12126">
        <ele>80.713</ele>
        <time>2011-10-09T09:25:02Z</time>
      </trkpt>
      <trkpt lat="48.00732" lon="-2.12182">
        <ele>82.692</ele>
        <time>2011-10-09T09:25:12Z</time>
      </trkpt>
      <trkpt lat="48.00735" lon="-2.12188">
        <ele>82.834</ele>
        <time>2011-10-09T09:25:13Z</time>
      </trkpt>
      <trkpt lat="48.00755" lon="-2.12244">
        <ele>84.617</ele>
        <time>2011-10-09T09:25:22Z</time>
      </trkpt>
      <trkpt lat="48.0078" lon="-2.12304">
        <ele>87.157</ele>
        <time>2011-10-09T09:25:32Z</time>
      </trkpt>
      <trkpt lat="48.00794" lon="-2.12338">
        <ele>88.616</ele>
        <time>2011-10-09T09:25:38Z</time>
      </trkpt>
      <trkpt lat="48.00815" lon="-2.1239">
        <ele>90.039</ele>
        <time>2011-10-09T09:25:47Z</time>
      </trkpt>
      <trkpt lat="48.00829" lon="-2.12425">
        <ele>91.596</ele>
        <time>2011-10-09T09:25:53Z</time>
      </trkpt>
      <trkpt lat="48.00851" lon="-2.12476">
        <ele>93.115</ele>
        <time>2011-10-09T09:26:02Z</time>
      </trkpt>
      <trkpt lat="48.00874" lon="-2.12529">
        <ele>94.324</ele>
        <time>2011-10-09T09:26:11Z</time>
      </trkpt>
      <trkpt lat="48.00898" lon="-2.12587">
        <ele>95.888</ele>
        <time>2011-10-09T09:26:21Z</time>
      </trkpt>
      <trkpt lat="48.00921" lon="-2.12642">
        <ele>97.387</ele>
        <time>2011-10-09T09:26:30Z</time>
      </trkpt>
      <trkpt lat="48.00943" lon="-2.12692">
        <ele>98.054</ele>
        <time>2011-10-09T09:26:38Z</time>
      </trkpt>
      <trkpt lat="48.00965" lon="-2.12743">
        <ele>99.528</ele>
        <time>2011-10-09T09:26:46Z</time>
      </trkpt>
      <trkpt lat="48.00982" lon="-2.12783">
        <ele>100.087</ele>
        <time>2011-10-09T09:26:52Z</time>
      </trkpt>
      <trkpt lat="48.00991" lon="-2.12803">
        <ele>100.295</ele>
        <time>2011-10-09T09:26:55Z</time>
      </trkpt>
      <trkpt lat="48.01003" lon="-2.12829">
        <ele>100.486</ele>
        <time>2011-10-09T09:26:59Z</time>
      </trkpt>
      <trkpt lat="48.01015" lon="-2.12858">
        <ele>100.657</ele>
        <time>2011-10-09T09:27:03Z</time>
      </trkpt>
      <trkpt lat="48.01039" lon="-2.12922">
        <ele>101.314</ele>
        <time>2011-10-09T09:27:11Z</time>
      </trkpt>
      <trkpt lat="48.01064" lon="-2.1298">
        <ele>101.883</ele>
        <time>2011-10-09T09:27:18Z</time>
      </trkpt>
      <trkpt lat="48.0108" lon="-2.1301">
        <ele>102.16</ele>
        <time>2011-10-09T09:27:22Z</time>
      </trkpt>
      <trkpt lat="48.01101" lon="-2.13067">
        <ele>102.65</ele>
        <time>2011-10-09T09:27:28Z</time>
      </trkpt>
      <trkpt lat="48.01126" lon="-2.13129">
        <ele>102.864</ele>
        <time>2011-10-09T09:27:35Z</time>
      </trkpt>
      <trkpt lat="48.01145" lon="-2.13176">
        <ele>102.938</ele>
        <time>2011-10-09T09:27:40Z</time>
      </trkpt>
      <trkpt lat="48.01158" lon="-2.13201">
        <ele>102.853</ele>
        <time>2011-10-09T09:27:43Z</time>
      </trkpt>
      <trkpt lat="48.01176" lon="-2.13236">
        <ele>102.773</ele>
        <time>2011-10-09T09:27:47Z</time>
      </trkpt>
      <trkpt lat="48.01189" lon="-2.13261">
        <ele>102.852</ele>
        <time>2011-10-09T09:27:50Z</time>
      </trkpt>
      <trkpt lat="48.01204" lon="-2.13301">
        <ele>102.922</ele>
        <time>2011-10-09T09:27:54Z</time>
      </trkpt>
      <trkpt lat="48.0123" lon="-2.13362">
        <ele>102.564</ele>
        <time>2011-10-09T09:28:01Z</time>
      </trkpt>
      <trkpt lat="48.01252" lon="-2.13431">
        <ele>102.63</ele>
        <time>2011-10-09T09:28:07Z</time>
      </trkpt>
      <trkpt lat="48.01268" lon="-2.13467">
        <ele>102.451</ele>
        <time>2011-10-09T09:28:11Z</time>
      </trkpt>
      <trkpt lat="48.01297" lon="-2.13529">
        <ele>102.421</ele>
        <time>2011-10-09T09:28:18Z</time>
      </trkpt>
      <trkpt lat="48.01321" lon="-2.13586">
        <ele>102.71</ele>
        <time>2011-10-09T09:28:24Z</time>
      </trkpt>
      <trkpt lat="48.01342" lon="-2.13635">
        <ele>103.094</ele>
        <time>2011-10-09T09:28:29Z</time>
      </trkpt>
      <trkpt lat="48.01372" lon="-2.13711">
        <ele>104.195</ele>
        <time>2011-10-09T09:28:37Z</time>
      </trkpt>
      <trkpt lat="48.01382" lon="-2.13738">
        <ele>104.726</ele>
        <time>2011-10-09T09:28:40Z</time>
      </trkpt>
      <trkpt lat="48.01393" lon="-2.13804">
        <ele>105.901</ele>
        <time>2011-10-09T09:28:46Z</time>
      </trkpt>
      <trkpt lat="48.01395" lon="-2.13837">
        <ele>106.46</ele>
        <time>2011-10-09T09:28:49Z</time>
      </trkpt>
      <trkpt lat="48.01396" lon="-2.13886">
        <ele>107.425</ele>
        <time>2011-10-09T09:28:54Z</time>
      </trkpt>
      <trkpt lat="48.01397" lon="-2.13904">
        <ele>107.873</ele>
        <time>2011-10-09T09:28:56Z</time>
      </trkpt>
      <trkpt lat="48.01398" lon="-2.13988">
        <ele>109.971</ele>
        <time>2011-10-09T09:29:05Z</time>
      </trkpt>
      <trkpt lat="48.01398" lon="-2.13998">
        <ele>110.218</ele>
        <time>2011-10-09T09:29:06Z</time>
      </trkpt>
      <trkpt lat="48.01399" lon="-2.14034">
        <ele>111.052</ele>
        <time>2011-10-09T09:29:10Z</time>
      </trkpt>
      <trkpt lat="48.01397" lon="-2.14081">
        <ele>112.182</ele>
        <time>2011-10-09T09:29:15Z</time>
      </trkpt>
      <trkpt lat="48.01399" lon="-2.14124">
        <ele>113.366</ele>
        <time>2011-10-09T09:29:20Z</time>
      </trkpt>
      <trkpt lat="48.01397" lon="-2.14193">
        <ele>114.74</ele>
        <time>2011-10-09T09:29:27Z</time>
      </trkpt>
      <trkpt lat="48.01397" lon="-2.14235">
        <ele>115.536</ele>
        <time>2011-10-09T09:29:32Z</time>
      </trkpt>
      <trkpt lat="48.01396" lon="-2.14291">
        <ele>116.593</ele>
        <time>2011-10-09T09:29:39Z</time>
      </trkpt>
      <trkpt lat="48.01399" lon="-2.14338">
        <ele>116.869</ele>
        <time>2011-10-09T09:29:45Z</time>
      </trkpt>
      <trkpt lat="48.01399" lon="-2.14345">
        <ele>116.923</ele>
        <time>2011-10-09T09:29:46Z</time>
      </trkpt>
      <trkpt lat="48.01401" lon="-2.14395">
        <ele>117.26</ele>
        <time>2011-10-09T09:29:52Z</time>
      </trkpt>
      <trkpt lat="48.01402" lon="-2.14413">
        <ele>117.34</ele>
        <time>2011-10-09T09:29:54Z</time>
      </trkpt>
      <trkpt lat="48.01403" lon="-2.1446">
        <ele>117.997</ele>
        <time>2011-10-09T09:29:59Z</time>
      </trkpt>
      <trkpt lat="48.01405" lon="-2.14524">
        <ele>118.83</ele>
        <time>2011-10-09T09:30:06Z</time>
      </trkpt>
      <trkpt lat="48.01405" lon="-2.14572">
        <ele>119.203</ele>
        <time>2011-10-09T09:30:11Z</time>
      </trkpt>
      <trkpt lat="48.01406" lon="-2.14591">
        <ele>119.426</ele>
        <time>2011-10-09T09:30:13Z</time>
      </trkpt>
      <trkpt lat="48.01408" lon="-2.14657">
        <ele>120.017</ele>
        <time>2011-10-09T09:30:20Z</time>
      </trkpt>
      <trkpt lat="48.01408" lon="-2.14667">
        <ele>120.03</ele>
        <time>2011-10-09T09:30:21Z</time>
      </trkpt>
      <trkpt lat="48.01408" lon="-2.1473">
        <ele>120.318</ele>
        <time>2011-10-09T09:30:27Z</time>
      </trkpt>
      <trkpt lat="48.01407" lon="-2.14801">
        <ele>120.609</ele>
        <time>2011-10-09T09:30:33Z</time>
      </trkpt>
      <trkpt lat="48.01406" lon="-2.14858">
        <ele>120.309</ele>
        <time>2011-10-09T09:30:38Z</time>
      </trkpt>
      <trkpt lat="48.01408" lon="-2.14905">
        <ele>120.237</ele>
        <time>2011-10-09T09:30:42Z</time>
      </trkpt>
      <trkpt lat="48.01422" lon="-2.14965">
        <ele>120.11</ele>
        <time>2011-10-09T09:30:47Z</time>
      </trkpt>
      <trkpt lat="48.01441" lon="-2.15008">
        <ele>119.9</ele>
        <time>2011-10-09T09:30:51Z</time>
      </trkpt>
      <trkpt lat="48.01476" lon="-2.15089">
        <ele>119.459</ele>
        <time>2011-10-09T09:30:58Z</time>
      </trkpt>
      <trkpt lat="48.01512" lon="-2.15149">
        <ele>119.096</ele>
        <time>2011-10-09T09:31:04Z</time>
      </trkpt>
      <trkpt lat="48.01553" lon="-2.15221">
        <ele>118.5</ele>
        <time>2011-10-09T09:31:11Z</time>
      </trkpt>
      <trkpt lat="48.0157" lon="-2.15248">
        <ele>118.317</ele>
        <time>2011-10-09T09:31:14Z</time>
      </trkpt>
      <trkpt lat="48.01591" lon="-2.15283">
        <ele>118.835</ele>
        <time>2011-10-09T09:31:18Z</time>
      </trkpt>
      <trkpt lat="48.01626" lon="-2.15343">
        <ele>120.163</ele>
        <time>2011-10-09T09:31:25Z</time>
      </trkpt>
      <trkpt lat="48.01647" lon="-2.15375">
        <ele>120.711</ele>
        <time>2011-10-09T09:31:29Z</time>
      </trkpt>
      <trkpt lat="48.01686" lon="-2.15436">
        <ele>121.201</ele>
        <time>2011-10-09T09:31:36Z</time>
      </trkpt>
      <trkpt lat="48.01691" lon="-2.15444">
        <ele>121.297</ele>
        <time>2011-10-09T09:31:37Z</time>
      </trkpt>
      <trkpt lat="48.01721" lon="-2.15493">
        <ele>121.986</ele>
        <time>2011-10-09T09:31:43Z</time>
      </trkpt>
      <trkpt lat="48.01726" lon="-2.15501">
        <ele>122.148</ele>
        <time>2011-10-09T09:31:44Z</time>
      </trkpt>
      <trkpt lat="48.01736" lon="-2.15517">
        <ele>122.278</ele>
        <time>2011-10-09T09:31:46Z</time>
      </trkpt>
      <trkpt lat="48.01762" lon="-2.15571">
        <ele>122.553</ele>
        <time>2011-10-09T09:31:52Z</time>
      </trkpt>
      <trkpt lat="48.01766" lon="-2.15581">
        <ele>122.742</ele>
        <time>2011-10-09T09:31:53Z</time>
      </trkpt>
      <trkpt lat="48.01784" lon="-2.1563">
        <ele>123.416</ele>
        <time>2011-10-09T09:31:58Z</time>
      </trkpt>
      <trkpt lat="48.01806" lon="-2.15697">
        <ele>123.432</ele>
        <time>2011-10-09T09:32:04Z</time>
      </trkpt>
      <trkpt lat="48.01817" lon="-2.1573">
        <ele>123.264</ele>
        <time>2011-10-09T09:32:07Z</time>
      </trkpt>
      <trkpt lat="48.01827" lon="-2.15772">
        <ele>123.239</ele>
        <time>2011-10-09T09:32:11Z</time>
      </trkpt>
      <trkpt lat="48.01847" lon="-2.1583">
        <ele>123.413</ele>
        <time>2011-10-09T09:32:17Z</time>
      </trkpt>
      <trkpt lat="48.01869" lon="-2.15885">
        <ele>123.744</ele>
        <time>2011-10-09T09:32:23Z</time>
      </trkpt>
      <trkpt lat="48.01881" lon="-2.15921">
        <ele>123.955</ele>
        <time>2011-10-09T09:32:26Z</time>
      </trkpt>
      <trkpt lat="48.0189" lon="-2.1595">
        <ele>123.99</ele>
        <time>2011-10-09T09:32:29Z</time>
      </trkpt>
      <trkpt lat="48.01904" lon="-2.15994">
        <ele>123.783</ele>
        <time>2011-10-09T09:32:34Z</time>
      </trkpt>
      <trkpt lat="48.01914" lon="-2.16018">
        <ele>124.069</ele>
        <time>2011-10-09T09:32:37Z</time>
      </trkpt>
      <trkpt lat="48.0193" lon="-2.16061">
        <ele>124.544</ele>
        <time>2011-10-09T09:32:42Z</time>
      </trkpt>
      <trkpt lat="48.01942" lon="-2.16095">
        <ele>124.776</ele>
        <time>2011-10-09T09:32:46Z</time>
      </trkpt>
      <trkpt lat="48.01945" lon="-2.16106">
        <ele>124.806</ele>
        <time>2011-10-09T09:32:47Z</time>
      </trkpt>
      <trkpt lat="48.01954" lon="-2.16144">
        <ele>124.811</ele>
        <time>2011-10-09T09:32:51Z</time>
      </trkpt>
      <trkpt lat="48.0196" lon="-2.16165">
        <ele>124.497</ele>
        <time>2011-10-09T09:32:53Z</time>
      </trkpt>
      <trkpt lat="48.01982" lon="-2.16219">
        <ele>124.043</ele>
        <time>2011-10-09T09:32:59Z</time>
      </trkpt>
      <trkpt lat="48.02002" lon="-2.16278">
        <ele>123.499</ele>
        <time>2011-10-09T09:33:05Z</time>
      </trkpt>
      <trkpt lat="48.02019" lon="-2.16334">
        <ele>122.871</ele>
        <time>2011-10-09T09:33:10Z</time>
      </trkpt>
      <trkpt lat="48.02035" lon="-2.16391">
        <ele>122.021</ele>
        <time>2011-10-09T09:33:15Z</time>
      </trkpt>
      <trkpt lat="48.02038" lon="-2.16403">
        <ele>121.868</ele>
        <time>2011-10-09T09:33:16Z</time>
      </trkpt>
      <trkpt lat="48.02046" lon="-2.16479">
        <ele>120.905</ele>
        <time>2011-10-09T09:33:22Z</time>
      </trkpt>
      <trkpt lat="48.02046" lon="-2.16519">
        <ele>120.082</ele>
        <time>2011-10-09T09:33:25Z</time>
      </trkpt>
      <trkpt lat="48.02045" lon="-2.16621">
        <ele>117.558</ele>
        <time>2011-10-09T09:33:32Z</time>
      </trkpt>
      <trkpt lat="48.02054" lon="-2.16691">
        <ele>115.696</ele>
        <time>2011-10-09T09:33:37Z</time>
      </trkpt>
      <trkpt lat="48.02069" lon="-2.16771">
        <ele>113.676</ele>
        <time>2011-10-09T09:33:43Z</time>
      </trkpt>
      <trkpt lat="48.02083" lon="-2.16848">
        <ele>110.871</ele>
        <time>2011-10-09T09:33:49Z</time>
      </trkpt>
      <trkpt lat="48.02096" lon="-2.16912">
        <ele>110.424</ele>
        <time>2011-10-09T09:33:55Z</time>
      </trkpt>
      <trkpt lat="48.02108" lon="-2.1696">
        <ele>111.7</ele>
        <time>2011-10-09T09:34:01Z</time>
      </trkpt>
      <trkpt lat="48.02116" lon="-2.17001">
        <ele>112.7</ele>
        <time>2011-10-09T09:34:07Z</time>
      </trkpt>
      <trkpt lat="48.02124" lon="-2.17043">
        <ele>114.714</ele>
        <time>2011-10-09T09:34:14Z</time>
      </trkpt>
      <trkpt lat="48.02131" lon="-2.1707">
        <ele>115.85</ele>
        <time>2011-10-09T09:34:19Z</time>
      </trkpt>
      <trkpt lat="48.02137" lon="-2.17094">
        <ele>116.574</ele>
        <time>2011-10-09T09:34:23Z</time>
      </trkpt>
      <trkpt lat="48.02149" lon="-2.17131">
        <ele>117.891</ele>
        <time>2011-10-09T09:34:30Z</time>
      </trkpt>
      <trkpt lat="48.02157" lon="-2.17144">
        <ele>118.566</ele>
        <time>2011-10-09T09:34:33Z</time>
      </trkpt>
      <trkpt lat="48.02171" lon="-2.17159">
        <ele>119.789</ele>
        <time>2011-10-09T09:34:37Z</time>
      </trkpt>
      <trkpt lat="48.02198" lon="-2.1718">
        <ele>121.41</ele>
        <time>2011-10-09T09:34:44Z</time>
      </trkpt>
      <trkpt lat="48.02229" lon="-2.17196">
        <ele>123.523</ele>
        <time>2011-10-09T09:34:51Z</time>
      </trkpt>
      <trkpt lat="48.02269" lon="-2.17211">
        <ele>125.092</ele>
        <time>2011-10-09T09:34:59Z</time>
      </trkpt>
      <trkpt lat="48.02312" lon="-2.17227">
        <ele>125.498</ele>
        <time>2011-10-09T09:35:07Z</time>
      </trkpt>
      <trkpt lat="48.02371" lon="-2.1725">
        <ele>125.927</ele>
        <time>2011-10-09T09:35:18Z</time>
      </trkpt>
      <trkpt lat="48.02424" lon="-2.17269">
        <ele>126.137</ele>
        <time>2011-10-09T09:35:28Z</time>
      </trkpt>
      <trkpt lat="48.02471" lon="-2.17287">
        <ele>125.475</ele>
        <time>2011-10-09T09:35:37Z</time>
      </trkpt>
      <trkpt lat="48.02518" lon="-2.17304">
        <ele>126.191</ele>
        <time>2011-10-09T09:35:46Z</time>
      </trkpt>
      <trkpt lat="48.02545" lon="-2.17317">
        <ele>126.685</ele>
        <time>2011-10-09T09:35:53Z</time>
      </trkpt>
      <trkpt lat="48.02551" lon="-2.17323">
        <ele>127.077</ele>
        <time>2011-10-09T09:35:55Z</time>
      </trkpt>
      <trkpt lat="48.02557" lon="-2.17333">
        <ele>127.153</ele>
        <time>2011-10-09T09:35:57Z</time>
      </trkpt>
      <trkpt lat="48.02562" lon="-2.17345">
        <ele>127.279</ele>
        <time>2011-10-09T09:35:59Z</time>
      </trkpt>
      <trkpt lat="48.02591" lon="-2.17395">
        <ele>127.802</ele>
        <time>2011-10-09T09:36:07Z</time>
      </trkpt>
      <trkpt lat="48.0261" lon="-2.17428">
        <ele>127.963</ele>
        <time>2011-10-09T09:36:12Z</time>
      </trkpt>
      <trkpt lat="48.02649" lon="-2.17496">
        <ele>129.011</ele>
        <time>2011-10-09T09:36:22Z</time>
      </trkpt>
      <trkpt lat="48.02679" lon="-2.17551">
        <ele>129.997</ele>
        <time>2011-10-09T09:36:30Z</time>
      </trkpt>
      <trkpt lat="48.0271" lon="-2.17608">
        <ele>129.593</ele>
        <time>2011-10-09T09:36:38Z</time>
      </trkpt>
      <trkpt lat="48.02735" lon="-2.17649">
        <ele>130.386</ele>
        <time>2011-10-09T09:36:44Z</time>
      </trkpt>
      <trkpt lat="48.02759" lon="-2.17692">
        <ele>130.716</ele>
        <time>2011-10-09T09:36:50Z</time>
      </trkpt>
      <trkpt lat="48.02768" lon="-2.17705">
        <ele>130.754</ele>
        <time>2011-10-09T09:36:52Z</time>
      </trkpt>
      <trkpt lat="48.02785" lon="-2.17734">
        <ele>130.903</ele>
        <time>2011-10-09T09:36:56Z</time>
      </trkpt>
      <trkpt lat="48.02798" lon="-2.17757">
        <ele>130.991</ele>
        <time>2011-10-09T09:36:59Z</time>
      </trkpt>
      <trkpt lat="48.02818" lon="-2.17796">
        <ele>130.839</ele>
        <time>2011-10-09T09:37:04Z</time>
      </trkpt>
      <trkpt lat="48.02826" lon="-2.17812">
        <ele>130.828</ele>
        <time>2011-10-09T09:37:06Z</time>
      </trkpt>
      <trkpt lat="48.02853" lon="-2.17863">
        <ele>130.747</ele>
        <time>2011-10-09T09:37:13Z</time>
      </trkpt>
      <trkpt lat="48.02879" lon="-2.17908">
        <ele>130.741</ele>
        <time>2011-10-09T09:37:19Z</time>
      </trkpt>
      <trkpt lat="48.02912" lon="-2.17971">
        <ele>130.123</ele>
        <time>2011-10-09T09:37:26Z</time>
      </trkpt>
      <trkpt lat="48.02952" lon="-2.18045">
        <ele>129.044</ele>
        <time>2011-10-09T09:37:34Z</time>
      </trkpt>
      <trkpt lat="48.0298" lon="-2.18096">
        <ele>128.578</ele>
        <time>2011-10-09T09:37:40Z</time>
      </trkpt>
      <trkpt lat="48.02993" lon="-2.18122">
        <ele>128.679</ele>
        <time>2011-10-09T09:37:43Z</time>
      </trkpt>
      <trkpt lat="48.03024" lon="-2.18188">
        <ele>129.33</ele>
        <time>2011-10-09T09:37:51Z</time>
      </trkpt>
      <trkpt lat="48.03038" lon="-2.18224">
        <ele>129.629</ele>
        <time>2011-10-09T09:37:55Z</time>
      </trkpt>
      <trkpt lat="48.03067" lon="-2.18275">
        <ele>130.718</ele>
        <time>2011-10-09T09:38:02Z</time>
      </trkpt>
      <trkpt lat="48.03095" lon="-2.18325">
        <ele>131.828</ele>
        <time>2011-10-09T09:38:09Z</time>
      </trkpt>
      <trkpt lat="48.03128" lon="-2.18395">
        <ele>132.223</ele>
        <time>2011-10-09T09:38:18Z</time>
      </trkpt>
      <trkpt lat="48.03132" lon="-2.18402">
        <ele>132.119</ele>
        <time>2011-10-09T09:38:19Z</time>
      </trkpt>
      <trkpt lat="48.03154" lon="-2.18447">
        <ele>132.26</ele>
        <time>2011-10-09T09:38:25Z</time>
      </trkpt>
      <trkpt lat="48.03169" lon="-2.18477">
        <ele>132.979</ele>
        <time>2011-10-09T09:38:29Z</time>
      </trkpt>
      <trkpt lat="48.03197" lon="-2.18529">
        <ele>133.112</ele>
        <time>2011-10-09T09:38:36Z</time>
      </trkpt>
      <trkpt lat="48.03225" lon="-2.18582">
        <ele>133.278</ele>
        <time>2011-10-09T09:38:43Z</time>
      </trkpt>
      <trkpt lat="48.03245" lon="-2.18621">
        <ele>133.422</ele>
        <time>2011-10-09T09:38:48Z</time>
      </trkpt>
      <trkpt lat="48.03281" lon="-2.18678">
        <ele>134.006</ele>
        <time>2011-10-09T09:38:56Z</time>
      </trkpt>
      <trkpt lat="48.03305" lon="-2.1873">
        <ele>135.312</ele>
        <time>2011-10-09T09:39:03Z</time>
      </trkpt>
      <trkpt lat="48.0331" lon="-2.18746">
        <ele>135.609</ele>
        <time>2011-10-09T09:39:05Z</time>
      </trkpt>
      <trkpt lat="48.03335" lon="-2.18799">
        <ele>137.203</ele>
        <time>2011-10-09T09:39:13Z</time>
      </trkpt>
      <trkpt lat="48.0335" lon="-2.18828">
        <ele>138.538</ele>
        <time>2011-10-09T09:39:18Z</time>
      </trkpt>
      <trkpt lat="48.03369" lon="-2.18864">
        <ele>139.07</ele>
        <time>2011-10-09T09:39:24Z</time>
      </trkpt>
      <trkpt lat="48.03392" lon="-2.18908">
        <ele>139.729</ele>
        <time>2011-10-09T09:39:31Z</time>
      </trkpt>
      <trkpt lat="48.03414" lon="-2.18954">
        <ele>140.826</ele>
        <time>2011-10-09T09:39:38Z</time>
      </trkpt>
      <trkpt lat="48.03438" lon="-2.18999">
        <ele>141.456</ele>
        <time>2011-10-09T09:39:45Z</time>
      </trkpt>
      <trkpt lat="48.03464" lon="-2.1905">
        <ele>142.875</ele>
        <time>2011-10-09T09:39:53Z</time>
      </trkpt>
      <trkpt lat="48.03471" lon="-2.19062">
        <ele>143.227</ele>
        <time>2011-10-09T09:39:55Z</time>
      </trkpt>
      <trkpt lat="48.03492" lon="-2.19105">
        <ele>143.866</ele>
        <time>2011-10-09T09:40:02Z</time>
      </trkpt>
      <trkpt lat="48.03513" lon="-2.19145">
        <ele>144.977</ele>
        <time>2011-10-09T09:40:09Z</time>
      </trkpt>
      <trkpt lat="48.03535" lon="-2.19187">
        <ele>146.002</ele>
        <time>2011-10-09T09:40:17Z</time>
      </trkpt>
      <trkpt lat="48.03557" lon="-2.19231">
        <ele>147.216</ele>
        <time>2011-10-09T09:40:25Z</time>
      </trkpt>
      <trkpt lat="48.03572" lon="-2.1926">
        <ele>148.074</ele>
        <time>2011-10-09T09:40:30Z</time>
      </trkpt>
      <trkpt lat="48.03598" lon="-2.19298">
        <ele>149.32</ele>
        <time>2011-10-09T09:40:38Z</time>
      </trkpt>
      <trkpt lat="48.03623" lon="-2.19312">
        <ele>150.639</ele>
        <time>2011-10-09T09:40:44Z</time>
      </trkpt>
      <trkpt lat="48.03649" lon="-2.19321">
        <ele>151.096</ele>
        <time>2011-10-09T09:40:50Z</time>
      </trkpt>
      <trkpt lat="48.03693" lon="-2.1933">
        <ele>150.718</ele>
        <time>2011-10-09T09:40:59Z</time>
      </trkpt>
      <trkpt lat="48.03739" lon="-2.1934">
        <ele>150.313</ele>
        <time>2011-10-09T09:41:07Z</time>
      </trkpt>
      <trkpt lat="48.03786" lon="-2.1936">
        <ele>149.237</ele>
        <time>2011-10-09T09:41:14Z</time>
      </trkpt>
      <trkpt lat="48.03835" lon="-2.19385">
        <ele>147.045</ele>
        <time>2011-10-09T09:41:20Z</time>
      </trkpt>
      <trkpt lat="48.0387" lon="-2.19403">
        <ele>145.282</ele>
        <time>2011-10-09T09:41:24Z</time>
      </trkpt>
      <trkpt lat="48.0391" lon="-2.19442">
        <ele>142.945</ele>
        <time>2011-10-09T09:41:29Z</time>
      </trkpt>
      <trkpt lat="48.03944" lon="-2.19494">
        <ele>140.069</ele>
        <time>2011-10-09T09:41:34Z</time>
      </trkpt>
      <trkpt lat="48.03966" lon="-2.19555">
        <ele>138.046</ele>
        <time>2011-10-09T09:41:39Z</time>
      </trkpt>
      <trkpt lat="48.03996" lon="-2.19652">
        <ele>136.581</ele>
        <time>2011-10-09T09:41:47Z</time>
      </trkpt>
      <trkpt lat="48.04019" lon="-2.1974">
        <ele>135.974</ele>
        <time>2011-10-09T09:41:54Z</time>
      </trkpt>
      <trkpt lat="48.04032" lon="-2.19828">
        <ele>134.504</ele>
        <time>2011-10-09T09:42:01Z</time>
      </trkpt>
      <trkpt lat="48.0405" lon="-2.19974">
        <ele>132.689</ele>
        <time>2011-10-09T09:42:12Z</time>
      </trkpt>
      <trkpt lat="48.04061" lon="-2.20073">
        <ele>133.248</ele>
        <time>2011-10-09T09:42:20Z</time>
      </trkpt>
      <trkpt lat="48.04066" lon="-2.20156">
        <ele>133.778</ele>
        <time>2011-10-09T09:42:27Z</time>
      </trkpt>
      <trkpt lat="48.04073" lon="-2.20259">
        <ele>133.529</ele>
        <time>2011-10-09T09:42:36Z</time>
      </trkpt>
      <trkpt lat="48.04086" lon="-2.20328">
        <ele>132.829</ele>
        <time>2011-10-09T09:42:42Z</time>
      </trkpt>
      <trkpt lat="48.04103" lon="-2.20418">
        <ele>133.487</ele>
        <time>2011-10-09T09:42:50Z</time>
      </trkpt>
      <trkpt lat="48.04117" lon="-2.20486">
        <ele>133.982</ele>
        <time>2011-10-09T09:42:56Z</time>
      </trkpt>
      <trkpt lat="48.04141" lon="-2.20574">
        <ele>134.165</ele>
        <time>2011-10-09T09:43:04Z</time>
      </trkpt>
      <trkpt lat="48.04166" lon="-2.20661">
        <ele>133.662</ele>
        <time>2011-10-09T09:43:12Z</time>
      </trkpt>
      <trkpt lat="48.04189" lon="-2.20738">
        <ele>133.913</ele>
        <time>2011-10-09T09:43:19Z</time>
      </trkpt>
      <trkpt lat="48.04214" lon="-2.208">
        <ele>134.261</ele>
        <time>2011-10-09T09:43:25Z</time>
      </trkpt>
      <trkpt lat="48.04248" lon="-2.20885">
        <ele>133.744</ele>
        <time>2011-10-09T09:43:33Z</time>
      </trkpt>
      <trkpt lat="48.04276" lon="-2.20951">
        <ele>132.185</ele>
        <time>2011-10-09T09:43:39Z</time>
      </trkpt>
      <trkpt lat="48.04307" lon="-2.21016">
        <ele>130.502</ele>
        <time>2011-10-09T09:43:45Z</time>
      </trkpt>
      <trkpt lat="48.04332" lon="-2.21094">
        <ele>128.537</ele>
        <time>2011-10-09T09:43:51Z</time>
      </trkpt>
      <trkpt lat="48.04355" lon="-2.21179">
        <ele>125.815</ele>
        <time>2011-10-09T09:43:57Z</time>
      </trkpt>
      <trkpt lat="48.04373" lon="-2.21253">
        <ele>123.178</ele>
        <time>2011-10-09T09:44:02Z</time>
      </trkpt>
      <trkpt lat="48.04391" lon="-2.21323">
        <ele>121.063</ele>
        <time>2011-10-09T09:44:07Z</time>
      </trkpt>
      <trkpt lat="48.04415" lon="-2.21391">
        <ele>119.386</ele>
        <time>2011-10-09T09:44:13Z</time>
      </trkpt>
      <trkpt lat="48.04436" lon="-2.21469">
        <ele>118.744</ele>
        <time>2011-10-09T09:44:20Z</time>
      </trkpt>
      <trkpt lat="48.04448" lon="-2.21515">
        <ele>118.331</ele>
        <time>2011-10-09T09:44:24Z</time>
      </trkpt>
      <trkpt lat="48.04477" lon="-2.21561">
        <ele>117.177</ele>
        <time>2011-10-09T09:44:29Z</time>
      </trkpt>
      <trkpt lat="48.04544" lon="-2.21629">
        <ele>114.467</ele>
        <time>2011-10-09T09:44:38Z</time>
      </trkpt>
      <trkpt lat="48.04575" lon="-2.21652">
        <ele>113.061</ele>
        <time>2011-10-09T09:44:42Z</time>
      </trkpt>
      <trkpt lat="48.04626" lon="-2.21667">
        <ele>111.487</ele>
        <time>2011-10-09T09:44:48Z</time>
      </trkpt>
      <trkpt lat="48.04678" lon="-2.2168">
        <ele>109.27</ele>
        <time>2011-10-09T09:44:54Z</time>
      </trkpt>
      <trkpt lat="48.04752" lon="-2.217">
        <ele>106.099</ele>
        <time>2011-10-09T09:45:02Z</time>
      </trkpt>
      <trkpt lat="48.04819" lon="-2.21712">
        <ele>102.703</ele>
        <time>2011-10-09T09:45:09Z</time>
      </trkpt>
      <trkpt lat="48.04896" lon="-2.21727">
        <ele>98.039</ele>
        <time>2011-10-09T09:45:17Z</time>
      </trkpt>
      <trkpt lat="48.04978" lon="-2.21757">
        <ele>95.686</ele>
        <time>2011-10-09T09:45:26Z</time>
      </trkpt>
      <trkpt lat="48.0503" lon="-2.21784">
        <ele>94.104</ele>
        <time>2011-10-09T09:45:32Z</time>
      </trkpt>
      <trkpt lat="48.05078" lon="-2.21828">
        <ele>91.634</ele>
        <time>2011-10-09T09:45:38Z</time>
      </trkpt>
      <trkpt lat="48.05135" lon="-2.21892">
        <ele>86.883</ele>
        <time>2011-10-09T09:45:45Z</time>
      </trkpt>
      <trkpt lat="48.05153" lon="-2.2191">
        <ele>86.036</ele>
        <time>2011-10-09T09:45:47Z</time>
      </trkpt>
      <trkpt lat="48.05161" lon="-2.21919">
        <ele>85.358</ele>
        <time>2011-10-09T09:45:48Z</time>
      </trkpt>
      <trkpt lat="48.052" lon="-2.21939">
        <ele>81.483</ele>
        <time>2011-10-09T09:45:52Z</time>
      </trkpt>
      <trkpt lat="48.05232" lon="-2.2195">
        <ele>78.269</ele>
        <time>2011-10-09T09:45:55Z</time>
      </trkpt>
      <trkpt lat="48.05269" lon="-2.21983">
        <ele>75.042</ele>
        <time>2011-10-09T09:45:59Z</time>
      </trkpt>
      <trkpt lat="48.05296" lon="-2.22011">
        <ele>73.286</ele>
        <time>2011-10-09T09:46:02Z</time>
      </trkpt>
      <trkpt lat="48.05353" lon="-2.2205">
        <ele>69.778</ele>
        <time>2011-10-09T09:46:08Z</time>
      </trkpt>
      <trkpt lat="48.054" lon="-2.22092">
        <ele>68.386</ele>
        <time>2011-10-09T09:46:14Z</time>
      </trkpt>
      <trkpt lat="48.05408" lon="-2.22098">
        <ele>68.125</ele>
        <time>2011-10-09T09:46:15Z</time>
      </trkpt>
      <trkpt lat="48.05451" lon="-2.22111">
        <ele>67.122</ele>
        <time>2011-10-09T09:46:20Z</time>
      </trkpt>
      <trkpt lat="48.05508" lon="-2.2212">
        <ele>65.017</ele>
        <time>2011-10-09T09:46:26Z</time>
      </trkpt>
      <trkpt lat="48.05607" lon="-2.22133">
        <ele>60.286</ele>
        <time>2011-10-09T09:46:36Z</time>
      </trkpt>
      <trkpt lat="48.05615" lon="-2.22135">
        <ele>60.117</ele>
        <time>2011-10-09T09:46:37Z</time>
      </trkpt>
      <trkpt lat="48.05647" lon="-2.22156">
        <ele>59.317</ele>
        <time>2011-10-09T09:46:41Z</time>
      </trkpt>
      <trkpt lat="48.05653" lon="-2.22165">
        <ele>59.092</ele>
        <time>2011-10-09T09:46:42Z</time>
      </trkpt>
      <trkpt lat="48.05713" lon="-2.22247">
        <ele>56.327</ele>
        <time>2011-10-09T09:46:51Z</time>
      </trkpt>
      <trkpt lat="48.05754" lon="-2.22275">
        <ele>55.306</ele>
        <time>2011-10-09T09:46:56Z</time>
      </trkpt>
      <trkpt lat="48.05812" lon="-2.22292">
        <ele>54.698</ele>
        <time>2011-10-09T09:47:03Z</time>
      </trkpt>
      <trkpt lat="48.05862" lon="-2.22298">
        <ele>53.809</ele>
        <time>2011-10-09T09:47:09Z</time>
      </trkpt>
      <trkpt lat="48.05892" lon="-2.22304">
        <ele>53.181</ele>
        <time>2011-10-09T09:47:13Z</time>
      </trkpt>
      <trkpt lat="48.05905" lon="-2.22323">
        <ele>52.538</ele>
        <time>2011-10-09T09:47:17Z</time>
      </trkpt>
      <trkpt lat="48.05901" lon="-2.22344">
        <ele>52.064</ele>
        <time>2011-10-09T09:47:20Z</time>
      </trkpt>
      <trkpt lat="48.05885" lon="-2.22405">
        <ele>51.846</ele>
        <time>2011-10-09T09:47:27Z</time>
      </trkpt>
      <trkpt lat="48.05876" lon="-2.22476">
        <ele>52.301</ele>
        <time>2011-10-09T09:47:34Z</time>
      </trkpt>
      <trkpt lat="48.0587" lon="-2.22553">
        <ele>52.553</ele>
        <time>2011-10-09T09:47:42Z</time>
      </trkpt>
      <trkpt lat="48.05863" lon="-2.22639">
        <ele>52.837</ele>
        <time>2011-10-09T09:47:51Z</time>
      </trkpt>
      <trkpt lat="48.05856" lon="-2.22723">
        <ele>53.062</ele>
        <time>2011-10-09T09:48:00Z</time>
      </trkpt>
      <trkpt lat="48.0585" lon="-2.22799">
        <ele>53.775</ele>
        <time>2011-10-09T09:48:08Z</time>
      </trkpt>
      <trkpt lat="48.05843" lon="-2.2288">
        <ele>55.248</ele>
        <time>2011-10-09T09:48:17Z</time>
      </trkpt>
      <trkpt lat="48.05838" lon="-2.22955">
        <ele>56.383</ele>
        <time>2011-10-09T09:48:26Z</time>
      </trkpt>
      <trkpt lat="48.05831" lon="-2.23038">
        <ele>57.534</ele>
        <time>2011-10-09T09:48:36Z</time>
      </trkpt>
      <trkpt lat="48.05826" lon="-2.23114">
        <ele>58.128</ele>
        <time>2011-10-09T09:48:45Z</time>
      </trkpt>
      <trkpt lat="48.05821" lon="-2.23183">
        <ele>58.621</ele>
        <time>2011-10-09T09:48:53Z</time>
      </trkpt>
      <trkpt lat="48.05815" lon="-2.23267">
        <ele>58.213</ele>
        <time>2011-10-09T09:49:02Z</time>
      </trkpt>
      <trkpt lat="48.05808" lon="-2.2337">
        <ele>56.884</ele>
        <time>2011-10-09T09:49:12Z</time>
      </trkpt>
      <trkpt lat="48.05803" lon="-2.23445">
        <ele>56.636</ele>
        <time>2011-10-09T09:49:20Z</time>
      </trkpt>
      <trkpt lat="48.05797" lon="-2.23535">
        <ele>57.255</ele>
        <time>2011-10-09T09:49:30Z</time>
      </trkpt>
      <trkpt lat="48.05791" lon="-2.23616">
        <ele>57.618</ele>
        <time>2011-10-09T09:49:39Z</time>
      </trkpt>
      <trkpt lat="48.05786" lon="-2.23696">
        <ele>58.274</ele>
        <time>2011-10-09T09:49:48Z</time>
      </trkpt>
      <trkpt lat="48.05784" lon="-2.2374">
        <ele>58.581</ele>
        <time>2011-10-09T09:49:53Z</time>
      </trkpt>
      <trkpt lat="48.05793" lon="-2.238">
        <ele>59.067</ele>
        <time>2011-10-09T09:50:00Z</time>
      </trkpt>
      <trkpt lat="48.05807" lon="-2.23864">
        <ele>59.432</ele>
        <time>2011-10-09T09:50:08Z</time>
      </trkpt>
      <trkpt lat="48.05824" lon="-2.23939">
        <ele>59.727</ele>
        <time>2011-10-09T09:50:17Z</time>
      </trkpt>
      <trkpt lat="48.05842" lon="-2.24014">
        <ele>58.597</ele>
        <time>2011-10-09T09:50:26Z</time>
      </trkpt>
      <trkpt lat="48.05853" lon="-2.24075">
        <ele>58.157</ele>
        <time>2011-10-09T09:50:33Z</time>
      </trkpt>
      <trkpt lat="48.05858" lon="-2.24136">
        <ele>58.178</ele>
        <time>2011-10-09T09:50:40Z</time>
      </trkpt>
      <trkpt lat="48.0586" lon="-2.24217">
        <ele>58.661</ele>
        <time>2011-10-09T09:50:49Z</time>
      </trkpt>
      <trkpt lat="48.0586" lon="-2.24303">
        <ele>58.694</ele>
        <time>2011-10-09T09:50:59Z</time>
      </trkpt>
      <trkpt lat="48.05861" lon="-2.24389">
        <ele>59.627</ele>
        <time>2011-10-09T09:51:09Z</time>
      </trkpt>
      <trkpt lat="48.05861" lon="-2.24468">
        <ele>59.903</ele>
        <time>2011-10-09T09:51:18Z</time>
      </trkpt>
      <trkpt lat="48.05862" lon="-2.24547">
        <ele>60.464</ele>
        <time>2011-10-09T09:51:27Z</time>
      </trkpt>
      <trkpt lat="48.05859" lon="-2.24617">
        <ele>60.796</ele>
        <time>2011-10-09T09:51:35Z</time>
      </trkpt>
      <trkpt lat="48.05849" lon="-2.24676">
        <ele>61.277</ele>
        <time>2011-10-09T09:51:42Z</time>
      </trkpt>
      <trkpt lat="48.05832" lon="-2.2473">
        <ele>61.635</ele>
        <time>2011-10-09T09:51:49Z</time>
      </trkpt>
      <trkpt lat="48.05816" lon="-2.24774">
        <ele>62.078</ele>
        <time>2011-10-09T09:51:55Z</time>
      </trkpt>
      <trkpt lat="48.05797" lon="-2.24827">
        <ele>63.095</ele>
        <time>2011-10-09T09:52:02Z</time>
      </trkpt>
      <trkpt lat="48.05778" lon="-2.24882">
        <ele>63.586</ele>
        <time>2011-10-09T09:52:09Z</time>
      </trkpt>
      <trkpt lat="48.05764" lon="-2.24937">
        <ele>64.683</ele>
        <time>2011-10-09T09:52:16Z</time>
      </trkpt>
      <trkpt lat="48.05756" lon="-2.24988">
        <ele>65.354</ele>
        <time>2011-10-09T09:52:22Z</time>
      </trkpt>
      <trkpt lat="48.05751" lon="-2.25047">
        <ele>66.274</ele>
        <time>2011-10-09T09:52:29Z</time>
      </trkpt>
      <trkpt lat="48.05745" lon="-2.25123">
        <ele>67.152</ele>
        <time>2011-10-09T09:52:38Z</time>
      </trkpt>
      <trkpt lat="48.05741" lon="-2.25177">
        <ele>68.496</ele>
        <time>2011-10-09T09:52:45Z</time>
      </trkpt>
      <trkpt lat="48.05736" lon="-2.25221">
        <ele>69.332</ele>
        <time>2011-10-09T09:52:51Z</time>
      </trkpt>
      <trkpt lat="48.0572" lon="-2.25299">
        <ele>70.304</ele>
        <time>2011-10-09T09:53:02Z</time>
      </trkpt>
      <trkpt lat="48.05718" lon="-2.25305">
        <ele>70.425</ele>
        <time>2011-10-09T09:53:03Z</time>
      </trkpt>
      <trkpt lat="48.05711" lon="-2.25325">
        <ele>71.502</ele>
        <time>2011-10-09T09:53:06Z</time>
      </trkpt>
      <trkpt lat="48.05685" lon="-2.25381">
        <ele>73.221</ele>
        <time>2011-10-09T09:53:16Z</time>
      </trkpt>
      <trkpt lat="48.05678" lon="-2.25391">
        <ele>73.837</ele>
        <time>2011-10-09T09:53:18Z</time>
      </trkpt>
      <trkpt lat="48.05665" lon="-2.25409">
        <ele>74.844</ele>
        <time>2011-10-09T09:53:22Z</time>
      </trkpt>
      <trkpt lat="48.07602" lon="-2.27413">
        <ele>44.334</ele>
        <time>2011-10-09T09:59:34Z</time>
      </trkpt>
      <trkpt lat="48.07633" lon="-2.27434">
        <ele>44.507</ele>
        <time>2011-10-09T09:59:41Z</time>
      </trkpt>
      <trkpt lat="48.07681" lon="-2.27461">
        <ele>44.944</ele>
        <time>2011-10-09T09:59:50Z</time>
      </trkpt>
      <trkpt lat="48.07733" lon="-2.27491">
        <ele>45.166</ele>
        <time>2011-10-09T09:59:59Z</time>
      </trkpt>
      <trkpt lat="48.07782" lon="-2.2752">
        <ele>45.065</ele>
        <time>2011-10-09T10:00:07Z</time>
      </trkpt>
      <trkpt lat="48.07827" lon="-2.27544">
        <ele>44.39</ele>
        <time>2011-10-09T10:00:14Z</time>
      </trkpt>
      <trkpt lat="48.07861" lon="-2.27549">
        <ele>43.895</ele>
        <time>2011-10-09T10:00:19Z</time>
      </trkpt>
      <trkpt lat="48.07904" lon="-2.27545">
        <ele>43.153</ele>
        <time>2011-10-09T10:00:25Z</time>
      </trkpt>
      <trkpt lat="48.07953" lon="-2.2754">
        <ele>42.436</ele>
        <time>2011-10-09T10:00:32Z</time>
      </trkpt>
      <trkpt lat="48.07973" lon="-2.2753">
        <ele>42.225</ele>
        <time>2011-10-09T10:00:35Z</time>
      </trkpt>
      <trkpt lat="48.08021" lon="-2.27485">
        <ele>43.008</ele>
        <time>2011-10-09T10:00:43Z</time>
      </trkpt>
      <trkpt lat="48.08061" lon="-2.27452">
        <ele>43.208</ele>
        <time>2011-10-09T10:00:50Z</time>
      </trkpt>
      <trkpt lat="48.08094" lon="-2.2744">
        <ele>43.206</ele>
        <time>2011-10-09T10:00:55Z</time>
      </trkpt>
      <trkpt lat="48.08152" lon="-2.27427">
        <ele>43.362</ele>
        <time>2011-10-09T10:01:04Z</time>
      </trkpt>
      <trkpt lat="48.08177" lon="-2.27427">
        <ele>43.257</ele>
        <time>2011-10-09T10:01:08Z</time>
      </trkpt>
      <trkpt lat="48.08197" lon="-2.2744">
        <ele>43.827</ele>
        <time>2011-10-09T10:01:12Z</time>
      </trkpt>
      <trkpt lat="48.08216" lon="-2.27466">
        <ele>45.92</ele>
        <time>2011-10-09T10:01:18Z</time>
      </trkpt>
      <trkpt lat="48.08237" lon="-2.27507">
        <ele>47.407</ele>
        <time>2011-10-09T10:01:26Z</time>
      </trkpt>
      <trkpt lat="48.08238" lon="-2.2753">
        <ele>48.257</ele>
        <time>2011-10-09T10:01:30Z</time>
      </trkpt>
      <trkpt lat="48.08227" lon="-2.27575">
        <ele>49.85</ele>
        <time>2011-10-09T10:01:38Z</time>
      </trkpt>
      <trkpt lat="48.08219" lon="-2.27616">
        <ele>51.326</ele>
        <time>2011-10-09T10:01:45Z</time>
      </trkpt>
      <trkpt lat="48.08206" lon="-2.27665">
        <ele>52.673</ele>
        <time>2011-10-09T10:01:53Z</time>
      </trkpt>
      <trkpt lat="48.08198" lon="-2.277">
        <ele>53.277</ele>
        <time>2011-10-09T10:02:00Z</time>
      </trkpt>
      <trkpt lat="48.08198" lon="-2.277">
        <ele>53.286</ele>
        <time>2011-10-09T10:02:02Z</time>
      </trkpt>
      <trkpt lat="48.08195" lon="-2.27707">
        <ele>53.939</ele>
        <time>2011-10-09T10:02:29Z</time>
      </trkpt>
      <trkpt lat="48.08191" lon="-2.27724">
        <ele>54.364</ele>
        <time>2011-10-09T10:02:33Z</time>
      </trkpt>
      <trkpt lat="48.08181" lon="-2.27765">
        <ele>54.629</ele>
        <time>2011-10-09T10:02:39Z</time>
      </trkpt>
      <trkpt lat="48.08164" lon="-2.27819">
        <ele>55.605</ele>
        <time>2011-10-09T10:02:46Z</time>
      </trkpt>
      <trkpt lat="48.08161" lon="-2.27826">
        <ele>55.95</ele>
        <time>2011-10-09T10:02:47Z</time>
      </trkpt>
      <trkpt lat="48.08144" lon="-2.27879">
        <ele>57.55</ele>
        <time>2011-10-09T10:02:54Z</time>
      </trkpt>
      <trkpt lat="48.08126" lon="-2.27946">
        <ele>58.188</ele>
        <time>2011-10-09T10:03:02Z</time>
      </trkpt>
      <trkpt lat="48.08116" lon="-2.27988">
        <ele>57.797</ele>
        <time>2011-10-09T10:03:07Z</time>
      </trkpt>
      <trkpt lat="48.08119" lon="-2.28038">
        <ele>56.888</ele>
        <time>2011-10-09T10:03:13Z</time>
      </trkpt>
      <trkpt lat="48.08133" lon="-2.28102">
        <ele>56.722</ele>
        <time>2011-10-09T10:03:22Z</time>
      </trkpt>
      <trkpt lat="48.08134" lon="-2.28144">
        <ele>56.931</ele>
        <time>2011-10-09T10:03:28Z</time>
      </trkpt>
      <trkpt lat="48.08126" lon="-2.28199">
        <ele>58.062</ele>
        <time>2011-10-09T10:03:36Z</time>
      </trkpt>
      <trkpt lat="48.08121" lon="-2.2824">
        <ele>59.25</ele>
        <time>2011-10-09T10:03:42Z</time>
      </trkpt>
      <trkpt lat="48.08119" lon="-2.28274">
        <ele>60.055</ele>
        <time>2011-10-09T10:03:47Z</time>
      </trkpt>
      <trkpt lat="48.08128" lon="-2.28321">
        <ele>60.471</ele>
        <time>2011-10-09T10:03:54Z</time>
      </trkpt>
      <trkpt lat="48.08145" lon="-2.28356">
        <ele>60.991</ele>
        <time>2011-10-09T10:04:00Z</time>
      </trkpt>
      <trkpt lat="48.08149" lon="-2.28359">
        <ele>61.197</ele>
        <time>2011-10-09T10:04:01Z</time>
      </trkpt>
      <trkpt lat="48.08169" lon="-2.28386">
        <ele>62.601</ele>
        <time>2011-10-09T10:04:07Z</time>
      </trkpt>
      <trkpt lat="48.08171" lon="-2.28406">
        <ele>63.178</ele>
        <time>2011-10-09T10:04:10Z</time>
      </trkpt>
      <trkpt lat="48.08175" lon="-2.28439">
        <ele>64.023</ele>
        <time>2011-10-09T10:04:16Z</time>
      </trkpt>
      <trkpt lat="48.08173" lon="-2.28452">
        <ele>64.163</ele>
        <time>2011-10-09T10:04:19Z</time>
      </trkpt>
      <trkpt lat="48.08184" lon="-2.2845">
        <ele>64.871</ele>
        <time>2011-10-09T10:04:23Z</time>
      </trkpt>
      <trkpt lat="48.08197" lon="-2.28445">
        <ele>65.712</ele>
        <time>2011-10-09T10:04:29Z</time>
      </trkpt>
      <trkpt lat="48.08201" lon="-2.28445">
        <ele>65.736</ele>
        <time>2011-10-09T10:04:33Z</time>
      </trkpt>
      <trkpt lat="48.08201" lon="-2.28445">
        <ele>65.898</ele>
        <time>2011-10-09T10:04:35Z</time>
      </trkpt>
      <trkpt lat="48.08215" lon="-2.28439">
        <ele>65.61</ele>
        <time>2011-10-09T10:05:09Z</time>
      </trkpt>
      <trkpt lat="48.08214" lon="-2.2844">
        <ele>65.631</ele>
        <time>2011-10-09T10:05:10Z</time>
      </trkpt>
      <trkpt lat="48.08215" lon="-2.28439">
        <ele>65.776</ele>
        <time>2011-10-09T10:05:12Z</time>
      </trkpt>
      <trkpt lat="48.08217" lon="-2.28438">
        <ele>66.077</ele>
        <time>2011-10-09T10:05:18Z</time>
      </trkpt>
      <trkpt lat="48.08213" lon="-2.28443">
        <ele>66.395</ele>
        <time>2011-10-09T10:05:26Z</time>
      </trkpt>
      <trkpt lat="48.08213" lon="-2.28442">
        <ele>66.389</ele>
        <time>2011-10-09T10:05:27Z</time>
      </trkpt>
      <trkpt lat="48.08219" lon="-2.28441">
        <ele>66.328</ele>
        <time>2011-10-09T10:05:35Z</time>
      </trkpt>
      <trkpt lat="48.0822" lon="-2.28441">
        <ele>66.342</ele>
        <time>2011-10-09T10:05:41Z</time>
      </trkpt>
      <trkpt lat="48.0822" lon="-2.2844">
        <ele>66.299</ele>
        <time>2011-10-09T10:05:42Z</time>
      </trkpt>
      <trkpt lat="48.08222" lon="-2.28445">
        <ele>66.528</ele>
        <time>2011-10-09T10:05:55Z</time>
      </trkpt>
      <trkpt lat="48.08222" lon="-2.28445">
        <ele>66.58</ele>
        <time>2011-10-09T10:05:56Z</time>
      </trkpt>
      <trkpt lat="48.08222" lon="-2.28441">
        <ele>66.346</ele>
        <time>2011-10-09T10:06:12Z</time>
      </trkpt>
      <trkpt lat="48.08217" lon="-2.28436">
        <ele>66.289</ele>
        <time>2011-10-09T10:06:31Z</time>
      </trkpt>
      <trkpt lat="48.08219" lon="-2.2844">
        <ele>66.572</ele>
        <time>2011-10-09T10:06:42Z</time>
      </trkpt>
      <trkpt lat="48.08212" lon="-2.28442">
        <ele>66.487</ele>
        <time>2011-10-09T10:06:52Z</time>
      </trkpt>
      <trkpt lat="48.08203" lon="-2.28429">
        <ele>66.825</ele>
        <time>2011-10-09T10:07:09Z</time>
      </trkpt>
      <trkpt lat="48.08212" lon="-2.28429">
        <ele>66.934</ele>
        <time>2011-10-09T10:07:16Z</time>
      </trkpt>
      <trkpt lat="48.08212" lon="-2.28428">
        <ele>66.995</ele>
        <time>2011-10-09T10:07:17Z</time>
      </trkpt>
      <trkpt lat="48.08213" lon="-2.2843">
        <ele>67.122</ele>
        <time>2011-10-09T10:07:21Z</time>
      </trkpt>
      <trkpt lat="48.08214" lon="-2.28433">
        <ele>67.309</ele>
        <time>2011-10-09T10:07:24Z</time>
      </trkpt>
      <trkpt lat="48.08215" lon="-2.28448">
        <ele>67.206</ele>
        <time>2011-10-09T10:07:33Z</time>
      </trkpt>
      <trkpt lat="48.08219" lon="-2.28447">
        <ele>67.155</ele>
        <time>2011-10-09T10:07:42Z</time>
      </trkpt>
      <trkpt lat="48.08221" lon="-2.28454">
        <ele>67.422</ele>
        <time>2011-10-09T10:07:47Z</time>
      </trkpt>
      <trkpt lat="48.08221" lon="-2.28458">
        <ele>67.28</ele>
        <time>2011-10-09T10:07:56Z</time>
      </trkpt>
      <trkpt lat="48.08221" lon="-2.28463">
        <ele>67.354</ele>
        <time>2011-10-09T10:07:58Z</time>
      </trkpt>
      <trkpt lat="48.0822" lon="-2.28468">
        <ele>67.436</ele>
        <time>2011-10-09T10:08:01Z</time>
      </trkpt>
      <trkpt lat="48.08219" lon="-2.2847">
        <ele>67.451</ele>
        <time>2011-10-09T10:08:02Z</time>
      </trkpt>
      <trkpt lat="48.08219" lon="-2.28472">
        <ele>67.529</ele>
        <time>2011-10-09T10:08:04Z</time>
      </trkpt>
      <trkpt lat="48.08214" lon="-2.2846">
        <ele>67.479</ele>
        <time>2011-10-09T10:08:08Z</time>
      </trkpt>
      <trkpt lat="48.08213" lon="-2.28456">
        <ele>67.584</ele>
        <time>2011-10-09T10:08:13Z</time>
      </trkpt>
      <trkpt lat="48.08212" lon="-2.28447">
        <ele>67.498</ele>
        <time>2011-10-09T10:08:19Z</time>
      </trkpt>
      <trkpt lat="48.08211" lon="-2.28442">
        <ele>67.362</ele>
        <time>2011-10-09T10:08:24Z</time>
      </trkpt>
      <trkpt lat="48.0821" lon="-2.2844">
        <ele>67.533</ele>
        <time>2011-10-09T10:08:37Z</time>
      </trkpt>
      <trkpt lat="48.08211" lon="-2.28436">
        <ele>67.717</ele>
        <time>2011-10-09T10:08:41Z</time>
      </trkpt>
      <trkpt lat="48.08215" lon="-2.28446">
        <ele>67.856</ele>
        <time>2011-10-09T10:08:49Z</time>
      </trkpt>
      <trkpt lat="48.08227" lon="-2.28459">
        <ele>67.653</ele>
        <time>2011-10-09T10:08:57Z</time>
      </trkpt>
      <trkpt lat="48.08226" lon="-2.28456">
        <ele>67.817</ele>
        <time>2011-10-09T10:09:05Z</time>
      </trkpt>
      <trkpt lat="48.08226" lon="-2.28449">
        <ele>67.727</ele>
        <time>2011-10-09T10:09:09Z</time>
      </trkpt>
      <trkpt lat="48.08222" lon="-2.28444">
        <ele>67.56</ele>
        <time>2011-10-09T10:09:14Z</time>
      </trkpt>
      <trkpt lat="48.08219" lon="-2.28453">
        <ele>67.609</ele>
        <time>2011-10-09T10:09:20Z</time>
      </trkpt>
      <trkpt lat="48.08216" lon="-2.28444">
        <ele>67.881</ele>
        <time>2011-10-09T10:09:43Z</time>
      </trkpt>
      <trkpt lat="48.08222" lon="-2.28472">
        <ele>67.872</ele>
        <time>2011-10-09T10:09:57Z</time>
      </trkpt>
      <trkpt lat="48.08222" lon="-2.2847">
        <ele>67.865</ele>
        <time>2011-10-09T10:09:59Z</time>
      </trkpt>
      <trkpt lat="48.08222" lon="-2.28477">
        <ele>67.981</ele>
        <time>2011-10-09T10:10:04Z</time>
      </trkpt>
      <trkpt lat="48.08223" lon="-2.28489">
        <ele>68.107</ele>
        <time>2011-10-09T10:10:10Z</time>
      </trkpt>
      <trkpt lat="48.08223" lon="-2.28483">
        <ele>68.058</ele>
        <time>2011-10-09T10:10:17Z</time>
      </trkpt>
      <trkpt lat="48.08224" lon="-2.28483">
        <ele>68.184</ele>
        <time>2011-10-09T10:10:19Z</time>
      </trkpt>
      <trkpt lat="48.08225" lon="-2.28475">
        <ele>68.11</ele>
        <time>2011-10-09T10:10:26Z</time>
      </trkpt>
      <trkpt lat="48.0822" lon="-2.28451">
        <ele>67.786</ele>
        <time>2011-10-09T10:10:31Z</time>
      </trkpt>
      <trkpt lat="48.08218" lon="-2.28441">
        <ele>67.881</ele>
        <time>2011-10-09T10:10:37Z</time>
      </trkpt>
      <trkpt lat="48.08217" lon="-2.28443">
        <ele>67.955</ele>
        <time>2011-10-09T10:10:39Z</time>
      </trkpt>
      <trkpt lat="48.08214" lon="-2.28439">
        <ele>67.957</ele>
        <time>2011-10-09T10:10:45Z</time>
      </trkpt>
      <trkpt lat="48.08216" lon="-2.28448">
        <ele>67.954</ele>
        <time>2011-10-09T10:10:50Z</time>
      </trkpt>
      <trkpt lat="48.08222" lon="-2.28464">
        <ele>67.854</ele>
        <time>2011-10-09T10:11:01Z</time>
      </trkpt>
      <trkpt lat="48.0822" lon="-2.28457">
        <ele>68.046</ele>
        <time>2011-10-09T10:11:08Z</time>
      </trkpt>
      <trkpt lat="48.0822" lon="-2.28459">
        <ele>68.084</ele>
        <time>2011-10-09T10:11:09Z</time>
      </trkpt>
      <trkpt lat="48.08216" lon="-2.28448">
        <ele>68.172</ele>
        <time>2011-10-09T10:11:17Z</time>
      </trkpt>
      <trkpt lat="48.08216" lon="-2.28447">
        <ele>68.219</ele>
        <time>2011-10-09T10:11:20Z</time>
      </trkpt>
      <trkpt lat="48.08216" lon="-2.2845">
        <ele>68.361</ele>
        <time>2011-10-09T10:11:24Z</time>
      </trkpt>
      <trkpt lat="48.08214" lon="-2.28446">
        <ele>68.387</ele>
        <time>2011-10-09T10:11:31Z</time>
      </trkpt>
      <trkpt lat="48.08215" lon="-2.28446">
        <ele>68.542</ele>
        <time>2011-10-09T10:11:34Z</time>
      </trkpt>
      <trkpt lat="48.08216" lon="-2.28444">
        <ele>68.76</ele>
        <time>2011-10-09T10:11:45Z</time>
      </trkpt>
      <trkpt lat="48.08217" lon="-2.28438">
        <ele>68.885</ele>
        <time>2011-10-09T10:12:05Z</time>
      </trkpt>
      <trkpt lat="48.08217" lon="-2.28438">
        <ele>68.907</ele>
        <time>2011-10-09T10:12:10Z</time>
      </trkpt>
      <trkpt lat="48.08218" lon="-2.28428">
        <ele>68.987</ele>
        <time>2011-10-09T10:12:15Z</time>
      </trkpt>
      <trkpt lat="48.08218" lon="-2.28428">
        <ele>68.981</ele>
        <time>2011-10-09T10:12:16Z</time>
      </trkpt>
      <trkpt lat="48.08208" lon="-2.28434">
        <ele>70.01</ele>
        <time>2011-10-09T10:13:13Z</time>
      </trkpt>
      <trkpt lat="48.08201" lon="-2.28427">
        <ele>70.336</ele>
        <time>2011-10-09T10:13:28Z</time>
      </trkpt>
      <trkpt lat="48.08196" lon="-2.28446">
        <ele>70.546</ele>
        <time>2011-10-09T10:13:38Z</time>
      </trkpt>
      <trkpt lat="48.08195" lon="-2.28445">
        <ele>70.681</ele>
        <time>2011-10-09T10:13:42Z</time>
      </trkpt>
      <trkpt lat="48.08197" lon="-2.28438">
        <ele>71.29</ele>
        <time>2011-10-09T10:13:52Z</time>
      </trkpt>
      <trkpt lat="48.08197" lon="-2.28435">
        <ele>71.288</ele>
        <time>2011-10-09T10:13:54Z</time>
      </trkpt>
      <trkpt lat="48.08199" lon="-2.28437">
        <ele>71.856</ele>
        <time>2011-10-09T10:14:16Z</time>
      </trkpt>
      <trkpt lat="48.08204" lon="-2.28435">
        <ele>72.152</ele>
        <time>2011-10-09T10:14:30Z</time>
      </trkpt>
      <trkpt lat="48.08205" lon="-2.28435">
        <ele>72.37</ele>
        <time>2011-10-09T10:14:40Z</time>
      </trkpt>
      <trkpt lat="48.0821" lon="-2.28434">
        <ele>72.371</ele>
        <time>2011-10-09T10:14:46Z</time>
      </trkpt>
      <trkpt lat="48.08215" lon="-2.28446">
        <ele>72.618</ele>
        <time>2011-10-09T10:14:59Z</time>
      </trkpt>
      <trkpt lat="48.08219" lon="-2.28453">
        <ele>72.698</ele>
        <time>2011-10-09T10:15:05Z</time>
      </trkpt>
      <trkpt lat="48.08224" lon="-2.28453">
        <ele>72.893</ele>
        <time>2011-10-09T10:15:11Z</time>
      </trkpt>
      <trkpt lat="48.08227" lon="-2.28455">
        <ele>72.719</ele>
        <time>2011-10-09T10:15:20Z</time>
      </trkpt>
      <trkpt lat="48.0822" lon="-2.28446">
        <ele>72.746</ele>
        <time>2011-10-09T10:15:33Z</time>
      </trkpt>
      <trkpt lat="48.08215" lon="-2.2844">
        <ele>73.09</ele>
        <time>2011-10-09T10:16:15Z</time>
      </trkpt>
      <trkpt lat="48.08213" lon="-2.28435">
        <ele>73.403</ele>
        <time>2011-10-09T10:16:38Z</time>
      </trkpt>
      <trkpt lat="48.08212" lon="-2.28429">
        <ele>73.636</ele>
        <time>2011-10-09T10:16:44Z</time>
      </trkpt>
      <trkpt lat="48.08212" lon="-2.28425">
        <ele>73.801</ele>
        <time>2011-10-09T10:16:50Z</time>
      </trkpt>
      <trkpt lat="48.08211" lon="-2.28424">
        <ele>73.869</ele>
        <time>2011-10-09T10:16:52Z</time>
      </trkpt>
      <trkpt lat="48.08209" lon="-2.28428">
        <ele>73.89</ele>
        <time>2011-10-09T10:16:58Z</time>
      </trkpt>
      <trkpt lat="48.08208" lon="-2.28443">
        <ele>74.083</ele>
        <time>2011-10-09T10:17:19Z</time>
      </trkpt>
    </trkseg>
  </trk>
</gpx>